[[{"header":{"parameterUnit":"m.s-1","parameterCategory":1,"la1":30.6,"la2":29.2853,"lo1":-89.7004,"lo2":-87.6739,"dy":0.0162,"dx":0.0183,"nx":112,"ny":82,"refTime":"2024-06-29T18:00:00:Z","depth":0,"parameterNumber":2,"parameterNumberName":"U-component_of_WINDS"},"data":[0.0,0.0,0.0,0.0,0.0,0.0,0.0,0.0,0.0,0.0,0.0,0.0,0.0,0.0,0.0,0.0,0.0,0.0,0.0,0.0,0.0,0.0,0.0,0.0,0.0,0.0,0.0,0.0,0.0,0.0,0.0,0.0,0.0,0.0,0.0,0.0,0.0,0.0,0.0,0.0,0.0,0.0,0.0,0.0,0.0,0.0,0.0,0.0,0.0,0.0,0.0,0.0,0.0,0.0,0.0,0.0,0.0,0.0,0.0,0.0,0.0,0.0,0.0,0.0,0.0,0.0,0.0,0.0,0.0,0.0,0.0,0.0,0.0,0.0,0.0,0.0,0.0,0.0,0.0,0.0,0.0,0.0,0.0,0.0,0.0,0.0,0.0,0.0,0.0,0.0,-2.1415,-2.1997,-2.3194,-2.3696,-2.3132,-2.2846,-2.1541,-1.8796,0.0,0.0,0.0,0.0,0.0,0.0,0.0,0.0,0.0,0.0,0.0,0.0,0.0,0.0,0.0,0.0,0.0,0.0,0.0,0.0,0.0,0.0,0.0,0.0,0.0,0.0,0.0,0.0,0.0,0.0,0.0,0.0,0.0,0.0,0.0,0.0,0.0,0.0,0.0,0.0,0.0,0.0,0.0,0.0,0.0,0.0,0.0,0.0,0.0,0.0,0.0,0.0,0.0,0.0,0.0,0.0,0.0,0.0,0.0,0.0,0.0,0.0,0.0,0.0,0.0,0.0,0.0,0.0,0.0,0.0,0.0,0.0,0.0,0.0,0.0,0.0,0.0,0.0,0.0,0.0,0.0,0.0,0.0,0.0,0.0,0.0,0.0,0.0,0.0,0.0,0.0,0.0,0.0,0.0,0.0,0.0,0.0,0.0,0.0,0.0,0.0,0.0,0.0,0.0,-2.1931,-2.5122,-2.5172,-2.4822,-2.4438,-2.3358,-2.2096,-2.0681,0.0,0.0,0.0,0.0,0.0,0.0,0.0,0.0,0.0,0.0,0.0,0.0,0.0,0.0,0.0,0.0,0.0,0.0,0.0,0.0,0.0,0.0,0.0,0.0,0.0,0.0,0.0,0.0,0.0,0.0,0.0,0.0,0.0,0.0,0.0,0.0,0.0,0.0,0.0,0.0,0.0,0.0,0.0,0.0,0.0,0.0,0.0,0.0,0.0,0.0,0.0,0.0,0.0,0.0,0.0,0.0,0.0,0.0,0.0,0.0,0.0,0.0,0.0,0.0,0.0,0.0,0.0,0.0,0.0,0.0,0.0,0.0,0.0,0.0,0.0,0.0,0.0,0.0,0.0,0.0,0.0,0.0,0.0,0.0,0.0,0.0,0.0,0.0,0.0,0.0,0.0,0.0,0.0,0.0,0.0,0.0,0.0,0.0,0.0,0.0,0.0,0.0,0.0,-2.1501,-2.3221,-2.6798,-2.5984,-2.5278,-2.5486,-2.3777,-2.2202,-2.1018,-1.8212,0.0,0.0,0.0,0.0,0.0,0.0,0.0,0.0,0.0,0.0,0.0,0.0,0.0,0.0,0.0,0.0,0.0,0.0,0.0,0.0,0.0,0.0,0.0,0.0,0.0,0.0,0.0,0.0,0.0,0.0,0.0,0.0,0.0,0.0,0.0,0.0,0.0,0.0,0.0,0.0,0.0,0.0,0.0,0.0,0.0,0.0,0.0,0.0,0.0,0.0,0.0,0.0,0.0,0.0,0.0,0.0,0.0,0.0,0.0,0.0,0.0,0.0,0.0,0.0,0.0,0.0,0.0,0.0,0.0,0.0,0.0,0.0,0.0,0.0,0.0,0.0,0.0,0.0,0.0,0.0,0.0,0.0,0.0,0.0,0.0,0.0,0.0,0.0,0.0,0.0,0.0,0.0,0.0,0.0,0.0,0.0,0.0,0.0,0.0,0.0,0.0,0.0,-2.3801,-2.5091,-2.7797,-2.6839,-2.6105,-2.6412,-2.4194,-2.2251,-2.0998,-1.7963,0.0,0.0,0.0,0.0,0.0,0.0,0.0,0.0,0.0,0.0,0.0,0.0,0.0,0.0,0.0,0.0,0.0,0.0,0.0,0.0,0.0,0.0,0.0,0.0,0.0,0.0,0.0,0.0,0.0,0.0,0.0,0.0,0.0,0.0,0.0,0.0,0.0,0.0,0.0,0.0,0.0,0.0,0.0,0.0,0.0,0.0,0.0,0.0,0.0,0.0,0.0,0.0,0.0,0.0,0.0,0.0,0.0,0.0,0.0,0.0,0.0,0.0,0.0,0.0,0.0,0.0,0.0,0.0,0.0,0.0,0.0,0.0,0.0,0.0,0.0,0.0,0.0,0.0,0.0,0.0,0.0,0.0,0.0,0.0,0.0,0.0,0.0,0.0,0.0,0.0,0.0,0.0,0.0,0.0,0.0,0.0,0.0,0.0,0.0,0.0,0.0,0.0,-2.5352,-2.763,-2.8297,-2.8307,-2.7968,-2.7195,-2.4655,-2.2475,-2.1073,-1.7418,0.0,0.0,0.0,0.0,0.0,0.0,0.0,0.0,0.0,0.0,0.0,0.0,0.0,0.0,0.0,0.0,0.0,0.0,0.0,0.0,0.0,0.0,0.0,0.0,0.0,0.0,0.0,0.0,0.0,0.0,0.0,0.0,0.0,0.0,0.0,0.0,0.0,0.0,0.0,0.0,0.0,0.0,0.0,0.0,0.0,0.0,0.0,0.0,0.0,0.0,0.0,0.0,0.0,0.0,0.0,0.0,0.0,0.0,0.0,0.0,0.0,0.0,0.0,0.0,0.0,0.0,0.0,0.0,0.0,0.0,0.0,0.0,0.0,0.0,0.0,0.0,0.0,0.0,0.0,0.0,0.0,0.0,0.0,0.0,0.0,0.0,0.0,0.0,0.0,0.0,0.0,0.0,0.0,0.0,0.0,0.0,0.0,0.0,0.0,0.0,0.0,0.0,-2.4321,-2.6273,-2.7807,-2.788,-2.7865,-2.8002,-2.5189,-2.2881,-2.1635,0.0,0.0,0.0,0.0,0.0,0.0,0.0,0.0,0.0,0.0,0.0,0.0,0.0,0.0,0.0,0.0,0.0,0.0,0.0,0.0,0.0,0.0,0.0,0.0,0.0,0.0,0.0,0.0,0.0,0.0,0.0,0.0,0.0,0.0,0.0,0.0,0.0,0.0,0.0,0.0,0.0,0.0,0.0,0.0,0.0,0.0,0.0,0.0,0.0,0.0,0.0,0.0,0.0,0.0,0.0,0.0,0.0,0.0,0.0,0.0,0.0,0.0,0.0,0.0,0.0,0.0,0.0,0.0,0.0,0.0,0.0,0.0,0.0,0.0,0.0,0.0,0.0,0.0,0.0,0.0,0.0,0.0,0.0,0.0,0.0,0.0,0.0,0.0,0.0,0.0,0.0,0.0,0.0,0.0,0.0,0.0,0.0,0.0,0.0,0.0,0.0,0.0,-2.1908,-2.4029,-2.5843,-2.7527,-2.7791,-2.8105,-2.8756,-2.5743,-2.3315,-2.2091,0.0,0.0,0.0,0.0,0.0,0.0,0.0,0.0,0.0,0.0,0.0,0.0,0.0,0.0,0.0,0.0,0.0,0.0,0.0,0.0,0.0,0.0,0.0,0.0,0.0,0.0,0.0,0.0,0.0,0.0,0.0,0.0,0.0,0.0,0.0,0.0,0.0,0.0,0.0,0.0,0.0,0.0,0.0,0.0,0.0,0.0,0.0,0.0,0.0,0.0,0.0,0.0,0.0,0.0,0.0,0.0,0.0,0.0,0.0,0.0,0.0,0.0,0.0,0.0,0.0,0.0,0.0,0.0,0.0,0.0,0.0,0.0,0.0,0.0,0.0,0.0,0.0,0.0,0.0,0.0,0.0,0.0,0.0,0.0,0.0,0.0,0.0,0.0,0.0,0.0,0.0,0.0,0.0,0.0,0.0,0.0,0.0,0.0,0.0,0.0,0.0,0.0,-2.2037,-2.492,-2.696,-2.764,-2.8352,-2.8979,-2.9451,-2.6318,-2.3721,0.0,0.0,0.0,0.0,0.0,0.0,0.0,0.0,0.0,0.0,0.0,0.0,0.0,0.0,0.0,0.0,0.0,0.0,0.0,0.0,0.0,0.0,0.0,0.0,0.0,0.0,0.0,0.0,0.0,0.0,0.0,0.0,0.0,0.0,0.0,0.0,0.0,0.0,0.0,0.0,0.0,0.0,0.0,0.0,0.0,0.0,0.0,0.0,0.0,0.0,0.0,0.0,0.0,0.0,0.0,0.0,0.0,0.0,0.0,0.0,0.0,0.0,0.0,0.0,0.0,0.0,0.0,0.0,0.0,0.0,0.0,0.0,0.0,0.0,0.0,0.0,0.0,0.0,0.0,0.0,0.0,0.0,0.0,0.0,0.0,0.0,0.0,0.0,0.0,0.0,0.0,0.0,0.0,0.0,0.0,0.0,0.0,0.0,0.0,0.0,0.0,0.0,0.0,-2.2817,-2.5283,-2.696,-2.764,-2.7899,-2.8493,-2.9679,-2.6589,-2.4004,-2.2655,0.0,0.0,0.0,0.0,0.0,0.0,0.0,0.0,0.0,0.0,0.0,0.0,0.0,0.0,0.0,0.0,0.0,0.0,0.0,0.0,0.0,0.0,0.0,0.0,0.0,0.0,0.0,0.0,0.0,0.0,0.0,0.0,0.0,0.0,0.0,0.0,0.0,0.0,0.0,0.0,0.0,0.0,0.0,0.0,0.0,0.0,0.0,0.0,0.0,0.0,0.0,0.0,0.0,0.0,0.0,0.0,0.0,0.0,0.0,0.0,0.0,0.0,0.0,0.0,0.0,0.0,0.0,0.0,0.0,0.0,0.0,0.0,0.0,0.0,0.0,0.0,0.0,0.0,0.0,0.0,0.0,0.0,0.0,0.0,0.0,0.0,0.0,0.0,0.0,0.0,0.0,0.0,0.0,0.0,0.0,0.0,0.0,0.0,0.0,0.0,0.0,0.0,-2.3602,-2.5894,-2.7461,-2.8139,-2.7903,-2.8304,-2.9767,-2.6919,-2.456,-2.3412,0.0,0.0,0.0,0.0,0.0,0.0,0.0,0.0,0.0,0.0,0.0,0.0,0.0,0.0,0.0,0.0,0.0,0.0,0.0,0.0,0.0,0.0,0.0,0.0,0.0,0.0,0.0,0.0,0.0,0.0,0.0,0.0,0.0,0.0,0.0,0.0,0.0,0.0,0.0,0.0,0.0,0.0,0.0,0.0,0.0,0.0,0.0,0.0,0.0,0.0,0.0,0.0,0.0,0.0,0.0,0.0,0.0,0.0,0.0,0.0,0.0,0.0,0.0,0.0,0.0,0.0,0.0,0.0,0.0,0.0,0.0,0.0,0.0,0.0,0.0,0.0,0.0,0.0,0.0,0.0,0.0,0.0,0.0,0.0,0.0,0.0,0.0,0.0,0.0,0.0,0.0,0.0,0.0,0.0,0.0,0.0,0.0,0.0,0.0,0.0,0.0,0.0,-2.4358,-2.6692,-2.8266,-2.8946,-2.8306,-2.8389,-2.9789,-2.7316,-2.5301,-2.4365,0.0,0.0,0.0,0.0,0.0,0.0,0.0,0.0,0.0,0.0,0.0,0.0,0.0,0.0,0.0,0.0,0.0,0.0,0.0,0.0,0.0,0.0,0.0,0.0,0.0,0.0,0.0,0.0,0.0,0.0,0.0,0.0,0.0,0.0,0.0,0.0,0.0,0.0,0.0,0.0,0.0,0.0,0.0,0.0,0.0,0.0,0.0,0.0,0.0,0.0,0.0,0.0,0.0,0.0,0.0,0.0,0.0,0.0,0.0,0.0,-1.8387,-1.7284,0.0,0.0,0.0,0.0,0.0,0.0,0.0,0.0,0.0,0.0,0.0,0.0,0.0,0.0,0.0,0.0,0.0,0.0,0.0,0.0,0.0,0.0,0.0,0.0,0.0,0.0,0.0,0.0,0.0,0.0,0.0,0.0,0.0,0.0,0.0,0.0,0.0,0.0,0.0,0.0,-2.4576,-2.7194,-2.8886,-2.905,-2.8885,-2.9062,-2.9908,-2.781,-2.585,-2.4397,-2.2018,0.0,0.0,0.0,0.0,0.0,0.0,0.0,0.0,0.0,0.0,0.0,0.0,0.0,0.0,0.0,0.0,0.0,0.0,0.0,0.0,0.0,0.0,0.0,0.0,0.0,0.0,0.0,0.0,0.0,0.0,0.0,0.0,0.0,0.0,0.0,0.0,0.0,0.0,0.0,0.0,0.0,0.0,0.0,0.0,0.0,0.0,0.0,0.0,0.0,0.0,0.0,0.0,0.0,0.0,0.0,0.0,0.0,0.0,0.0,-2.2208,-2.0455,0.0,0.0,0.0,0.0,0.0,0.0,0.0,0.0,0.0,0.0,0.0,0.0,0.0,0.0,0.0,0.0,0.0,0.0,0.0,0.0,0.0,0.0,0.0,0.0,0.0,0.0,0.0,0.0,0.0,0.0,0.0,0.0,0.0,0.0,0.0,0.0,0.0,0.0,0.0,0.0,-2.5239,-2.7984,-2.9736,-2.9736,-2.9316,-2.9314,-2.9946,-2.8331,-2.6756,-2.5521,-2.3134,0.0,0.0,0.0,0.0,0.0,0.0,0.0,0.0,0.0,0.0,0.0,0.0,0.0,0.0,0.0,0.0,0.0,0.0,0.0,0.0,0.0,0.0,0.0,0.0,0.0,0.0,0.0,0.0,0.0,0.0,0.0,0.0,0.0,0.0,0.0,0.0,0.0,0.0,0.0,0.0,0.0,0.0,0.0,0.0,0.0,0.0,0.0,0.0,0.0,0.0,0.0,0.0,0.0,-2.7307,-2.8034,-2.9251,-2.8634,-2.8706,-2.9125,-2.6525,-2.4604,-2.3286,-2.2632,0.0,0.0,0.0,0.0,0.0,0.0,0.0,0.0,0.0,0.0,0.0,0.0,0.0,0.0,0.0,0.0,0.0,0.0,0.0,0.0,0.0,0.0,-2.4999,-2.7435,-2.8031,-2.725,-2.4309,0.0,0.0,0.0,0.0,0.0,0.0,0.0,0.0,0.0,0.0,0.0,-2.612,-2.8741,-3.0417,-3.0417,-2.9753,-2.9464,-2.9848,-2.8788,-2.7675,-2.663,-2.4308,-2.2005,0.0,0.0,0.0,0.0,0.0,0.0,0.0,0.0,0.0,0.0,0.0,0.0,0.0,0.0,0.0,0.0,0.0,0.0,0.0,0.0,0.0,0.0,0.0,0.0,0.0,0.0,0.0,0.0,0.0,0.0,0.0,0.0,-1.5198,-1.6117,0.0,0.0,0.0,0.0,0.0,0.0,0.0,0.0,0.0,0.0,0.0,0.0,0.0,-2.6518,-2.8522,-2.9644,-3.0591,-3.1405,-3.2111,-3.2531,-3.273,-3.264,-3.264,-3.2712,-3.2296,0.0,-2.6663,-2.6561,0.0,0.0,0.0,0.0,0.0,0.0,0.0,0.0,0.0,0.0,0.0,0.0,0.0,0.0,0.0,0.0,0.0,0.0,0.0,0.0,0.0,0.0,-2.9126,-3.0855,-3.0335,-2.9536,-2.9907,-2.653,-2.3133,-2.2192,-2.1072,-1.984,0.0,0.0,0.0,0.0,0.0,0.0,-2.695,-2.9118,-3.0485,-3.0485,-3.0339,-2.9992,-2.944,-2.9132,-2.8105,-2.6122,-2.5593,-2.4365,-2.2134,-2.0628,0.0,0.0,0.0,0.0,0.0,0.0,0.0,0.0,0.0,0.0,0.0,0.0,0.0,0.0,0.0,0.0,0.0,0.0,0.0,0.0,0.0,0.0,0.0,0.0,0.0,0.0,0.0,0.0,0.0,-1.568,-1.7373,-1.8632,-1.8468,-1.8114,0.0,0.0,0.0,0.0,0.0,0.0,0.0,0.0,0.0,-2.8457,-2.9247,-3.0171,-3.131,-3.2492,-3.3263,-3.3608,-3.4368,-3.4751,-3.4751,-3.4751,-3.4751,-3.4751,-3.4751,-3.349,-3.1317,-3.0387,-2.9057,-2.7565,0.0,0.0,0.0,0.0,-2.7369,-2.7158,-2.8497,-2.8157,-2.699,-2.5995,0.0,0.0,0.0,0.0,0.0,0.0,0.0,-2.7817,-3.0321,-3.1086,-3.1618,-3.3354,-3.3125,-3.2564,-3.2783,-3.0855,-2.8459,-2.6452,-2.4825,-2.3267,-2.1611,-2.1742,0.0,0.0,0.0,-2.6718,-2.7779,-2.9798,-3.1118,-3.1118,-3.1075,-3.0587,-2.9403,-2.9626,-2.9042,-2.7191,-2.6302,-2.5417,-2.4453,-2.215,-2.0283,0.0,0.0,0.0,0.0,0.0,0.0,0.0,0.0,0.0,0.0,0.0,0.0,0.0,0.0,0.0,0.0,0.0,0.0,0.0,0.0,0.0,0.0,0.0,0.0,0.0,0.0,0.0,0.0,-1.8225,-2.0197,-2.154,-2.1705,-2.1452,0.0,0.0,0.0,0.0,0.0,0.0,-2.788,-2.9436,-3.0642,-3.144,-3.2419,-3.3194,-3.3702,-3.4798,-3.5427,-3.5645,-3.6404,-3.6755,-3.6741,-3.6957,-3.7031,-3.6998,-3.6998,-3.6655,-3.5931,-3.3674,-3.191,-3.0649,-3.059,-3.0215,-2.9823,-3.0998,-3.1052,-3.08,-3.2586,-3.2661,-3.1761,-3.032,-2.9713,-2.9071,-2.6435,0.0,0.0,0.0,0.0,-3.0586,-3.3137,-3.35,-3.363,-3.5384,-3.5616,-3.5314,-3.4814,-3.4181,-3.2945,-3.0382,-2.8664,-2.7112,-2.535,-2.5189,0.0,-2.3778,-2.6026,-2.8177,-2.9105,-3.0775,-3.1879,-3.1879,-3.1714,-3.0976,-2.9461,-2.9988,-2.9671,-2.7925,-2.697,-2.6412,-2.6213,-2.3668,-2.1856,-2.102,0.0,0.0,0.0,0.0,0.0,0.0,0.0,0.0,0.0,0.0,0.0,0.0,0.0,0.0,0.0,0.0,0.0,0.0,0.0,0.0,0.0,0.0,0.0,0.0,0.0,0.0,0.0,0.0,0.0,-2.5162,-2.5245,0.0,0.0,0.0,0.0,-2.6572,-2.9602,-3.1446,-3.1447,-3.2915,-3.4002,-3.456,-3.4655,-3.5425,-3.696,-3.7051,-3.7471,-3.8218,-3.9039,-3.9374,-3.9344,-4.0106,-4.0381,-4.0257,-4.0257,-4.0239,-3.9913,-3.6057,-3.3991,-3.3197,-3.3215,-3.3179,-3.3143,-3.3174,-3.316,-3.3127,-3.3178,-3.2661,-3.2229,-3.3633,-3.3579,-3.2772,-3.1784,-3.1521,0.0,0.0,-3.2652,-3.3241,-3.5614,-3.565,-3.5472,-3.7077,-3.747,-3.7255,-3.6453,-3.5951,-3.4989,-3.2668,-3.19,-3.1132,-2.9555,0.0,-2.869,-2.8553,-2.8956,-2.981,-3.125,-3.215,-3.2652,-3.2652,-3.2034,-3.1002,-2.9512,-3.0075,-2.9579,-2.7462,-2.7816,-2.7775,-2.7078,-2.5491,-2.3981,-2.2604,-2.1036,0.0,0.0,0.0,0.0,0.0,0.0,0.0,0.0,0.0,0.0,0.0,0.0,0.0,0.0,0.0,0.0,0.0,0.0,0.0,0.0,0.0,0.0,0.0,0.0,0.0,0.0,0.0,0.0,-2.7081,-2.7774,0.0,-2.8521,-2.9139,-2.9926,-3.0946,-3.2776,-3.3951,-3.4266,-3.5895,-3.6864,-3.6915,-3.7258,-3.7676,-3.8156,-3.8092,-3.817,-3.8462,-3.8707,-3.8822,-3.8789,-3.9097,-3.9465,-3.9922,-3.9872,-4.0163,-4.0471,-3.8515,-3.7522,-3.725,-3.725,-3.6942,-3.6544,-3.7035,-3.7217,-3.729,-3.7745,-3.771,-3.7403,-3.6919,-3.5858,-3.4675,-3.4389,-3.4609,-3.515,-3.5907,-3.6431,-3.7077,-3.8437,-3.8507,-3.8361,-3.895,-3.8719,-3.829,-3.8005,-3.7431,-3.6718,-3.5901,-3.444,-3.2921,-3.1688,-3.1931,-3.1793,-3.035,-3.1439,-3.2519,-3.2732,-3.3391,-3.3751,-3.3437,-3.316,-3.2232,-3.0257,-3.0787,-3.0294,-2.8144,-2.7758,-2.7491,-2.7243,-2.5713,-2.4427,-2.349,-2.2423,-2.0115,0.0,0.0,0.0,0.0,0.0,0.0,0.0,0.0,0.0,0.0,0.0,0.0,0.0,0.0,0.0,0.0,0.0,0.0,0.0,0.0,0.0,0.0,0.0,0.0,0.0,-2.6255,-2.8549,-2.9351,-3.0555,-3.1459,-3.1817,-3.2402,-3.3176,-3.4192,-3.5436,-3.6305,-3.6652,-3.793,-3.862,-3.8571,-3.8816,-3.8966,-3.8979,-3.88,-3.8691,-3.8691,-3.8831,-3.8883,-3.885,-3.9124,-3.9511,-3.9973,-3.9923,-4.018,-4.058,-4.0002,-3.9767,-3.9713,-3.9188,-3.8843,-3.8663,-3.9188,-3.955,-3.984,-4.0329,-4.0492,-4.0329,-3.9245,-3.8162,-3.7244,-3.7245,-3.7554,-3.8059,-3.8564,-3.9031,-3.9497,-4.0036,-4.0066,-3.9971,-3.9971,-3.9558,-3.9163,-3.9163,-3.8754,-3.829,-3.8041,-3.6531,-3.4968,-3.3987,-3.4283,-3.4121,-3.2499,-3.3382,-3.4165,-3.3932,-3.4314,-3.4521,-3.42,-3.3938,-3.2994,-3.1035,-3.1085,-3.0427,-2.8525,-2.7696,-2.7298,-2.7298,-2.5802,-2.4627,-2.3951,-2.2683,-2.0827,-1.8401,0.0,0.0,0.0,0.0,0.0,0.0,0.0,0.0,0.0,0.0,0.0,0.0,0.0,0.0,0.0,0.0,0.0,0.0,0.0,0.0,0.0,0.0,0.0,-2.4429,-2.8343,-3.1449,-3.2135,-3.3627,-3.4388,-3.3903,-3.5334,-3.6293,-3.6302,-3.7771,-3.865,-3.8639,-3.8952,-3.9245,-3.9533,-3.9296,-3.9301,-3.9546,-3.9307,-3.9175,-3.9217,-3.9725,-3.9926,-3.9847,-4.0632,-4.0932,-4.0814,-4.0814,-4.0761,-4.0655,-4.06,-4.0582,-4.042,-3.8862,-3.8752,-3.9423,-3.9423,-3.9894,-4.0528,-4.0528,-4.0546,-4.0564,-4.0564,-4.0564,-4.0564,-4.0492,-4.0474,-4.0456,-4.04,-4.0381,-4.0381,-4.0381,-4.0288,-4.0176,-4.0176,-4.0045,-3.995,-3.995,-3.9932,-3.97,-3.8986,-3.822,-3.7416,-3.6577,-3.6111,-3.57,-3.5241,-3.4865,0.0,-3.4918,-3.493,-3.4947,-3.4899,-3.4253,-3.3243,-3.1763,-3.0986,-2.9963,-2.8492,-2.7729,-2.7315,-2.7298,-2.5905,-2.4795,-2.405,-2.1862,-2.0678,-2.0595,0.0,0.0,0.0,0.0,0.0,0.0,0.0,0.0,0.0,0.0,0.0,0.0,0.0,0.0,0.0,0.0,0.0,0.0,0.0,0.0,0.0,-2.6814,-2.9213,-2.985,-3.2028,-3.3925,-3.4886,-3.6084,-3.6939,-3.7298,-3.7871,-3.8404,-3.8843,-3.9479,-3.9755,-3.9543,-3.981,-4.0187,-4.0636,-4.0597,-4.0685,-4.0952,-4.0886,-4.1041,-4.1425,-4.1583,-4.1921,-4.2454,-4.2674,-4.308,-4.3595,-4.3542,-4.378,-4.4106,-4.2886,-4.2322,-4.2067,-4.0492,-4.0003,-4.0202,-4.0202,-4.0691,-4.1361,-4.1361,-4.1759,-4.223,-4.223,-4.223,-4.223,-4.223,-4.2211,-4.2211,-4.2192,-4.2154,-4.2115,-4.2115,-4.2001,-4.1923,-4.1923,-4.1435,-4.0985,-4.0985,-4.0574,-4.0126,-3.9929,-3.9695,-3.9066,-3.7524,-3.7165,-3.7073,-3.6943,-3.6811,-3.6534,-3.5938,-3.5847,-3.5599,-3.4954,-3.4717,-3.3988,-3.2514,-3.2199,-3.1044,-2.8558,-2.821,-2.7845,-2.7315,-2.6402,-2.554,-2.4812,-2.2609,-2.1234,0.0,0.0,0.0,0.0,0.0,0.0,0.0,0.0,0.0,0.0,0.0,0.0,0.0,0.0,0.0,0.0,0.0,0.0,0.0,0.0,0.0,0.0,-3.0206,-3.2636,-3.4582,-3.5325,-3.6044,-3.7068,-3.8042,-3.8823,-3.9307,-3.9481,-3.969,-4.0049,-4.0206,-4.0368,-4.0563,-4.0603,-4.1002,-4.1789,-4.2025,-4.2207,-4.2331,-4.259,-4.2806,-4.2982,-4.2868,-4.3039,-4.3515,-4.3515,-4.3737,-4.4143,-4.4107,-4.4291,-4.4564,-4.3579,-4.3105,-4.2812,0.0,0.0,0.0,0.0,-4.1796,-4.2212,-4.2212,-4.2502,-4.2901,-4.2901,-4.2901,-4.2901,-4.2901,-4.2901,-4.2901,-4.2901,-4.2862,-4.2842,-4.2842,-4.2765,-4.2668,-4.2668,-4.2269,-4.1908,-4.1908,-4.1566,-4.1154,-4.083,-4.0758,0.0,-3.8958,-3.8401,-3.797,-3.7482,-3.7337,-3.7054,-3.6316,-3.6194,-3.602,-3.5504,-3.5293,-3.4726,-3.3539,-3.2713,0.0,0.0,0.0,-2.7796,-2.6437,-2.627,0.0,0.0,0.0,0.0,0.0,-2.3885,0.0,0.0,-2.135,-2.1338,0.0,0.0,0.0,0.0,0.0,0.0,0.0,0.0,0.0,0.0,0.0,0.0,0.0,0.0,0.0,0.0,-3.35,-3.5025,-3.8367,-3.8131,-3.7952,-3.8779,-3.9509,-4.0038,-4.0291,-4.0301,-4.0339,-4.0435,-4.0435,-4.0826,-4.1724,-4.1571,0.0,0.0,0.0,-4.3867,-4.3838,-4.4363,-4.452,-4.4313,-4.4038,-4.3973,-4.4099,-4.4064,-4.4013,-4.3943,-4.3943,-4.3907,-4.3853,-4.3743,-4.3579,-4.3196,-4.1343,-4.1017,-4.165,-4.2375,-4.2702,-4.2755,-4.2755,0.0,0.0,-4.2901,-4.2901,-4.2901,-4.2901,-4.2901,-4.2901,-4.2901,-4.2901,-4.2901,-4.2901,-4.2861,-4.2822,-4.2822,-4.2707,-4.2631,-4.2631,-4.2631,-4.2433,-4.1713,-4.1568,-4.1335,-4.058,-3.9678,-3.8668,-3.7509,-3.7214,-3.6965,-3.6378,-3.6319,-3.6298,-3.6236,-3.5907,0.0,-3.4648,-3.3012,-3.1598,-3.0643,-2.9208,-2.7481,-2.5441,-2.5905,-2.5887,-2.5243,-2.5772,-2.6766,-2.8144,-2.8144,-2.7561,-2.6401,-2.4231,-2.3835,0.0,0.0,0.0,0.0,0.0,0.0,0.0,0.0,0.0,0.0,0.0,0.0,0.0,0.0,0.0,-3.3166,-3.5257,-3.7344,-3.9374,-3.9698,-3.9786,-3.9967,-4.0139,-4.0244,-4.0282,-4.0301,-4.0578,-4.1227,-4.1266,-4.1934,-4.3433,-4.3479,-4.407,-4.543,-4.5571,-4.569,-4.5839,-4.5959,-4.632,-4.6884,-4.656,0.0,-4.7767,-4.75,-4.7351,-4.7351,-4.7351,-4.7313,-4.7198,-4.6559,-4.5787,-4.4794,-4.2412,-4.1162,-4.0745,-4.0908,-4.1361,-4.1922,-4.1922,-4.2357,-4.2901,-4.2901,-4.2901,-4.2901,-4.2901,-4.2901,0.0,-4.2901,-4.2901,-4.2901,-4.2901,-4.29,-4.2881,-4.2881,-4.2862,-4.2825,-4.2825,-4.2825,-4.2789,-4.2626,-4.2608,-4.2355,-4.1577,-4.0653,-3.9732,-3.885,-3.8688,-3.8272,-3.7147,-3.7001,-3.6847,-3.649,-3.6323,-3.5942,-3.5221,-3.4747,-3.3512,-3.1221,-2.9388,-2.7945,-2.6917,-2.6435,-2.6119,-2.5987,-2.554,-2.5756,-2.6634,-2.6634,-2.7098,-2.7945,-2.6899,-2.6234,0.0,0.0,0.0,0.0,0.0,0.0,0.0,0.0,0.0,0.0,0.0,-2.871,-2.9723,0.0,-3.4251,-3.6236,-3.7718,-3.9131,-4.0507,-4.0826,-4.0903,-4.0903,-4.0559,-4.0301,-4.0301,-4.0654,-4.1246,-4.2087,-4.2526,-4.3482,-4.5152,-4.5248,-4.5711,-4.6683,-4.7124,-4.732,-4.7258,-4.765,-4.7961,-4.8203,-4.803,-4.8144,-4.8532,-4.8383,-4.8306,-4.8306,-4.8306,-4.8267,-4.8229,-4.7787,-4.7031,-4.6016,-4.4719,-4.3663,-4.29,-4.29,-4.29,-4.29,-4.29,-4.29,-4.2901,-4.2901,-4.2901,-4.2901,-4.2901,-4.2901,-4.2901,-4.2901,-4.2901,-4.2901,-4.2901,-4.2901,-4.2901,-4.2901,-4.2901,-4.2901,-4.2901,-4.2901,-4.2901,-4.2901,-4.2901,-4.2755,-4.2375,-4.1902,-4.1178,-3.9932,-3.9373,-3.8869,-3.8238,-3.7809,-3.745,-3.7227,-3.6783,-3.6345,-3.598,-3.5349,-3.412,-3.2176,-3.0969,-2.9761,-2.8409,-2.8009,-2.7644,-2.7313,-2.728,-2.7609,-2.8354,-2.8354,-2.8555,-2.8903,-2.8903,-2.8704,0.0,0.0,0.0,0.0,0.0,0.0,0.0,0.0,-2.6206,-2.7822,-3.0341,-3.2477,-3.3167,-3.494,-3.6962,-3.9055,-3.9859,-4.0504,-4.138,-4.1361,-4.1323,-4.1476,-4.0788,-4.0358,-4.0511,-4.1266,-4.2183,-4.3214,-4.4036,-4.521,-4.692,-4.7016,-4.7236,-4.7763,-4.8464,-4.8673,-4.8348,-4.8983,-4.9177,-4.89,-4.8833,-4.8658,-4.8402,-4.8344,-4.8306,-4.8306,-4.8306,-4.8306,-4.8287,-4.8228,-4.7764,-4.7082,-4.7021,-4.6501,-4.5745,-4.5417,-4.4892,-4.4331,-4.4331,-4.3896,-4.3354,-4.3172,-4.3118,-4.31,-4.2955,-4.2901,-4.2901,-4.2901,-4.2901,-4.2901,-4.2901,-4.2901,-4.2901,-4.2901,-4.2901,-4.2901,-4.2901,-4.2901,-4.2901,-4.2901,-4.2901,-4.2901,-4.2901,-4.2901,-4.2393,-4.089,-4.004,-3.9554,-3.9392,-3.8671,-3.8185,-3.8185,-3.7332,-3.6701,-3.66,-3.5469,-3.4316,-3.3321,-3.258,-3.1493,-2.988,-2.9678,-2.9367,-2.8823,-2.935,-2.991,-3.0506,-3.0506,-3.0257,-2.9827,-3.0439,-3.0638,-2.2474,-2.2905,-2.3749,-2.5273,-2.5929,-2.7158,0.0,0.0,-3.1768,-3.3364,-3.4564,-3.5407,-3.5728,-3.7766,-3.9317,-3.909,-4.032,-4.1361,-4.1476,-4.0883,-4.0711,-4.1418,-4.0788,-4.0578,-4.1304,-4.2144,-4.331,-4.4895,-4.5774,-4.6978,-4.8716,-4.8823,-4.902,-4.9514,-4.9614,-4.9495,-4.9186,-4.9261,-4.9268,-4.9237,-4.8951,-4.8781,-4.8729,-4.8439,-4.8306,-4.8306,-4.8306,-4.8306,-4.8306,-4.8287,-4.8192,-4.804,-4.804,-4.7864,-4.7425,-4.5874,-4.5236,-4.5164,-4.5164,-4.511,-4.491,-4.4186,-4.3969,-4.3824,-4.3137,-4.2901,-4.2901,-4.2901,-4.2901,-4.2901,-4.2901,-4.2901,-4.2901,-4.2901,-4.2901,-4.2901,-4.2901,-4.2901,-4.2901,-4.2901,-4.2901,-4.2901,-4.2901,-4.2901,-4.2592,-4.1705,-4.1469,-4.1143,-4.0438,-3.9696,-3.9243,-3.9243,-3.8097,-3.7111,-3.6635,-3.5532,-3.4772,-3.4516,-3.2836,-3.1686,-3.1366,-3.0721,-3.034,-3.0257,-3.034,-3.0423,-3.0506,-3.0506,-3.0787,-3.1366,-3.1449,-3.1135,-2.5116,-2.6236,-2.7415,0.0,-2.9195,-3.0536,-3.2739,-3.3412,-3.3884,-3.4854,-3.6104,-3.7063,-3.7171,-3.8421,-3.9606,0.0,-4.0819,-4.1317,-4.1485,-4.1648,-4.1514,-4.0883,-4.0922,-4.1132,-4.1457,-4.2717,-4.4188,-4.587,-4.7245,-4.8544,-4.9729,-4.9805,-4.9801,-4.9798,-4.9803,-4.973,-4.9584,-4.9584,-4.9498,-4.9302,-4.9161,-4.8883,-4.8495,-4.8364,-4.8306,-4.8306,-4.8306,-4.8306,-4.8306,-4.8306,-4.8267,-4.8187,-4.8187,-4.8067,-4.7809,-4.7078,-4.6475,-4.5997,-4.5997,-4.5689,-4.5236,-4.491,-4.4476,-4.4023,-4.3697,-4.3281,-4.2901,-4.2901,-4.2901,-4.2901,-4.2901,-4.2901,-4.2901,-4.2901,-4.2901,-4.2901,-4.2901,-4.2901,-4.2901,-4.2901,-4.2901,-4.2901,-4.2901,-4.2901,-4.2792,-4.2448,-4.1994,-4.1578,-4.1234,-4.051,-3.977,-3.9067,-3.8283,-3.7429,-3.6485,-3.5907,-3.5459,-3.5182,-3.4119,-3.3357,-3.3007,-3.221,-3.1785,-3.1785,-3.1785,-3.1785,-3.1785,-3.1785,-3.1934,-3.2249,-3.268,-3.2729,-2.7027,0.0,0.0,-3.0622,-3.2025,-3.3572,-3.4611,-3.5359,-3.5989,-3.6622,-3.7708,-3.8558,-3.8558,-3.9433,-4.029,-4.0789,-4.1271,-4.1476,-4.1208,-4.1896,-4.1915,-4.0473,-4.1017,-4.1495,-4.1495,-4.3233,-4.4953,-4.6385,-4.8315,-4.9691,-5.0264,-5.0302,-5.02,-4.9942,-4.9942,-4.9942,-4.9942,-4.9844,-4.9627,-4.9299,-4.9209,-4.8866,-4.8306,-4.8306,-4.8306,-4.8306,-4.8306,-4.8306,-4.8306,-4.8306,-4.8286,-4.8226,-4.8226,-4.8108,-4.7925,-4.7925,-4.7461,-4.683,-4.683,-4.645,-4.5924,-4.5707,-4.5236,-4.4675,-4.4222,-4.3679,-4.3172,-4.2955,-4.2901,-4.2901,-4.2901,-4.2901,-4.2901,-4.2901,-4.2901,-4.2901,-4.2901,-4.2901,-4.2901,-4.2901,-4.2901,-4.2901,-4.2901,-4.2901,-4.2901,-4.2901,-4.2393,-4.2012,-4.2012,-4.1325,-4.0293,-3.8846,-3.8435,-3.774,-3.6416,-3.622,-3.598,-3.5537,-3.5148,-3.4761,-3.438,-3.3727,-3.336,-3.336,-3.3315,-3.3292,-3.3292,-3.3292,-3.3292,-3.3332,-3.3839,-3.4087,0.0,0.0,-3.223,-3.3077,-3.4688,-3.6501,-3.816,-3.8718,-3.9108,-3.9977,-4.0187,-4.0234,-4.0234,-4.158,-4.2172,-4.0578,-4.1695,-4.2173,-4.0549,-4.1036,-4.1227,-4.0396,-4.1017,-4.1495,-4.1495,-4.3768,-4.5602,-4.6443,-4.885,-5.0264,-5.0302,-5.0302,-5.0302,-5.029,-5.029,-5.029,-5.029,-4.9968,-4.9627,-4.9302,-4.8984,-4.8641,-4.8306,-4.8306,-4.8306,-4.8306,-4.8306,-4.8306,-4.8306,-4.8306,-4.8306,-4.8287,-4.8287,-4.817,-4.7992,-4.7992,-4.785,-4.7663,-4.7663,-4.7663,-4.7518,-4.6721,-4.645,-4.6142,-4.4566,-4.4077,-4.3896,-4.3137,-4.2901,-4.2901,-4.2901,-4.2901,-4.2901,-4.2901,-4.2901,-4.2901,-4.2901,-4.2901,-4.2901,-4.2901,-4.2901,-4.2901,-4.2901,-4.2901,-4.2901,-4.2901,-4.2883,-4.2846,-4.2846,-4.2158,-4.0888,-3.8918,-3.8683,-3.8038,-3.6437,-3.6301,-3.6084,-3.5537,-3.5475,-3.5412,-3.5258,-3.5108,-3.5038,-3.5038,-3.4904,-3.4833,-3.4833,-3.4833,-3.4833,-3.4833,-3.4849,-3.4866,-2.9944,0.0,-3.505,-3.5998,-3.7157,-3.8356,-3.949,-3.9805,-3.991,-4.0001,-3.9561,-3.9181,-3.9181,-3.9637,-3.9897,-3.9499,-4.0845,-4.1552,-4.0454,-4.245,-4.31,-4.0587,-4.1982,-4.2507,-4.0864,-4.2488,-4.4437,-4.6366,-4.7837,-4.9137,-5.0245,-5.0302,-5.0302,-5.0302,-5.0302,-5.0181,-4.9968,-4.9857,-4.9512,-4.8949,-4.8641,-4.842,-4.8306,-4.8306,-4.8306,-4.8306,-4.8306,-4.8306,-4.8306,-4.8306,-4.8306,-4.8287,-4.8247,-4.8149,-4.7992,-4.7947,-4.7824,-4.7717,-4.7717,-4.7717,-4.7663,-4.7391,-4.6939,-4.6413,-4.5852,-4.5327,-4.4729,-4.3914,-4.3697,-4.357,-4.3046,-4.2901,-4.2901,-4.2901,-4.2901,-4.2901,-4.2901,-4.2901,-4.2901,-4.2901,-4.2901,-4.2901,-4.2901,-4.2901,-4.2901,-4.2901,-4.2901,-4.2901,-4.2901,-4.2647,-4.2029,-4.0816,-3.9961,-3.8954,-3.7618,-3.6766,-3.6088,-3.5594,-3.552,-3.5469,-3.5446,-3.5291,-3.5222,-3.5222,-3.5088,-3.5018,-3.5018,-3.4947,-3.4899,-3.4899,-3.4899,-3.4899,-3.2179,-3.4637,-3.7031,-3.7969,-3.8856,-3.964,-4.0177,-4.0071,-3.9719,-3.9212,-3.845,-3.7746,-3.7442,-3.7632,-3.8004,-3.8458,-3.9966,-4.1094,-4.1189,-4.3558,-4.4494,-4.2335,-4.3739,-4.414,-4.2278,-4.3061,-4.4341,-4.5946,-4.7704,-4.9156,-5.0245,-5.0302,-5.0302,-5.0302,-5.0302,-5.02,-4.9981,-4.9744,-4.9287,-4.8623,-4.8402,-4.8306,-4.8306,-4.8306,-4.8306,-4.8306,-4.8306,-4.8306,-4.8306,-4.8306,-4.8306,-4.8287,-4.8247,-4.8169,-4.807,-4.8026,-4.7904,-4.7759,-4.7717,-4.7717,-4.7717,-4.7717,-4.7355,-4.6884,-4.6595,-4.6142,-4.5562,-4.4747,-4.4313,-4.3969,-4.3463,-4.3137,-4.2901,-4.2901,-4.2901,-4.2901,-4.2901,-4.2901,-4.2901,-4.2901,-4.2901,-4.2901,-4.2901,-4.2901,-4.2901,-4.2901,-4.2901,-4.2901,-4.2901,-4.2901,-4.2592,-4.1795,-4.1013,-4.0005,-3.8614,-3.7533,-3.6676,-3.6073,-3.5723,-3.5543,-3.5543,-3.5429,-3.536,-3.536,-3.5245,-3.5152,-3.5088,-3.5018,-3.4947,-3.4899,-3.4899,-3.4899,-3.4618,-3.6528,-3.8211,-3.8974,-3.9787,-4.0362,-4.0252,-3.961,-3.8776,-3.7825,-3.6967,-3.6099,-3.522,0.0,-3.6729,-3.7464,-3.9183,-4.0969,-4.2584,-4.4322,-4.5403,0.0,0.0,0.0,0.0,0.0,-4.543,-4.543,-4.8372,-5.0206,-5.0302,-5.0302,-5.0302,-5.0302,-5.029,-5.0278,-5.0248,-4.9584,-4.8915,-4.8306,-4.8306,-4.8306,-4.8306,-4.8306,-4.8306,-4.8306,-4.8306,-4.8306,-4.8306,-4.8306,-4.8306,-4.8306,-4.8287,-4.8247,-4.8187,-4.8187,-4.8067,-4.7881,-4.7738,-4.7717,-4.7717,-4.7717,-4.7717,-4.7572,-4.6794,-4.6558,-4.6395,-4.5599,-4.4802,-4.4204,-4.4168,-4.3552,-4.2955,-4.2955,-4.2937,-4.2901,-4.2901,-4.2901,-4.2901,-4.2901,-4.2901,-4.2901,-4.2901,-4.2901,-4.2901,-4.2901,-4.2901,-4.2901,-4.2901,-4.2901,-4.2611,-4.1831,-4.1723,-4.1025,-3.9405,-3.857,-3.776,-3.6864,-3.6079,-3.5633,-3.56,-3.5543,-3.5514,-3.5514,-3.5377,-3.5245,-3.5128,-3.5105,-3.5018,-3.4923,-3.4899,-3.4899,-3.5793,-3.7904,-3.9813,-4.0015,-4.0245,-4.0226,-3.9561,-3.8729,-3.7887,-3.6995,-3.5649,-3.4369,-3.3501,-3.5068,0.0,-3.5916,-3.9393,0.0,-4.2737,-4.5316,0.0,-4.5449,0.0,-4.6901,-4.543,-4.6424,-4.7169,-4.7169,-4.7941,-4.8972,-5.0225,-5.0302,-5.0302,-5.0302,-5.0063,-4.9817,-4.9556,-4.89,-4.8477,-4.8306,-4.8306,-4.8306,-4.8306,-4.8306,-4.8306,-4.8306,-4.8306,-4.8306,-4.8306,-4.8306,-4.8306,-4.8287,-4.8247,-4.8207,-4.8168,-4.8026,-4.7943,-4.7881,-4.7738,-4.7717,-4.7717,-4.7717,-4.7717,-4.7663,-4.7464,-4.7391,-4.7228,-4.6432,-4.6051,-4.5743,-4.5146,-4.4385,-4.3788,-4.3788,-4.3354,-4.2901,-4.2901,-4.2901,-4.2901,-4.2901,-4.2901,-4.2901,-4.2901,-4.2901,-4.2901,-4.2901,-4.2901,-4.2901,-4.2901,-4.2901,-4.2829,-4.2611,-4.2067,-4.1258,-4.0183,-3.9378,-3.8316,-3.6898,-3.6609,-3.6231,-3.5616,-3.5577,-3.5571,-3.5571,-3.5498,-3.5446,-3.54,-3.5198,-3.5065,-3.5041,-3.4947,-3.4899,-3.7395,-3.9005,-4.0447,-4.0449,-4.0189,-3.9586,-3.8303,-3.7051,-3.5702,-3.4071,-3.2688,0.0,-3.0655,-3.2279,0.0,0.0,0.0,0.0,-4.3577,-4.5831,-4.7302,0.0,-4.8315,0.0,-4.7589,-4.8353,-4.8907,-4.8907,-4.8907,-4.9308,-5.0245,-5.0302,-5.0302,-5.0302,-5.012,-4.9803,-4.9299,-4.878,-4.8458,-4.8306,-4.8306,-4.8306,-4.8306,-4.8306,-4.8306,-4.8306,-4.8306,-4.8306,-4.8306,-4.8306,-4.8306,-4.8287,-4.8267,-4.8247,-4.8246,-4.8087,-4.7986,-4.7945,-4.7822,-4.7759,-4.7717,-4.7717,-4.7717,-4.7717,-4.7717,-4.7717,-4.7627,-4.7156,-4.6776,-4.6413,-4.5943,-4.5236,-4.4621,-4.4621,-4.4005,-4.3425,-4.3425,-4.3155,-4.2901,-4.2901,-4.2901,-4.2901,-4.2901,-4.2901,-4.2901,-4.2901,-4.2901,-4.2901,-4.2901,-4.2901,-4.2901,-4.2901,-4.2502,-4.1966,-4.125,-4.0296,-3.9116,-3.7678,-3.708,-3.6609,-3.6146,-3.6129,-3.6129,-3.6129,-3.6078,-3.588,-3.5492,-3.5291,-3.5175,-3.5105,-3.5278,-3.5379,-3.9188,-3.9964,-4.0527,-4.0633,-3.9888,-3.8658,-3.6853,-3.5051,-3.3058,-3.055,0.0,-2.8497,-2.7682,-2.8981,-3.1033,-3.3593,0.0,-3.9508,-4.4723,-4.6061,-4.7455,-4.9996,-5.0302,-5.0302,-5.0302,-5.0302,-5.0302,-5.0302,-5.0302,-5.0302,-5.0302,-5.0248,-5.0181,-5.0088,-5.0107,-4.9803,-4.9158,-4.8883,-4.8586,-4.8306,-4.8306,-4.8306,-4.8306,-4.8306,-4.8306,-4.8306,-4.8306,-4.8306,-4.8306,-4.8306,-4.8306,-4.8306,-4.8306,-4.8306,-4.8287,-4.8189,-4.809,-4.7992,-4.7904,-4.7798,-4.7717,-4.7717,-4.7717,-4.7717,-4.7717,-4.7717,-4.7717,-4.7717,-4.721,-4.6667,-4.6667,-4.6069,-4.5454,-4.5454,-4.4765,-4.4095,-4.4095,-4.3462,-4.2901,-4.2901,-4.2901,-4.2901,-4.2901,-4.2901,-4.2901,-4.2901,-4.2901,-4.2901,-4.2901,-4.2901,-4.2901,-4.2901,-4.2901,-4.2711,-4.2239,-4.1244,-4.0096,-3.8839,-3.7752,-3.7119,-3.6948,-3.6948,-3.6948,-3.6948,-3.6948,-3.6574,-3.5818,-3.5662,-3.5529,-3.5428,-3.5916,-3.6158,-4.0818,-4.0886,-4.0662,-4.1385,-3.9885,-3.7781,-3.6009,-3.375,0.0,0.0,-2.8478,-2.7644,-2.6784,-2.858,-3.1033,-3.3593,0.0,0.0,0.0,0.0,-4.7455,0.0,-5.0302,-5.0302,-5.0302,-5.0302,-5.0302,-5.0302,-5.0302,-5.0302,-5.0302,-5.0038,-4.9632,-4.9083,-4.9067,-4.8866,-4.8477,-4.842,-4.8345,-4.8306,-4.8306,-4.8306,-4.8306,-4.8306,-4.8306,-4.8306,-4.8306,-4.8306,-4.8306,-4.8306,-4.8306,-4.8306,-4.8306,-4.8306,-4.8287,-4.8092,-4.8012,-4.7972,-4.7804,-4.7717,-4.7717,-4.7717,-4.7717,-4.7717,-4.7717,-4.7717,-4.7717,-4.7717,-4.7609,-4.75,-4.75,-4.6902,-4.6287,-4.6287,-4.5164,-4.4095,-4.4095,-4.3462,-4.2901,-4.2901,-4.2901,-4.2901,-4.2901,-4.2901,-4.2901,-4.2901,-4.2901,-4.2901,-4.2901,-4.2901,-4.2901,-4.2901,-4.2901,-4.2711,-4.2239,-4.2011,-4.1205,-3.9611,-3.9319,-3.8744,-3.776,-3.7719,-3.7719,-3.7719,-3.7719,-3.7628,-3.7469,-3.7237,-3.7099,-3.7075,-3.6979,-3.692,-4.0799,-4.077,-4.0593,-4.1027,-3.9546,-3.73,-3.4702,0.0,0.0,0.0,-2.6663,-2.6275,-2.5854,0.0,0.0,0.0,0.0,0.0,0.0,0.0,0.0,0.0,0.0,-5.0302,0.0,-5.0302,-5.0302,-5.0302,-5.0302,-5.0224,-5.0051,-4.9716,-4.9394,-4.9064,-4.8883,-4.8711,-4.855,-4.8383,-4.8306,-4.8306,-4.8306,-4.8306,-4.8306,-4.8306,-4.8306,-4.8306,-4.8306,-4.8306,-4.8306,-4.8306,-4.8306,-4.8306,-4.8306,-4.8306,-4.8287,-4.8072,-4.7992,-4.7972,-4.7762,-4.7717,-4.7717,-4.7717,-4.7717,-4.7717,-4.7717,-4.7717,-4.7717,-4.7717,-4.7717,-4.7717,-4.7717,-4.7428,-4.712,-4.712,-4.5906,-4.4603,-4.4186,-4.3462,-4.2901,-4.2901,-4.2901,-4.2901,-4.2901,-4.2901,-4.2901,-4.2901,-4.2901,-4.2901,-4.2901,-4.2901,-4.2901,-4.2901,-4.2901,-4.2806,-4.2577,-4.2338,-4.159,-4.0167,-3.9841,-3.9335,-3.8505,-3.8464,-3.8464,-3.8464,-3.8464,-3.8278,-3.7905,-3.7696,-3.7575,-3.7484,-3.7686,-3.7742,-4.0577,-4.0587,-4.0535,-4.0727,-3.9104,-3.6654,-3.3582,-3.1271,0.0,0.0,-2.5208,-2.5191,-2.5191,0.0,0.0,0.0,0.0,0.0,0.0,0.0,0.0,0.0,0.0,0.0,-5.0302,-5.0302,-5.0278,-5.02,-5.0051,-4.9903,-4.9702,-4.9378,-4.9161,-4.9097,-4.8832,-4.8693,-4.8693,-4.8421,-4.8306,-4.8306,-4.8306,-4.8306,-4.8306,-4.8306,-4.8306,-4.8306,-4.8306,-4.8306,-4.8306,-4.8306,-4.8306,-4.8306,-4.8306,-4.8306,-4.8287,-4.8072,-4.7992,-4.7972,-4.7762,-4.7717,-4.7717,-4.7717,-4.7717,-4.7717,-4.7717,-4.7717,-4.7717,-4.7717,-4.7717,-4.7717,-4.7717,-4.7717,-4.7663,-4.7482,-4.6486,-4.5291,-4.4313,-4.3588,-4.3118,-4.2937,-4.2901,-4.2901,-4.2901,-4.2901,-4.2901,-4.2901,-4.2901,-4.2901,-4.2901,-4.2901,-4.2901,-4.2901,-4.2901,-4.2901,-4.2901,-4.2557,-4.1889,-4.0853,-4.0358,-3.9893,-3.9404,-3.9299,-3.9225,-3.9225,-3.9225,-3.8937,-3.8379,-3.8216,-3.8077,-3.7995,-3.8403,-3.8531,-4.1138,-4.1053,-4.0689,-4.1489,-3.8673,-3.5217,-3.3255,0.0,0.0,-2.5591,-2.5191,-2.5191,-2.5191,-2.5325,0.0,0.0,0.0,0.0,0.0,0.0,0.0,0.0,0.0,0.0,-5.0302,-5.0302,-5.0169,-4.987,-4.9271,-4.9067,-4.9314,-4.9015,-4.8693,-4.8402,-4.8364,-4.8363,-4.8363,-4.8325,-4.8306,-4.8306,-4.8306,-4.8306,-4.8306,-4.8306,-4.8306,-4.8306,-4.8306,-4.8306,-4.8306,-4.8306,-4.8306,-4.8306,-4.8306,-4.8306,-4.8287,-4.8072,-4.7992,-4.7972,-4.7762,-4.7717,-4.7717,-4.7717,-4.7717,-4.7717,-4.7717,-4.7717,-4.7717,-4.7717,-4.7717,-4.7717,-4.7717,-4.7717,-4.7518,-4.6794,-4.6504,-4.5979,-4.4421,-4.4041,-4.3769,-4.3046,-4.2901,-4.2901,-4.2901,-4.2901,-4.2901,-4.2901,-4.2901,-4.2901,-4.2901,-4.2901,-4.2901,-4.2901,-4.2901,-4.2901,-4.2901,-4.2863,-4.2598,-4.207,-4.159,-4.1126,-4.0651,-4.0226,-3.9994,-3.9994,-3.9994,-3.9977,-3.991,-3.9631,-3.9502,-3.9502,-3.9299,-3.9199,-3.986,-4.0342,-4.0573,-4.0931,-3.8604,-3.5628,-3.3364,0.0,-2.789,-2.5666,-2.5203,-2.5191,-2.5191,-2.5191,-2.5975,0.0,-2.8523,-3.0643,-3.7111,0.0,0.0,0.0,-4.8067,0.0,0.0,-5.0302,-5.0156,-4.983,-4.9177,-4.8849,-4.8982,-4.8676,-4.8439,-4.8306,-4.8306,-4.8306,-4.8306,-4.8306,-4.8306,-4.8306,-4.8306,-4.8306,-4.8306,-4.8306,-4.8306,-4.8306,-4.8306,-4.8306,-4.8306,-4.8306,-4.8306,-4.8306,-4.8306,-4.8286,-4.8208,-4.8052,-4.797,-4.7925,-4.7759,-4.7717,-4.7717,-4.7717,-4.7717,-4.7717,-4.7717,-4.7717,-4.7717,-4.7717,-4.7717,-4.7717,-4.7717,-4.7717,-4.7606,-4.7301,-4.6866,-4.6323,-4.5689,-4.4784,-4.4005,-4.3679,-4.3226,-4.2901,-4.2901,-4.2502,-4.2339,-4.2828,-4.2484,-4.2357,-4.2847,-4.2901,-4.2901,-4.2901,-4.2901,-4.2901,-4.2901,-4.2901,-4.2692,-4.2236,-4.176,-4.1298,-4.0825,-4.0353,-4.0096,-4.0096,-4.0096,-4.0096,-4.0096,-3.9995,-3.9858,-3.9703,-3.9599,-3.9441,-3.8474,-3.9485,-4.015,-4.015,-3.8238,-3.5666,0.0,-3.0516,-2.7986,-2.5685,-2.5203,-2.518,-2.5119,-2.5162,-2.5575,0.0,-2.7236,-2.9363,-3.4647,0.0,0.0,0.0,0.0,-4.7922,-4.9412,-4.9834,-4.9916,-4.9674,-4.9015,-4.8658,-4.8658,-4.8439,-4.8306,-4.8306,-4.8306,-4.8306,-4.8306,-4.8306,-4.8306,-4.8306,-4.8306,-4.8306,-4.8306,-4.8306,-4.8306,-4.8306,-4.8306,-4.8306,-4.8306,-4.8306,-4.8306,-4.8306,-4.8306,-4.8267,-4.8187,-4.805,-4.7968,-4.7881,-4.7738,-4.7717,-4.7717,-4.7717,-4.7717,-4.7717,-4.7717,-4.7717,-4.7717,-4.7717,-4.7717,-4.7717,-4.7717,-4.7717,-4.7717,-4.7717,-4.7283,-4.6794,-4.6558,-4.5417,-4.4385,-4.415,-4.3444,-4.2901,-4.2901,-4.2429,-4.2176,-4.2502,-4.2266,-4.2176,-4.2502,-4.2737,-4.2901,-4.2901,-4.2901,-4.2901,-4.2901,-4.2901,-4.2768,-4.2438,-4.1846,-4.1348,-4.1019,-4.041,-4.0096,-4.0096,-4.0096,-4.0096,-4.0096,-4.0062,-3.9935,-3.9703,-3.9651,-3.9511,-3.7312,-3.8642,-3.9304,-3.9304,-3.7392,-3.4833,0.0,-2.9634,-2.7328,-2.5566,-2.5191,-2.5131,-2.4935,-2.5063,-2.515,-2.4966,-2.787,-3.0758,-3.2508,-3.6844,0.0,0.0,0.0,-4.6635,-4.7708,-4.8724,-4.9299,-4.9317,-4.8676,-4.8306,-4.8306,-4.8306,-4.8306,-4.8306,-4.8306,-4.8306,-4.8306,-4.8306,-4.8306,-4.8306,-4.8306,-4.8306,-4.8306,-4.8306,-4.8306,-4.8306,-4.8306,-4.8306,-4.8306,-4.8306,-4.8306,-4.8306,-4.8306,-4.8267,-4.8187,-4.805,-4.7968,-4.7881,-4.7738,-4.7717,-4.7717,-4.7717,-4.7717,-4.7717,-4.7717,-4.7717,-4.7717,-4.7717,-4.7717,-4.7717,-4.7717,-4.7717,-4.7717,-4.7717,-4.7678,-4.7482,-4.6667,-4.5852,-4.5055,-4.424,-4.3444,-4.2901,-4.2901,-4.2901,-4.2611,-4.1831,-4.2375,-4.2592,-4.1813,-4.2411,-4.2901,-4.2901,-4.2901,-4.2901,-4.2901,-4.2901,-4.2901,-4.2882,-4.2015,-4.1503,-4.1481,-4.0611,-4.0096,-4.0096,-4.0096,-4.0096,-4.0096,-3.9977,-3.9833,-3.9703,-3.9563,-3.9448,-3.3377,-3.4705,-3.5668,-3.5064,-3.3396,-3.1519,-3.0152,-2.8243,-2.6479,-2.5415,-2.5101,-2.498,-2.4915,-2.4942,-2.5721,-2.7964,-2.9832,0.0,0.0,0.0,0.0,-4.3414,-4.6609,-4.8795,-4.9125,-4.9047,-4.8967,-4.8967,-4.855,-4.8306,-4.8306,-4.8306,-4.8306,-4.8306,-4.8306,-4.8306,-4.8306,-4.8306,-4.8306,-4.8306,-4.8306,-4.8306,-4.8306,-4.8306,-4.8306,-4.8306,-4.8306,-4.8306,-4.8306,-4.8306,-4.8306,-4.8306,-4.8306,-4.819,-4.807,-4.8012,-4.7888,-4.7759,-4.7699,-4.7717,-4.7717,-4.7717,-4.7717,-4.7717,-4.7717,-4.7717,-4.7717,-4.7717,-4.7717,-4.7717,-4.7717,-4.7717,-4.7717,-4.7717,-4.7717,-4.7645,-4.7391,-4.6703,-4.5888,-4.5073,-4.4258,-4.3534,-4.2992,-4.2448,-4.2194,-4.2484,-4.2266,-4.2194,-4.2484,-4.2737,-4.2901,-4.2901,-4.2901,-4.2901,-4.2901,-4.2901,-4.2901,-4.2901,-4.2035,-4.1503,-4.1503,-4.0611,-4.0096,-4.0096,-4.0096,-4.0096,-4.0096,-4.0062,-3.9935,-3.9703,-3.9563,-3.9448,0.0,-3.218,-3.3115,-3.2493,-3.1257,-2.9908,-2.8741,-2.7357,-2.6085,-2.5352,-2.5044,-2.4888,-2.4825,-2.4867,-2.5672,-2.8001,-2.9547,0.0,0.0,0.0,0.0,-4.4307,0.0,-4.8935,-4.9127,-4.8945,-4.8799,-4.8799,-4.8495,-4.8306,-4.8306,-4.8306,-4.8306,-4.8306,-4.8306,-4.8306,-4.8306,-4.8306,-4.8306,-4.8306,-4.8306,-4.8306,-4.8306,-4.8306,-4.8306,-4.8306,-4.8306,-4.8306,0.0,-4.8306,-4.8306,-4.8306,-4.8306,-4.817,-4.7992,-4.7992,-4.7868,-4.7717,-4.7717,-4.7717,-4.7717,-4.7717,-4.7717,-4.7717,-4.7717,-4.7717,-4.7717,-4.7717,-4.7717,-4.7717,-4.7717,-4.7717,-4.7717,-4.7717,-4.7717,-4.7717,-4.7717,-4.7083,-4.6359,-4.5852,-4.4856,-4.3932,-4.3445,-4.2683,-4.223,-4.2411,-4.2285,-4.223,-4.2411,-4.2701,-4.2901,-4.2901,-4.2901,-4.2901,-4.2901,-4.2901,-4.2901,-4.2901,-4.2035,-4.1503,-4.1503,-4.0611,-4.0096,-4.0096,-4.0096,-4.0096,-4.0096,-4.0062,-3.991,-3.9703,-3.9563,-3.9448,0.0,-3.0662,-3.1258,-3.1012,-3.0378,-2.9383,-2.7776,-2.677,0.0,-2.5315,-2.5032,-2.4877,-2.4847,-2.4914,-2.53,-2.6242,-2.8066,0.0,0.0,-3.7413,0.0,0.0,-4.6838,-4.7607,-4.8138,-4.8539,-4.8764,-4.8764,-4.8477,-4.8306,-4.8306,-4.8306,-4.8306,-4.8306,-4.8306,-4.8306,-4.8306,-4.8306,-4.8306,-4.8306,-4.8306,-4.8306,-4.8306,-4.8306,-4.8306,-4.8306,-4.8306,-4.8306,-4.8306,-4.8306,-4.8306,-4.8306,-4.8287,-4.817,-4.7992,-4.7992,-4.7868,-4.7717,-4.7717,-4.7717,-4.7717,-4.7717,-4.7717,-4.7717,-4.7717,-4.7717,-4.7717,-4.7717,-4.7717,-4.7717,-4.7717,-4.7717,-4.7717,-4.7717,-4.7717,-4.7717,-4.7717,-4.712,-4.6576,-4.6504,-4.5291,-4.424,-4.4186,-4.3516,-4.2719,-4.1976,-4.2466,-4.2629,-4.1868,-4.2448,-4.2901,-4.2901,-4.2901,-4.2901,-4.2901,-4.2901,-4.2901,-4.2901,-4.2056,-4.1525,-4.1503,-4.0635,-4.0121,-4.0096,-4.0096,-4.0096,-4.0096,-3.9961,-3.9833,-3.9703,-3.9563,-3.9448,-2.6008,0.0,-2.7465,-2.6765,-2.6239,-2.5869,0.0,-2.5319,-2.5052,0.0,0.0,-2.5064,-2.6106,-2.5945,-2.691,-3.0704,0.0,-3.4807,-3.7947,0.0,0.0,-4.8445,-4.8611,-4.8595,-4.8986,-4.8634,-4.842,-4.842,-4.8326,-4.8306,-4.8306,-4.8306,-4.8306,-4.8306,-4.8306,-4.8306,-4.8306,-4.8306,-4.8306,-4.8306,-4.8306,-4.8306,-4.8306,-4.8306,-4.8306,-4.8306,-4.8306,-4.8306,-4.8306,-4.8306,-4.8306,-4.8287,-4.8228,-4.813,-4.7992,-4.7927,-4.7822,-4.7717,-4.7717,-4.7717,-4.7717,-4.7717,-4.7717,-4.7717,-4.7717,-4.7717,-4.7717,-4.7717,-4.7717,-4.7717,-4.7717,-4.7717,-4.7717,-4.7717,-4.7717,-4.7717,-4.7717,-4.7554,-4.7246,-4.6631,-4.6196,-4.5743,-4.5128,-4.4349,-4.3751,-4.3552,-4.3154,-4.2828,-4.2629,-4.2774,-4.2901,-4.2901,-4.2901,-4.2901,-4.2901,-4.2901,-4.2901,-4.2901,-4.2358,-4.1867,-4.1503,-4.0949,-4.0476,-4.0113,-4.0096,-4.0096,-4.0096,-4.0087,-3.9935,-3.9703,-3.9677,-3.9537,-2.4961,-2.5641,-2.6135,-2.5593,-2.5307,-2.5201,-2.5333,0.0,0.0,0.0,0.0,-2.4888,-2.5587,-2.6031,0.0,0.0,-3.3061,0.0,0.0,0.0,-4.6571,-4.9051,-4.9161,-4.8965,-4.8847,-4.8513,-4.8306,-4.8306,-4.8306,-4.8306,-4.8306,-4.8306,-4.8306,-4.8306,-4.8306,-4.8306,-4.8306,-4.8306,-4.8306,-4.8306,-4.8306,-4.8306,-4.8306,-4.8306,-4.8306,-4.8306,-4.8306,-4.8306,-4.8306,-4.8306,-4.8306,-4.8287,-4.8267,-4.8189,-4.809,-4.8046,-4.7925,-4.778,-4.778,-4.7759,-4.7717,-4.7717,-4.7717,-4.7717,-4.7717,-4.7717,-4.7717,-4.7717,-4.7717,-4.7717,-4.7717,-4.7717,-4.7717,-4.7717,-4.7717,-4.7717,-4.7717,-4.7717,-4.7551,-4.7138,-4.6757,-4.6359,-4.5924,-4.5182,-4.453,-4.415,-4.3715,-4.3336,-4.2955,-4.2901,-4.2901,-4.2901,-4.2901,-4.2901,-4.2901,-4.2901,-4.2901,-4.2901,-4.2458,-4.2095,-4.1825,-4.1162,-4.058,-4.0096,-4.0096,-4.0096,-4.0096,-4.0096,-3.9944,-3.9703,-3.9703,-3.9547,-2.51,-2.573,-2.6152,-2.5786,-2.5833,-2.594,-2.5823,0.0,0.0,0.0,0.0,0.0,0.0,-2.6377,0.0,0.0,0.0,0.0,-4.2408,-4.479,-4.6629,-4.8573,-4.8999,-4.8932,-4.8439,-4.8344,-4.8306,-4.8306,-4.8306,-4.8306,-4.8306,-4.8306,-4.8306,-4.8306,-4.8306,-4.8306,-4.8306,-4.8306,-4.8306,-4.8306,-4.8306,-4.8306,-4.8306,-4.8306,-4.8306,-4.8306,-4.8306,-4.8306,-4.8306,-4.8306,-4.8306,-4.8306,-4.8287,-4.8247,-4.8187,-4.8166,-4.8046,-4.7899,-4.7881,-4.7798,-4.7717,-4.7717,-4.7717,-4.7717,-4.7717,-4.7717,-4.7717,-4.7717,-4.7717,-4.7717,-4.7717,-4.7717,-4.7717,-4.7717,-4.7717,-4.7717,-4.7717,-4.7717,-4.7717,-4.7717,-4.7156,-4.6685,-4.6685,-4.6015,-4.5254,-4.4566,-4.4349,-4.4023,-4.3335,-4.3281,-4.3227,-4.31,-4.3063,-4.3027,-4.2919,-4.2901,-4.2901,-4.2901,-4.2536,-4.2239,-4.2095,-4.1253,-4.058,-4.0096,-4.0096,-4.0096,-4.0096,-4.0096,-3.9986,-3.9729,-3.9703,-3.959,-2.5367,-2.6351,-2.6597,-2.5166,-2.5818,-2.6616,-2.5873,0.0,0.0,0.0,0.0,0.0,0.0,-2.9373,-3.0977,0.0,0.0,-4.1051,-4.3429,-4.5572,-4.7369,-4.8651,-4.8586,-4.8513,-4.8712,-4.8458,-4.8306,-4.8306,-4.8306,-4.8306,-4.8306,-4.8306,-4.8306,-4.8306,-4.8306,-4.8306,-4.8306,-4.8306,-4.8306,-4.8306,-4.8306,-4.8306,-4.8306,-4.8306,-4.8306,-4.8306,-4.8306,-4.8306,-4.8306,-4.8306,-4.8306,-4.8287,-4.8246,-4.8207,-4.8168,-4.8024,-4.7922,-4.7881,-4.7759,-4.7717,-4.7717,-4.7717,-4.7717,-4.7717,-4.7717,-4.7717,-4.7717,-4.7717,-4.7717,-4.7717,-4.7717,-4.7717,-4.7717,-4.7717,-4.7717,-4.7717,-4.7717,-4.7717,-4.7717,-4.7717,-4.7609,-4.7518,-4.7518,-4.6866,-4.6269,-4.616,-4.5544,-4.5073,-4.4947,-4.4928,-4.4675,-4.3987,-4.3914,-4.3625,-4.2973,-4.2901,-4.2901,-4.2901,-4.2844,-4.2438,-4.1635,-4.1088,-4.058,-4.0096,-4.0096,-4.0096,-4.0096,-4.0096,-4.0037,-3.9875,-3.9755,-3.9616,-2.4345,-2.5376,-2.6051,-2.528,-2.6702,-2.8164,-2.7653,0.0,0.0,0.0,0.0,0.0,0.0,0.0,-3.3821,-3.7909,0.0,-4.2468,-4.523,-4.6261,-4.7183,-4.8403,-4.855,-4.8569,-4.8532,-4.8383,-4.8306,-4.8306,-4.8306,-4.8306,-4.8306,-4.8306,-4.8306,-4.8306,-4.8306,-4.8306,-4.8306,-4.8306,-4.8306,-4.8306,-4.8306,-4.8306,-4.8306,-4.8306,-4.8306,-4.8306,-4.8306,-4.8306,-4.8306,-4.8306,-4.8306,-4.8287,-4.8267,-4.8247,-4.8228,-4.8028,-4.7947,-4.7927,-4.7762,-4.7717,-4.7717,-4.7717,-4.7717,-4.7717,-4.7717,-4.7717,-4.7717,-4.7717,-4.7717,-4.7717,-4.7717,-4.7717,-4.7717,-4.7717,-4.7717,-4.7717,-4.7717,-4.7717,-4.7717,-4.7717,-4.7717,-4.7717,-4.7717,-4.7391,-4.7011,-4.6576,-4.6196,-4.5798,-4.5363,-4.5291,-4.5164,-4.4784,-4.4349,-4.3951,-4.357,-4.3155,-4.2901,-4.2901,-4.2901,-4.2478,-4.1547,-4.1281,-4.0832,-4.0121,-4.0096,-4.0096,-4.0096,-4.0096,-4.0037,-3.9901,-3.9755,-3.9642,-2.3782,-2.4582,-2.5403,-2.5918,-2.7471,-2.8924,-2.927,-2.9466,0.0,0.0,0.0,0.0,0.0,-3.3116,0.0,-4.1317,-4.2226,-4.3386,-4.6397,-4.6834,-4.7218,-4.8179,-4.8532,-4.8568,-4.8325,-4.8306,-4.8306,-4.8306,-4.8306,-4.8306,-4.8306,-4.8306,-4.8306,-4.8306,-4.8306,-4.8306,-4.8306,-4.8306,-4.8306,-4.8306,-4.8306,-4.8306,-4.8306,-4.8306,-4.8306,-4.8306,-4.8306,-4.8306,-4.8306,-4.8306,-4.8306,-4.8306,-4.8306,-4.8267,-4.8209,-4.8052,-4.7972,-4.7909,-4.7762,-4.7717,-4.7717,-4.7717,-4.7717,-4.7717,-4.7717,-4.7717,-4.7717,-4.7717,-4.7717,-4.7717,-4.7717,-4.7717,-4.7717,-4.7717,-4.7717,-4.7717,-4.7717,-4.7717,-4.7717,-4.7717,-4.7717,-4.7717,-4.7717,-4.7717,-4.75,-4.6884,-4.6794,-4.6558,-4.5943,-4.5852,-4.5798,-4.5599,-4.5037,-4.4512,-4.4132,-4.3372,-4.2901,-4.2901,-4.2806,-4.236,-4.1525,-4.1393,-4.0932,-4.0138,-4.0096,-4.0096,-4.0096,-4.0096,-4.0062,-3.9935,-3.9781,-3.9625,-2.4828,-2.5011,-2.5075,-2.7192,-2.7461,0.0,-2.9674,-3.0275,0.0,-3.3348,0.0,0.0,0.0,-3.5943,-3.8479,-4.1141,-4.3388,-4.5107,-4.5883,-4.7242,-4.8197,-4.8288,-4.8325,-4.8325,-4.8306,-4.8306,-4.8306,-4.8306,-4.8306,-4.8306,-4.8306,-4.8306,-4.8306,-4.8306,-4.8306,-4.8306,-4.8306,-4.8306,-4.8306,-4.8306,-4.8306,-4.8306,-4.8306,-4.8306,-4.8306,-4.8306,-4.8306,-4.8306,-4.8306,-4.8306,-4.8306,-4.8306,-4.8306,-4.819,-4.8012,-4.8012,-4.7888,-4.772,-4.7717,-4.7717,-4.7717,-4.7717,-4.7717,-4.7717,-4.7717,-4.7717,-4.7717,-4.7717,-4.7717,-4.7717,-4.7717,-4.7717,-4.7717,-4.7717,-4.7717,-4.7717,-4.7717,-4.7717,-4.7717,-4.7717,-4.7717,-4.7717,-4.7717,-4.7717,-4.7681,-4.7606,-4.7627,-4.7588,-4.7536,-4.7536,-4.7246,-4.6504,-4.6359,-4.5725,-4.4222,-4.3372,-4.2901,-4.2901,-4.2478,-4.2015,-4.1525,-4.1088,-4.0611,-4.0096,-4.0096,-4.0096,-4.0096,-4.0096,-4.0113,-4.0087,-3.9833,-3.9703,-2.3717,-2.494,-2.613,-2.7546,-2.8452,0.0,0.0,-3.2599,-3.457,-3.616,-3.6689,0.0,0.0,0.0,-4.068,-4.3096,-4.4257,-4.5457,-4.715,-4.7921,-4.8306,-4.8306,-4.8306,-4.8306,-4.8306,-4.8306,-4.8306,-4.8306,-4.8306,-4.8306,-4.8306,-4.8306,-4.8306,-4.8306,-4.8306,-4.8306,-4.8306,-4.8306,-4.8306,-4.8306,-4.8306,-4.8306,-4.8306,-4.8306,-4.8306,-4.8306,-4.8306,-4.8306,-4.8306,-4.8306,-4.8306,-4.8306,-4.8306,-4.8248,-4.819,-4.813,-4.803,-4.7888,-4.7842,-4.7759,-4.7717,-4.7717,-4.7717,-4.7717,-4.7717,-4.7717,-4.7717,-4.7717,-4.7717,-4.7717,-4.7717,-4.7717,-4.7717,-4.7717,-4.7717,-4.7717,-4.7717,-4.7717,-4.7717,-4.7717,-4.7717,-4.7717,-4.7717,-4.7717,-4.7717,-4.7717,-4.7717,-4.7717,-4.7717,-4.7717,-4.7591,-4.7283,-4.6812,-4.6051,-4.4928,-4.4095,-4.3528,-4.3232,-4.2586,-4.1973,-4.1525,-4.1065,-4.058,-4.0096,-4.0096,-4.0096,-4.0096,-4.0096,-4.0096,-4.0096,-3.9816,-3.9703,-2.2997,-2.4487,-2.6182,-2.7518,0.0,0.0,-3.259,-3.4486,-3.644,-3.8275,-3.896,-3.9436,-4.0155,0.0,-4.1884,-4.4306,-4.4911,-4.5828,-4.8012,-4.8306,-4.8306,-4.8306,-4.8306,-4.8306,-4.8306,-4.8306,-4.8306,-4.8306,-4.8306,-4.8306,-4.8306,-4.8306,-4.8306,-4.8306,-4.8306,-4.8306,-4.8306,-4.8306,-4.8306,-4.8306,-4.8306,-4.8306,-4.8306,-4.8306,-4.8306,-4.8306,-4.8306,-4.8306,-4.8306,-4.8306,-4.8306,-4.8306,-4.8306,-4.8287,-4.8267,-4.8226,-4.8108,-4.7968,-4.7922,-4.7819,-4.7717,-4.7717,-4.7717,-4.7717,-4.7717,-4.7717,-4.7717,-4.7717,-4.7717,-4.7717,-4.7717,-4.7717,-4.7717,-4.7717,-4.7717,-4.7717,-4.7717,-4.7717,-4.7717,-4.7717,-4.7717,-4.7717,-4.7717,-4.7717,-4.7717,-4.7717,-4.7717,-4.7717,-4.7717,-4.7717,-4.7717,-4.7717,-4.6993,-4.6287,-4.5725,-4.4791,-4.3994,-4.3432,-4.2583,-4.1855,-4.1298,-4.0832,-4.041,-4.0113,-4.0096,-4.0096,-4.0096,-4.0096,-4.0096,-4.0096,-3.9816,-3.9703,-2.3095,-2.3667,-2.4814,0.0,0.0,0.0,-3.5569,-3.5716,-3.6131,-3.962,-4.0327,-4.0485,-4.1013,-4.1113,-4.1902,-4.4306,-4.5388,-4.6452,-4.8086,-4.8306,-4.8306,-4.8306,-4.8306,-4.8306,-4.8306,-4.8306,-4.8306,-4.8306,-4.8306,-4.8306,-4.8306,-4.8306,-4.8306,-4.8306,-4.8306,-4.8306,-4.8306,-4.8306,-4.8306,-4.8306,-4.8306,-4.8306,-4.8306,-4.8306,-4.8306,-4.8306,-4.8306,-4.8306,-4.8306,-4.8306,-4.8306,-4.8306,-4.8306,-4.8267,-4.8187,-4.8187,-4.8067,-4.7902,-4.7902,-4.7801,-4.7717,-4.7717,-4.7717,-4.7717,-4.7717,-4.7717,-4.7717,-4.7717,-4.7717,-4.7717,-4.7717,-4.7717,-4.7717,-4.7717,-4.7717,-4.7717,-4.7717,-4.7717,-4.7717,-4.7717,-4.7717,-4.7717,-4.7717,-4.7717,-4.7717,-4.7717,-4.7717,-4.7717,-4.7717,-4.7717,-4.7717,-4.7717,-4.6993,-4.6522,-4.6483,-4.5272,-4.4193,-4.3447,-4.2469,-4.1578,-4.0836,-4.0353,-4.0096,-4.0096,-4.0096,-4.0096,-4.0096,-4.0096,-4.0096,-4.0096,-3.9816,-3.9703,-2.4616,-2.615,0.0,-2.9861,0.0,0.0,0.0,-3.8248,0.0,0.0,-4.2739,-4.2709,-4.2059,-4.2415,-4.3204,-4.4507,-4.5388,-4.6452,-4.8086,-4.8306,-4.8306,-4.8306,-4.8306,-4.8306,-4.8306,-4.8306,-4.8306,-4.8306,-4.8306,-4.8306,-4.8306,-4.8306,-4.8306,-4.8306,-4.8306,-4.8306,-4.8306,-4.8306,-4.8306,-4.8306,-4.8306,-4.8306,-4.8306,-4.8306,-4.8306,-4.8306,-4.8306,-4.8306,-4.8306,-4.8306,-4.8306,-4.8306,-4.8306,-4.8287,-4.8267,-4.8267,-4.8189,-4.8107,-4.799,-4.7907,-4.784,-4.7738,-4.7717,-4.7717,-4.7717,-4.7717,-4.7717,-4.7717,-4.7717,-4.7717,-4.7717,-4.7717,-4.7717,-4.7717,-4.7717,-4.7717,-4.7717,-4.7717,-4.7717,-4.7717,-4.7717,-4.7717,-4.7717,-4.7717,-4.7717,-4.7717,-4.7717,-4.7717,-4.7717,-4.7717,-4.7717,-4.7717,-4.75,-4.719,-4.6811,-4.5904,-4.4936,-4.4021,-4.3158,-4.2122,-4.0853,-4.0353,-4.0096,-4.0096,-4.0096,-4.0096,-4.0096,-4.0096,-4.0096,-4.0096,-3.9816,-3.9703,-2.5618,-2.7673,0.0,-3.1861,-3.4959,-3.797,-3.9735,0.0,0.0,0.0,-4.3408,-4.3197,-4.2851,-4.291,-4.3387,-4.4525,-4.5112,-4.5993,-4.759,-4.781,-4.7938,-4.8269,-4.8306,-4.8306,-4.8306,-4.8306,-4.8306,-4.8306,-4.8306,-4.8306,-4.8306,-4.8306,-4.8306,-4.8306,-4.8306,-4.8306,-4.8306,-4.8306,-4.8306,-4.8306,-4.8306,-4.8306,-4.8306,-4.8306,-4.8306,-4.8306,-4.8306,-4.8306,-4.8306,-4.8306,-4.8306,-4.8306,-4.8306,-4.8306,-4.8306,-4.8306,-4.8267,-4.8187,-4.805,-4.7968,-4.7881,-4.7738,-4.7717,-4.7717,-4.7717,-4.7717,-4.7717,-4.7717,-4.7717,-4.7717,-4.7717,-4.7717,-4.7717,-4.7717,-4.7717,-4.7717,-4.7717,-4.7717,-4.7717,-4.7717,-4.7717,-4.7717,-4.7717,-4.7717,-4.7717,-4.7717,-4.7717,-4.7717,-4.7717,-4.7717,-4.7717,-4.7717,-4.7717,-4.749,-4.6954,-4.6262,-4.5369,-4.4267,-4.3537,-4.2501,-4.1021,-4.0688,-4.0417,-4.0113,-4.0096,-4.0096,-4.0096,-4.0096,-4.0096,-4.0096,-3.9816,-3.9703,-2.626,0.0,0.0,-3.3311,-3.5881,0.0,-4.1717,-4.2415,-4.2616,-4.3349,0.0,-4.2635,-4.3369,-4.2892,-4.291,-4.4434,-4.4691,-4.5241,-4.6764,-4.6984,-4.7259,-4.7994,-4.8086,-4.8086,-4.8086,-4.8159,-4.8196,-4.8196,-4.8269,-4.8306,-4.8306,-4.8306,-4.8306,-4.8306,-4.8306,-4.8306,-4.8306,-4.8306,-4.8306,-4.8306,-4.8306,-4.8306,-4.8306,-4.8306,-4.8306,-4.8306,-4.8306,-4.8306,-4.8306,-4.8306,-4.8306,-4.8306,-4.8306,-4.8306,-4.8306,-4.8306,-4.8267,-4.8187,-4.805,-4.7968,-4.7881,-4.7759,-4.7717,-4.7717,-4.7717,-4.7717,-4.7717,-4.7717,-4.7717,-4.7717,-4.7717,-4.7717,-4.7717,-4.7717,-4.7717,-4.7717,-4.7717,-4.7717,-4.7717,-4.7717,-4.7717,-4.7717,-4.7717,-4.7717,-4.7717,-4.7717,-4.7717,-4.7717,-4.7717,-4.7717,-4.7717,-4.7717,-4.7657,-4.7407,-4.6886,-4.6334,-4.5521,-4.4303,-4.3776,-4.2895,-4.1457,-4.1271,-4.0849,-4.0113,-4.0096,-4.0096,-4.0096,-4.0096,-4.0096,-4.0096,-3.9816,-3.9703,0.0,-2.9304,0.0,0.0,-3.7554,-4.0836,-4.28,-4.3239,-4.3277,-4.346,-4.3368,-4.3277,-4.3478,-4.3368,-4.3552,-4.4526,-4.4691,-4.5057,-4.603,-4.6159,-4.6214,-4.6397,-4.6416,-4.6416,-4.6416,-4.7003,-4.7351,-4.7351,-4.7938,-4.8306,-4.8306,-4.8306,-4.8306,-4.8306,-4.8306,-4.8306,-4.8306,-4.8306,-4.8306,-4.8306,-4.8306,-4.8306,-4.8306,-4.8306,-4.8306,-4.8306,-4.8306,-4.8306,-4.8306,-4.8306,-4.8306,-4.8306,-4.8306,-4.8306,-4.8306,-4.8306,-4.8287,-4.8248,-4.8072,-4.7992,-4.7949,-4.7762,-4.7717,-4.7717,-4.7717,-4.7717,-4.7717,-4.7717,-4.7717,-4.7717,-4.7717,-4.7717,-4.7717,-4.7717,-4.7717,-4.7717,-4.7717,-4.7717,-4.7717,-4.7717,-4.7717,-4.7717,-4.7717,-4.7717,-4.7717,-4.7717,-4.7717,-4.7717,-4.7717,-4.7717,-4.7717,-4.7717,-4.7323,-4.6845,-4.6334,-4.5775,-4.5216,-4.4565,-4.44,-4.391,-4.298,-4.183,-4.0849,-4.0113,-4.0096,-4.0096,-4.0096,-4.0096,-4.0096,-4.0096,-3.9816,-3.9703,0.0,0.0,0.0,0.0,0.0,-4.1517,-4.313,-4.3515,-4.3515,-4.3515,-4.3515,-4.3515,-4.3515,-4.3515,-4.3626,-4.4066,-4.4121,-4.4415,-4.5223,-4.5333,-4.548,-4.5847,-4.5902,-4.5902,-4.5902,-4.6287,-4.6544,-4.6544,-4.6911,-4.715,-4.715,-4.715,-4.715,-4.715,-4.715,-4.7352,-4.7718,-4.7718,-4.7921,-4.8306,-4.8306,-4.8306,-4.8306,-4.8306,-4.8306,-4.8306,-4.8306,-4.8306,-4.8306,-4.8306,-4.8306,-4.8306,-4.8306,-4.8306,-4.8306,-4.8306,-4.8306,-4.8267,-4.8072,-4.7992,-4.7972,-4.7762,-4.7717,-4.7717,-4.7717,-4.7717,-4.7717,-4.7717,-4.7717,-4.7717,-4.7717,-4.7717,-4.7717,-4.7717,-4.7717,-4.7717,-4.7717,-4.7717,-4.7717,-4.7717,-4.7717,-4.7717,-4.7717,-4.7717,-4.7717,-4.7717,-4.7717,-4.7717,-4.7717,-4.749,-4.7407,-4.7678,-4.6976,-4.6406,-4.6123,-4.5614,-4.5098,-4.4626,-4.4615,-4.4231,-4.3426,-4.2675,-4.1745,-4.0646,-4.0629,-4.0468,-4.0096,-4.0096,-4.0096,-4.0096,-3.9816,-3.9703,0.0,0.0,0.0,0.0,0.0,0.0,-4.2947,-4.3387,-4.3515,-4.3515,-4.3515,-4.3515,-4.3515,-4.3515,-4.3515,-4.3515,-4.3515,-4.3718,-4.4397,-4.4488,-4.4745,-4.5406,-4.548,-4.548,-4.548,-4.5608,-4.5681,-4.5681,-4.581,-4.5902,-4.5902,-4.5902,-4.5902,-4.5902,-4.5902,-4.6214,-4.6892,-4.6892,-4.7223,-4.7884,-4.7884,-4.7957,-4.8104,-4.8104,-4.8177,-4.8306,-4.8306,-4.8306,-4.8306,-4.8306,-4.8306,-4.8306,-4.8306,-4.8306,-4.8306,-4.8306,-4.8306,-4.8267,-4.8072,-4.7992,-4.7972,-4.7762,-4.7717,-4.7717,-4.7717,-4.7717,-4.7717,-4.7717,-4.7717,-4.7717,-4.7717,-4.7717,-4.7717,-4.7717,-4.7717,-4.7717,-4.7717,-4.7717,-4.7717,-4.7717,-4.7717,-4.7717,-4.7717,-4.7717,-4.7717,-4.7717,-4.7717,-4.7675,-4.7575,-4.7173,-4.7022,-4.7385,-4.6566,-4.595,-4.595,-4.5485,-4.5008,-4.4626,-4.4615,-4.4282,-4.3639,-4.3623,-4.2912,-4.1424,-4.1271,-4.0832,-4.0096,-4.0096,-4.0096,-4.0096,-3.9816,-3.9703,0.0,0.0,0.0,0.0,0.0,-4.1334,0.0,0.0,-4.3515,-4.3515,-4.3515,-4.3515,-4.3515,-4.3515,-4.3515,-4.3515,-4.3515,-4.3551,-4.3662,-4.3644,-4.3699,-4.3809,-4.3827,-4.3827,-4.3827,-4.4452,-4.4874,-4.4874,-4.5516,-4.5902,-4.5902,-4.5902,-4.5902,-4.5902,-4.5902,-4.5957,-4.6067,-4.6067,-4.6104,-4.6214,-4.6214,-4.6599,-4.7259,-4.7259,-4.7626,-4.8306,-4.8306,-4.8306,-4.8306,-4.8306,-4.8306,-4.8306,-4.8306,-4.8306,-4.8306,-4.8306,-4.8306,-4.8267,-4.8072,-4.7992,-4.7972,-4.7762,-4.7717,-4.7717,-4.7717,-4.7717,-4.7717,-4.7717,-4.7717,-4.7717,-4.7717,-4.7717,-4.7717,-4.7717,-4.7717,-4.7717,-4.7717,-4.7717,-4.7717,-4.7717,-4.7717,-4.7717,-4.7717,-4.7717,-4.7717,-4.7717,-4.7717,-4.7533,-4.7062,-4.6931,-4.6753,-4.6358,-4.5775,-4.5407,-4.5407,-4.4971,-4.4682,-4.4598,-4.4615,-4.4564,-4.4445,-4.4445,-4.3707,-4.2168,-4.1525,-4.0832,-4.0096,-4.0096,-4.0096,-4.0096,-3.9816,-3.9703,-2.5923,0.0,0.0,0.0,0.0,-4.0068,-4.135,0.0,-4.2818,-4.2818,-4.3185,-4.3515,-4.3515,-4.3515,-4.3515,-4.3515,-4.3515,-4.3515,-4.3515,-4.3515,-4.3515,-4.3515,-4.3515,-4.3515,-4.3515,-4.3809,-4.403,-4.403,-4.436,-4.4562,-4.4562,-4.4562,-4.4562,-4.4562,-4.4562,-4.4764,-4.5223,-4.5241,-4.5461,-4.5902,-4.5902,-4.6085,-4.6452,-4.6892,-4.7535,-4.8306,-4.8306,-4.8306,-4.8306,-4.8306,-4.8306,-4.8306,-4.8306,-4.8306,-4.8306,-4.8306,-4.8306,-4.8267,-4.8072,-4.7992,-4.7972,-4.7762,-4.7717,-4.7717,-4.7717,-4.7717,-4.7717,-4.7717,-4.7717,-4.7717,-4.7717,-4.7717,-4.7717,-4.7717,-4.7717,-4.7717,-4.7717,-4.7717,-4.7717,-4.7717,-4.7717,-4.7717,-4.7717,-4.7717,-4.7717,-4.7717,-4.7428,-4.7169,-4.6931,-4.6382,-4.6024,-4.6098,-4.5372,-4.5008,-4.5276,-4.4879,-4.4615,-4.4615,-4.4615,-4.4615,-4.4615,-4.4615,-4.3887,-4.232,-4.1982,-4.1238,-4.0096,-4.0096,-4.0096,-4.0113,-3.991,-3.9781,0.0,0.0,0.0,0.0,0.0,0.0,0.0,0.0,-4.1754,-4.1956,-4.2635,-4.3185,-4.3185,-4.3368,-4.3515,-4.3515,-4.3515,-4.3515,-4.3515,-4.3515,-4.3515,-4.3515,-4.3515,-4.3515,-4.3515,-4.3515,-4.3515,-4.3515,-4.3515,-4.3515,-4.3515,-4.3515,-4.3515,-4.3515,-4.3515,-4.3791,-4.4397,-4.4397,-4.4709,-4.5278,-4.5278,-4.5406,-4.5626,-4.6214,-4.6929,-4.7719,-4.8122,-4.8306,-4.8306,-4.8306,-4.8306,-4.8306,-4.8306,-4.8306,-4.8306,-4.8306,-4.8306,-4.8267,-4.8072,-4.7992,-4.7972,-4.7762,-4.7717,-4.7717,-4.7717,-4.7717,-4.7717,-4.7717,-4.7717,-4.7717,-4.7717,-4.7717,-4.7717,-4.7717,-4.7717,-4.7717,-4.7717,-4.7717,-4.7717,-4.7717,-4.7717,-4.7717,-4.7717,-4.7717,-4.7717,-4.7717,-4.7236,-4.6863,-4.6707,-4.5875,-4.5407,-4.5708,-4.5042,-4.4748,-4.5098,-4.4814,-4.4615,-4.4615,-4.4615,-4.4615,-4.4615,-4.4615,-4.3944,-4.2608,-4.2388,-4.1585,-4.0096,-4.0096,-4.0096,-4.0113,-3.9961,-3.9824,0.0,0.0,0.0,0.0,0.0,0.0,0.0,0.0,-4.023,-4.1003,-4.1809,-4.2359,-4.2359,-4.2983,-4.3515,-4.3515,-4.3515,-4.3515,-4.3515,-4.3515,-4.3515,-4.3515,-4.3515,-4.3515,-4.3515,-4.3515,-4.3515,-4.3515,-4.3515,-4.3515,-4.3515,-4.3515,-4.3515,-4.3515,-4.3515,-4.3533,-4.3552,-4.3552,-4.3588,-4.3608,-4.3608,-4.4011,-4.4746,-4.4801,-4.5259,-4.6104,-4.7645,-4.8306,-4.8306,-4.8306,-4.8306,-4.8306,-4.8306,-4.8306,-4.8306,-4.8306,-4.8306,-4.8267,-4.8072,-4.7992,-4.7972,-4.7762,-4.7717,-4.7717,-4.7717,-4.7717,-4.7717,-4.7717,-4.7717,-4.7717,-4.7717,-4.7717,-4.7717,-4.7717,-4.7717,-4.7717,-4.7717,-4.7717,-4.7717,-4.7717,-4.7717,-4.7717,-4.7717,-4.7717,-4.7717,-4.7717,-4.7236,-4.6707,-4.6213,-4.5648,-4.5152,-4.472,-4.4626,-4.4598,-4.4626,-4.4598,-4.4615,-4.4615,-4.4615,-4.4615,-4.4615,-4.4615,-4.4198,-4.3341,-4.2658,-4.1585,-4.0096,-4.0096,-4.0096,-4.0113,-3.9961,-3.9824,0.0,0.0,0.0,0.0,-3.15,-3.3054,-3.4454,-3.6633,-3.8447,-3.8726,-4.0249,-4.1534,-4.1534,-4.2598,-4.3515,-4.3515,-4.3515,-4.3515,-4.3515,-4.3515,-4.3515,-4.3515,-4.3515,-4.3515,-4.3515,-4.3515,-4.3515,-4.3515,-4.3515,-4.3515,-4.3515,-4.3515,-4.3515,-4.3515,-4.3515,-4.3515,-4.3515,-4.3515,-4.3515,-4.3515,-4.3515,-4.3662,-4.3956,-4.447,-4.4874,-4.5186,-4.6287,-4.7058,-4.7516,-4.7516,-4.7828,-4.8306,-4.8306,-4.8306,-4.8306,-4.8306,-4.8306,-4.8267,-4.8072,-4.7992,-4.7972,-4.7762,-4.7717,-4.7717,-4.7717,-4.7717,-4.7717,-4.7717,-4.7717,-4.7717,-4.7717,-4.7717,-4.7717,-4.7717,-4.7717,-4.7717,-4.7717,-4.7717,-4.7717,-4.7717,-4.7717,-4.7717,-4.7717,-4.7717,-4.7717,-4.7717,-4.6954,-4.631,-4.6123,-4.5363,-4.4786,-4.4626,-4.4615,-4.4615,-4.4615,-4.4615,-4.4615,-4.4615,-4.4615,-4.4615,-4.4615,-4.4615,-4.4215,-4.3409,-4.2675,-4.1796,-4.0798,-4.0333,-4.0096,-4.0113,-3.9961,-3.9824,-2.2033,0.0,0.0,0.0,0.0,-3.0093,-3.2784,-3.4688,-3.617,-3.7272,-3.8982,-4.038,-4.0653,-4.1791,-4.2782,-4.3039,-4.3331,-4.3515,-4.3515,-4.3515,-4.3515,-4.3515,-4.3515,-4.3515,-4.3515,-4.3515,-4.3515,-4.3515,-4.3515,-4.3515,-4.3515,-4.3515,-4.3515,-4.3515,-4.3515,-4.3515,-4.3515,-4.3515,-4.3515,-4.3515,-4.3515,-4.3515,-4.3533,-4.4048,-4.4305,-4.4323,-4.4856,-4.57,-4.6709,-4.6984,-4.7406,-4.7921,-4.8196,-4.8306,-4.8306,-4.8306,-4.8305,-4.8247,-4.811,-4.803,-4.7929,-4.7822,-4.7738,-4.7717,-4.7717,-4.7717,-4.7717,-4.7717,-4.7717,-4.7717,-4.7717,-4.7717,-4.7717,-4.7717,-4.7717,-4.7717,-4.7717,-4.7717,-4.7717,-4.7717,-4.7717,-4.7717,-4.7717,-4.7554,-4.7428,-4.7428,-4.6525,-4.5825,-4.5825,-4.5106,-4.4615,-4.4615,-4.4615,-4.4615,-4.4615,-4.4615,-4.4615,-4.4615,-4.4615,-4.4615,-4.4615,-4.4615,-4.4361,-4.3809,-4.3064,-4.2303,-4.1576,-4.0587,-4.0096,-4.0113,-3.9961,-3.9932,0.0,0.0,0.0,0.0,0.0,0.0,-3.3298,-3.3555,-3.3421,-3.6629,-3.7955,-3.8817,-3.9643,-4.0469,-4.1279,-4.2103,-4.291,-4.346,-4.346,-4.3496,-4.3515,-4.3515,-4.3515,-4.3515,-4.3515,-4.3515,-4.3515,-4.3515,-4.3515,-4.3515,-4.3515,-4.3515,-4.3515,-4.3515,-4.3515,-4.3515,-4.3515,-4.3515,-4.3515,-4.3515,-4.3515,-4.3515,-4.3515,-4.3515,-4.3515,-4.3515,-4.3515,-4.4378,-4.5883,-4.6691,-4.7058,-4.7186,-4.7957,-4.8288,-4.8306,-4.8306,-4.8267,-4.8187,-4.8187,-4.8067,-4.7881,-4.7881,-4.7819,-4.7717,-4.7717,-4.7717,-4.7717,-4.7717,-4.7717,-4.7717,-4.7717,-4.7717,-4.7717,-4.7717,-4.7717,-4.7717,-4.7717,-4.7717,-4.7717,-4.7717,-4.7717,-4.7678,-4.7678,-4.7236,-4.6886,-4.6886,-4.5992,-4.5303,-4.5303,-4.4906,-4.4615,-4.4615,-4.4615,-4.4615,-4.4615,-4.4615,-4.4615,-4.4615,-4.4615,-4.4615,-4.4615,-4.4615,-4.4615,-4.4615,-4.3809,-4.3064,-4.232,-4.0857,-4.013,-4.0113,-3.9994,-4.0199,-2.1619,0.0,0.0,0.0,0.0,0.0,-2.7651,-2.9072,-3.0418,-3.1916,-3.3788,-3.5587,-3.7019,-3.8432,-3.9643,-4.0432,-4.1735,-4.2635,-4.2635,-4.313,-4.3515,-4.3515,-4.3515,-4.3515,-4.3515,-4.3515,-4.3515,-4.3515,-4.3515,-4.3515,-4.3515,-4.3515,-4.3515,-4.3515,-4.3515,-4.3515,-4.3515,-4.3515,-4.3515,-4.3515,-4.3515,-4.3515,-4.3515,-4.3515,-4.3515,-4.3515,-4.3515,-4.3753,-4.4231,-4.5039,-4.6049,-4.7113,-4.7351,-4.7791,-4.8306,-4.8306,-4.8267,-4.8187,-4.8187,-4.8067,-4.7881,-4.7881,-4.7819,-4.7717,-4.7717,-4.7717,-4.7717,-4.7717,-4.7717,-4.7717,-4.7717,-4.7717,-4.7717,-4.7717,-4.7717,-4.7717,-4.7717,-4.7717,-4.7717,-4.7717,-4.7717,-4.7593,-4.7191,-4.6999,-4.6776,-4.6382,-4.5724,-4.5303,-4.5303,-4.4906,-4.4615,-4.4615,-4.4615,-4.4615,-4.4615,-4.4615,-4.4615,-4.4615,-4.4615,-4.4615,-4.4615,-4.4615,-4.4615,-4.4615,-4.3809,-4.3291,-4.3098,-4.161,-4.0612,-4.0113,-4.0413,-4.1059,0.0,0.0,0.0,0.0,0.0,0.0,-2.6521,-2.7475,-2.851,-3.0338,-3.1825,-3.3403,-3.5404,-3.6509,-3.7551,-3.8723,-3.9974,-4.1038,-4.1699,-4.2194,-4.2616,-4.2947,-4.3002,-4.313,-4.3478,-4.3515,-4.3515,-4.3515,-4.3515,-4.3515,-4.3515,-4.3515,-4.3515,-4.3515,-4.3515,-4.3515,-4.3515,-4.3515,-4.3515,-4.3515,-4.3515,-4.3515,-4.3515,-4.3515,-4.3515,-4.3515,-4.3515,-4.3515,-4.3551,-4.4011,-4.4947,-4.6122,-4.647,-4.7076,-4.7791,-4.7791,-4.7954,-4.8187,-4.8187,-4.8067,-4.7881,-4.7881,-4.7819,-4.7717,-4.7717,-4.7717,-4.7717,-4.7717,-4.7717,-4.7717,-4.7717,-4.7717,-4.7717,-4.7717,-4.7717,-4.7717,-4.7717,-4.7717,-4.7717,-4.7717,-4.7511,-4.7258,-4.6954,-4.6525,-4.614,-4.58,-4.532,-4.5008,-4.5008,-4.4759,-4.4615,-4.4615,-4.4615,-4.4615,-4.4615,-4.4615,-4.4615,-4.4615,-4.4615,-4.4615,-4.4615,-4.4615,-4.4615,-4.4615,-4.413,-4.3741,-4.3392,-4.2236,-4.1388,-4.0853,-4.1131,-4.1705,-2.3621,-2.3456,0.0,0.0,-2.5054,0.0,-2.7739,-2.7501,-2.7402,-3.0166,-3.0809,-3.1586,-3.3903,-3.4491,-3.5078,-3.6574,-3.7734,-3.9038,-4.0728,-4.104,-4.137,-4.2084,-4.2176,-4.2451,-4.3149,-4.3222,-4.3222,-4.3222,-4.3222,-4.3276,-4.3368,-4.3369,-4.3423,-4.3515,-4.3515,-4.3515,-4.3515,-4.3515,-4.3515,-4.3515,-4.3515,-4.3515,-4.3515,-4.3515,-4.3515,-4.3515,-4.3515,-4.3515,-4.3515,-4.3515,-4.3975,-4.4782,-4.5498,-4.6269,-4.6966,-4.6966,-4.7368,-4.7931,-4.8023,-4.7884,-4.7645,-4.7827,-4.7747,-4.7591,-4.7681,-4.7717,-4.7717,-4.7717,-4.7717,-4.7717,-4.7717,-4.7717,-4.7717,-4.7717,-4.7717,-4.7717,-4.7717,-4.7657,-4.7615,-4.7615,-4.7236,-4.6863,-4.673,-4.5925,-4.5276,-4.5241,-4.4879,-4.4615,-4.4615,-4.4615,-4.4615,-4.4615,-4.4615,-4.4615,-4.4615,-4.4615,-4.4615,-4.4615,-4.4615,-4.4615,-4.4615,-4.4615,-4.4615,-4.4615,-4.4615,-4.4231,-4.3511,-4.2692,-4.222,-4.2021,-4.2021,-4.2239,-2.6127,-2.6374,-2.6678,-2.5844,-2.6741,0.0,-2.5548,-2.5897,-2.6594,-2.6568,-2.709,-2.8069,-2.9849,-3.1237,-3.221,-3.2535,-3.4926,-3.7551,-3.9808,-4.0689,-4.115,-4.1315,-4.1334,-4.1389,-4.1535,-4.1572,-4.1572,-4.1572,-4.1572,-4.1864,-4.2506,-4.2525,-4.2818,-4.3478,-4.3515,-4.3515,-4.3515,-4.3515,-4.3515,-4.3515,-4.3515,-4.3515,-4.3515,-4.3515,-4.3515,-4.3515,-4.3515,-4.3515,-4.3515,-4.3515,-4.3975,-4.4709,-4.4856,-4.5443,-4.614,-4.614,-4.6121,-4.6207,-4.696,-4.6603,-4.6037,-4.7443,-4.7366,-4.6866,-4.7518,-4.7717,-4.7717,-4.7717,-4.7717,-4.7717,-4.7717,-4.7717,-4.7717,-4.7717,-4.7717,-4.7717,-4.7717,-4.7363,-4.7062,-4.7062,-4.6954,-4.6637,-4.5749,-4.5433,-4.5161,-4.4786,-4.4654,-4.4615,-4.4615,-4.4615,-4.4615,-4.4615,-4.4615,-4.4615,-4.4615,-4.4615,-4.4615,-4.4615,-4.4615,-4.4615,-4.4615,-4.4615,-4.4615,-4.4615,-4.4615,-4.453,-4.435,-4.2963,-4.2473,-4.2775,-4.2775,-4.2989,-2.7541,-2.72,-2.72,-2.72,-2.7501,0.0,0.0,-2.5988,-2.6227,-2.7034,-2.6557,-2.6741,-2.9152,-2.9934,-3.0467,-3.1268,-3.3458,-3.533,-3.6156,-3.7679,-3.9001,-3.9811,-3.9551,-3.9625,-4.0414,-4.0857,-4.1095,-4.1095,-4.1095,-4.1279,-4.168,-4.2084,-4.2488,-4.2892,-4.3277,-4.3515,-4.3515,-4.3515,-4.3515,-4.3515,-4.3515,-4.3515,-4.3515,-4.3515,-4.3515,-4.3515,-4.3515,-4.3515,-4.3515,-4.3515,-4.3736,-4.4103,-4.4103,-4.4599,-4.5296,-4.5296,-4.548,-4.5752,-4.6154,-4.591,-4.5533,-4.635,-4.6273,-4.5979,-4.6377,-4.6794,-4.7192,-4.7591,-4.7717,-4.7717,-4.7717,-4.7717,-4.7717,-4.7717,-4.749,-4.7302,-4.7302,-4.6886,-4.643,-4.6147,-4.6098,-4.5925,-4.5407,-4.5098,-4.4879,-4.4626,-4.4615,-4.4615,-4.4615,-4.4615,-4.4615,-4.4615,-4.4615,-4.4615,-4.4615,-4.4615,-4.4615,-4.4615,-4.4615,-4.4615,-4.4615,-4.4615,-4.4615,-4.4615,-4.4615,-4.4615,-4.4615,-4.3736,-4.3384,-4.3545,-4.3459,-4.3485,-2.8959,-2.8246,-2.8106,-2.8638,-2.8363,-2.7879,0.0,0.0,0.0,-2.8198,-2.6998,-2.6439,-2.9035,-2.8968,-2.8913,-3.0056,-3.1843,-3.2779,-3.1812,-3.3678,-3.5716,-3.7331,-3.7221,-3.7533,-3.8836,-3.9405,-3.9958,-4.0581,-4.0196,-4.0196,-4.0838,-4.1479,-4.1919,-4.2066,-4.2837,-4.3276,-4.3276,-4.3423,-4.3515,-4.3515,-4.3515,-4.3515,-4.3515,-4.3515,-4.3515,-4.3515,-4.3515,-4.3515,-4.3515,-4.3515,-4.3515,-4.3515,-4.3515,-4.3901,-4.447,-4.447,-4.4821,-4.5315,-4.5349,-4.5217,-4.5028,-4.522,-4.5291,-4.5291,-4.5291,-4.5852,-4.6649,-4.7301,-4.7591,-4.7717,-4.7717,-4.7636,-4.7533,-4.7533,-4.7129,-4.6753,-4.6753,-4.6334,-4.5825,-4.5381,-4.5241,-4.5178,-4.5178,-4.4852,-4.4615,-4.4615,-4.4615,-4.4615,-4.4615,-4.4615,-4.4615,-4.4615,-4.4615,-4.4615,-4.4615,-4.4615,-4.4615,-4.4615,-4.4615,-4.4615,-4.4615,-4.4615,-4.4615,-4.4615,-4.4615,-4.4615,-4.4615,-4.4384,-4.4212,-4.4097,-4.3956,-4.3793,-3.1489,-3.1971,-3.2173,-2.8778,-3.0485,-3.1696,-2.6788,0.0,-2.8253,-2.7115,0.0,-2.6576,-2.6943,0.0,0.0,-2.6164,-2.8631,-3.0081,-2.8558,-2.9824,-3.1494,-3.3096,-3.4472,-3.5353,-3.5536,-3.4986,-3.5844,-3.8762,-3.6931,-3.6949,-3.9882,-4.012,-4.0506,-4.1205,-4.2029,-4.2433,-4.2433,-4.313,-4.3515,-4.3515,-4.3515,-4.3515,-4.3515,-4.3515,-4.3515,-4.3515,-4.3515,-4.3515,-4.3515,-4.3515,-4.3515,-4.3515,-4.3515,-4.357,-4.3626,-4.3626,-4.3576,-4.3597,-4.429,-4.3941,-4.3426,-4.4838,-4.5291,-4.5291,-4.5291,-4.5852,-4.6522,-4.6613,-4.7156,-4.7717,-4.7717,-4.7341,-4.6976,-4.6976,-4.659,-4.6189,-4.6189,-4.5775,-4.5381,-4.5303,-4.4971,-4.4665,-4.4665,-4.4626,-4.4615,-4.4615,-4.4615,-4.4615,-4.4615,-4.4615,-4.4615,-4.4615,-4.4615,-4.4615,-4.4615,-4.4615,-4.4615,-4.4615,-4.4615,-4.4615,-4.4615,-4.4615,-4.4615,-4.4615,-4.4615,-4.4615,-4.4615,-4.4286,-4.4126,-4.4097,-4.3956,-4.3793,-3.1875,-3.2248,-3.2513,-2.9854,-3.0503,-3.1011,-2.8147,-2.7537,-2.7813,-2.8539,0.0,0.0,0.0,0.0,0.0,0.0,-2.7622,-2.8246,-2.6623,-2.7787,-2.9402,-3.1005,-3.139,-3.2252,-3.4124,-3.4009,-3.478,-3.7129,-3.544,-3.5532,-3.8374,-3.8946,-3.957,-4.0377,-4.1644,-4.2304,-4.2304,-4.3094,-4.3515,-4.3515,-4.3515,-4.3515,-4.3515,-4.3515,-4.3515,-4.3515,-4.3515,-4.3515,-4.3515,-4.3515,-4.3515,-4.3497,-4.3464,-4.3481,-4.3497,-4.3464,-4.334,-4.3233,-4.3542,-4.3321,-4.3009,-4.3679,-4.3896,-4.3987,-4.4458,-4.5164,-4.5906,-4.6377,-4.7083,-4.7636,-4.732,-4.7062,-4.684,-4.6501,-4.6042,-4.564,-4.564,-4.5258,-4.4906,-4.4906,-4.4731,-4.4615,-4.4615,-4.4615,-4.4615,-4.4615,-4.4615,-4.4615,-4.4615,-4.4615,-4.4615,-4.4615,-4.4615,-4.4615,-4.4615,-4.4615,-4.4615,-4.4615,-4.4615,-4.4615,-4.4615,-4.4615,-4.4615,-4.4615,-4.4615,-4.4615,-4.4615,-4.4241,-4.4097,-4.4097,-4.3835,-4.3687,-3.2906,-3.3059,-3.3103,-3.0515,-3.0245,-3.0196,-2.8686,-2.7941,-2.8026,-2.9555,-2.8833,0.0,0.0,0.0,-2.7115,-2.6657,0.0,-2.7155,-2.5338,-2.6274,-2.7578,-2.8741,-2.876,-2.9769,-3.254,-3.221,-3.2889,-3.5422,-3.3862,-3.4174,-3.7327,-3.8046,-3.8744,-3.9551,-4.113,-4.1974,-4.1974,-4.2983,-4.3515,-4.3515,-4.3515,-4.3515,-4.3515,-4.3515,-4.3515,-4.3515,-4.3515,-4.3515,-4.3515,-4.3515,-4.3515,-4.3497,-4.3446,-4.3446,-4.3463,-4.3376,-4.3269,-4.3178,-4.3123,-4.3012,-4.2901,-4.2901,-4.2901,-4.3009,-4.3588,-4.4476,-4.5417,-4.6015,-4.6798,-4.7385,-4.6999,-4.6683,-4.6358,-4.5975,-4.5503,-4.5098,-4.5098,-4.4824,-4.4615,-4.4615,-4.4615,-4.4615,-4.4615,-4.4615,-4.4615,-4.4615,-4.4615,-4.4615,-4.4615,-4.4615,-4.4615,-4.4615,-4.4615,-4.4615,-4.4615,-4.4615,-4.4615,-4.4615,-4.4615,-4.4615,-4.4615,-4.4615,-4.4615,-4.4615,-4.4615,-4.4615,-4.4615,-4.4241,-4.4097,-4.4097,-4.3747,-4.3598,-3.566,-3.5662,-3.5114,-3.0258,-3.021,-3.0552,-2.7402,-2.8436,-2.9898,-2.9189,-3.0228,-3.0779,-2.928,-2.8968,0.0,0.0,0.0,0.0,0.0,-2.4952,-2.5503,-2.554,-2.6917,-2.8484,-3.0155,-2.8209,-2.8796,-3.3513,-3.1678,-3.2412,-3.7235,-3.7529,-3.7915,-3.8707,-4.0288,-4.1132,-4.1132,-4.2708,-4.3515,-4.3515,-4.3515,-4.3515,-4.3515,-4.3515,-4.3515,-4.3515,-4.3515,-4.3515,-4.3515,-4.3515,-4.3515,-4.3515,-4.3497,-4.3464,-4.3394,-4.3251,-4.316,-4.3104,-4.3104,-4.3012,-4.2901,-4.2901,-4.2901,-4.2901,-4.2937,-4.4041,-4.5309,-4.5327,-4.6097,-4.6908,-4.6908,-4.6123,-4.5355,-4.5329,-4.4971,-4.4626,-4.4626,-4.4598,-4.4615,-4.4615,-4.4615,-4.4615,-4.4615,-4.4615,-4.4615,-4.4615,-4.4615,-4.4615,-4.4615,-4.4615,-4.4615,-4.4615,-4.4615,-4.4615,-4.4615,-4.4615,-4.4615,-4.4615,-4.4615,-4.4615,-4.4615,-4.4615,-4.4615,-4.4615,-4.4615,-4.4615,-4.4615,-4.4241,-4.4097,-4.4097,-4.3747,-4.3598,-3.6268,-3.6671,-3.6389,-3.2434,-3.1525,-3.1003,-2.8698,-2.8822,-2.9335,-2.906,-3.0283,-3.0907,-2.9299,-2.9005,0.0,0.0,0.0,0.0,0.0,-2.4428,-2.4622,-2.4622,-2.6025,-2.7218,-2.7769,-2.709,-2.8172,-3.1929,-3.0467,-3.128,-3.561,-3.6395,-3.7055,-3.7878,-3.946,-4.0561,-4.1095,-4.2176,-4.2965,-4.3515,-4.3515,-4.3515,-4.3515,-4.3515,-4.3515,-4.3515,-4.3515,-4.3515,-4.3515,-4.3515,-4.3515,-4.3497,-4.3339,-4.3286,-4.3251,-4.3214,-4.316,-4.3086,-4.2994,-4.2938,-4.2901,-4.2901,-4.2901,-4.2901,-4.2901,-4.4023,-4.5231,-4.4869,-4.5805,-4.673,-4.6042,-4.5588,-4.5214,-4.4917,-4.472,-4.4615,-4.4615,-4.4615,-4.4615,-4.4615,-4.4615,-4.4615,-4.4615,-4.4615,-4.4615,-4.4615,-4.4615,-4.4615,-4.4615,-4.4615,-4.4615,-4.4615,-4.4615,-4.4615,-4.4615,-4.4615,-4.4615,-4.4615,-4.4615,-4.4615,-4.4615,-4.4615,-4.4615,-4.4615,-4.4615,-4.4615,-4.4615,-4.4241,-4.4097,-4.4097,-4.3747,-4.3598,-3.7067,-3.7355,-3.7026,-3.3928,-3.2809,-3.1912,-2.9891,-2.9867,-3.0198,-2.9904,-3.0687,-3.1256,-3.0785,-2.9776,-2.8656,0.0,0.0,0.0,0.0,-2.419,-2.419,-2.419,-2.5126,0.0,0.0,-2.5483,-2.6649,-2.9891,-2.9163,-3.0326,-3.4362,-3.5679,-3.6684,-3.7474,-3.9071,-4.0139,-4.0671,-4.1772,-4.2561,-4.3075,-4.3368,-4.3515,-4.3515,-4.3515,-4.3515,-4.3515,-4.3515,-4.3515,-4.3515,-4.3515,-4.3515,-4.3479,-4.3322,-4.3233,-4.3178,-4.3123,-4.3068,-4.303,-4.2938,-4.2901,-4.2863,-4.2692,-4.2653,-4.2653,-4.2653,-4.377,-4.497,-4.46,-4.5503,-4.6406,-4.5537,-4.5178,-4.4954,-4.4682,-4.4615,-4.4615,-4.4615,-4.4615,-4.4615,-4.4615,-4.4615,-4.4615,-4.4615,-4.4615,-4.4615,-4.4615,-4.4615,-4.4615,-4.4615,-4.4615,-4.4615,-4.4615,-4.4615,-4.4615,-4.4615,-4.4615,-4.4615,-4.4615,-4.4615,-4.4615,-4.4615,-4.4615,-4.4615,-4.4615,-4.4615,-4.457,-4.4497,-4.4241,-4.4085,-4.4027,-4.3747,-4.3598]},{"header":{"parameterUnit":"m.s-1","parameterCategory":1,"la1":30.6,"la2":29.2853,"lo1":-89.7004,"lo2":-87.6739,"dy":0.0162,"dx":0.0183,"nx":112,"ny":82,"refTime":"2024-06-29T18:00:00:Z","depth":0,"parameterNumber":3,"parameterNumberName":"V-component_of_WINDS"},"data":[0.0,0.0,0.0,0.0,0.0,0.0,0.0,0.0,0.0,0.0,0.0,0.0,0.0,0.0,0.0,0.0,0.0,0.0,0.0,0.0,0.0,0.0,0.0,0.0,0.0,0.0,0.0,0.0,0.0,0.0,0.0,0.0,0.0,0.0,0.0,0.0,0.0,0.0,0.0,0.0,0.0,0.0,0.0,0.0,0.0,0.0,0.0,0.0,0.0,0.0,0.0,0.0,0.0,0.0,0.0,0.0,0.0,0.0,0.0,0.0,0.0,0.0,0.0,0.0,0.0,0.0,0.0,0.0,0.0,0.0,0.0,0.0,0.0,0.0,0.0,0.0,0.0,0.0,0.0,0.0,0.0,0.0,0.0,0.0,0.0,0.0,0.0,0.0,0.0,0.0,1.7034,1.8663,2.0385,2.129,2.1011,2.1918,2.1354,1.8714,0.0,0.0,0.0,0.0,0.0,0.0,0.0,0.0,0.0,0.0,0.0,0.0,0.0,0.0,0.0,0.0,0.0,0.0,0.0,0.0,0.0,0.0,0.0,0.0,0.0,0.0,0.0,0.0,0.0,0.0,0.0,0.0,0.0,0.0,0.0,0.0,0.0,0.0,0.0,0.0,0.0,0.0,0.0,0.0,0.0,0.0,0.0,0.0,0.0,0.0,0.0,0.0,0.0,0.0,0.0,0.0,0.0,0.0,0.0,0.0,0.0,0.0,0.0,0.0,0.0,0.0,0.0,0.0,0.0,0.0,0.0,0.0,0.0,0.0,0.0,0.0,0.0,0.0,0.0,0.0,0.0,0.0,0.0,0.0,0.0,0.0,0.0,0.0,0.0,0.0,0.0,0.0,0.0,0.0,0.0,0.0,0.0,0.0,0.0,0.0,0.0,0.0,0.0,0.0,1.6753,2.0028,2.0248,2.0736,2.2101,2.1545,2.0922,2.0502,0.0,0.0,0.0,0.0,0.0,0.0,0.0,0.0,0.0,0.0,0.0,0.0,0.0,0.0,0.0,0.0,0.0,0.0,0.0,0.0,0.0,0.0,0.0,0.0,0.0,0.0,0.0,0.0,0.0,0.0,0.0,0.0,0.0,0.0,0.0,0.0,0.0,0.0,0.0,0.0,0.0,0.0,0.0,0.0,0.0,0.0,0.0,0.0,0.0,0.0,0.0,0.0,0.0,0.0,0.0,0.0,0.0,0.0,0.0,0.0,0.0,0.0,0.0,0.0,0.0,0.0,0.0,0.0,0.0,0.0,0.0,0.0,0.0,0.0,0.0,0.0,0.0,0.0,0.0,0.0,0.0,0.0,0.0,0.0,0.0,0.0,0.0,0.0,0.0,0.0,0.0,0.0,0.0,0.0,0.0,0.0,0.0,0.0,0.0,0.0,0.0,0.0,0.0,1.5729,1.7182,2.0194,2.0165,2.0333,2.1433,2.1082,2.0523,1.9902,1.8054,0.0,0.0,0.0,0.0,0.0,0.0,0.0,0.0,0.0,0.0,0.0,0.0,0.0,0.0,0.0,0.0,0.0,0.0,0.0,0.0,0.0,0.0,0.0,0.0,0.0,0.0,0.0,0.0,0.0,0.0,0.0,0.0,0.0,0.0,0.0,0.0,0.0,0.0,0.0,0.0,0.0,0.0,0.0,0.0,0.0,0.0,0.0,0.0,0.0,0.0,0.0,0.0,0.0,0.0,0.0,0.0,0.0,0.0,0.0,0.0,0.0,0.0,0.0,0.0,0.0,0.0,0.0,0.0,0.0,0.0,0.0,0.0,0.0,0.0,0.0,0.0,0.0,0.0,0.0,0.0,0.0,0.0,0.0,0.0,0.0,0.0,0.0,0.0,0.0,0.0,0.0,0.0,0.0,0.0,0.0,0.0,0.0,0.0,0.0,0.0,0.0,0.0,1.7016,1.7897,2.0057,2.0041,2.0167,2.0822,2.0482,1.9859,1.9032,1.6935,0.0,0.0,0.0,0.0,0.0,0.0,0.0,0.0,0.0,0.0,0.0,0.0,0.0,0.0,0.0,0.0,0.0,0.0,0.0,0.0,0.0,0.0,0.0,0.0,0.0,0.0,0.0,0.0,0.0,0.0,0.0,0.0,0.0,0.0,0.0,0.0,0.0,0.0,0.0,0.0,0.0,0.0,0.0,0.0,0.0,0.0,0.0,0.0,0.0,0.0,0.0,0.0,0.0,0.0,0.0,0.0,0.0,0.0,0.0,0.0,0.0,0.0,0.0,0.0,0.0,0.0,0.0,0.0,0.0,0.0,0.0,0.0,0.0,0.0,0.0,0.0,0.0,0.0,0.0,0.0,0.0,0.0,0.0,0.0,0.0,0.0,0.0,0.0,0.0,0.0,0.0,0.0,0.0,0.0,0.0,0.0,0.0,0.0,0.0,0.0,0.0,0.0,1.7181,1.8901,1.986,1.9913,2.032,2.1343,1.9612,1.861,1.8891,1.5856,0.0,0.0,0.0,0.0,0.0,0.0,0.0,0.0,0.0,0.0,0.0,0.0,0.0,0.0,0.0,0.0,0.0,0.0,0.0,0.0,0.0,0.0,0.0,0.0,0.0,0.0,0.0,0.0,0.0,0.0,0.0,0.0,0.0,0.0,0.0,0.0,0.0,0.0,0.0,0.0,0.0,0.0,0.0,0.0,0.0,0.0,0.0,0.0,0.0,0.0,0.0,0.0,0.0,0.0,0.0,0.0,0.0,0.0,0.0,0.0,0.0,0.0,0.0,0.0,0.0,0.0,0.0,0.0,0.0,0.0,0.0,0.0,0.0,0.0,0.0,0.0,0.0,0.0,0.0,0.0,0.0,0.0,0.0,0.0,0.0,0.0,0.0,0.0,0.0,0.0,0.0,0.0,0.0,0.0,0.0,0.0,0.0,0.0,0.0,0.0,0.0,0.0,1.6404,1.7805,1.9022,1.9296,1.9693,2.0438,1.9724,1.8946,1.8275,0.0,0.0,0.0,0.0,0.0,0.0,0.0,0.0,0.0,0.0,0.0,0.0,0.0,0.0,0.0,0.0,0.0,0.0,0.0,0.0,0.0,0.0,0.0,0.0,0.0,0.0,0.0,0.0,0.0,0.0,0.0,0.0,0.0,0.0,0.0,0.0,0.0,0.0,0.0,0.0,0.0,0.0,0.0,0.0,0.0,0.0,0.0,0.0,0.0,0.0,0.0,0.0,0.0,0.0,0.0,0.0,0.0,0.0,0.0,0.0,0.0,0.0,0.0,0.0,0.0,0.0,0.0,0.0,0.0,0.0,0.0,0.0,0.0,0.0,0.0,0.0,0.0,0.0,0.0,0.0,0.0,0.0,0.0,0.0,0.0,0.0,0.0,0.0,0.0,0.0,0.0,0.0,0.0,0.0,0.0,0.0,0.0,0.0,0.0,0.0,0.0,0.0,1.4777,1.6208,1.7431,1.8567,1.9011,1.9452,2.0089,1.9355,1.8504,1.769,0.0,0.0,0.0,0.0,0.0,0.0,0.0,0.0,0.0,0.0,0.0,0.0,0.0,0.0,0.0,0.0,0.0,0.0,0.0,0.0,0.0,0.0,0.0,0.0,0.0,0.0,0.0,0.0,0.0,0.0,0.0,0.0,0.0,0.0,0.0,0.0,0.0,0.0,0.0,0.0,0.0,0.0,0.0,0.0,0.0,0.0,0.0,0.0,0.0,0.0,0.0,0.0,0.0,0.0,0.0,0.0,0.0,0.0,0.0,0.0,0.0,0.0,0.0,0.0,0.0,0.0,0.0,0.0,0.0,0.0,0.0,0.0,0.0,0.0,0.0,0.0,0.0,0.0,0.0,0.0,0.0,0.0,0.0,0.0,0.0,0.0,0.0,0.0,0.0,0.0,0.0,0.0,0.0,0.0,0.0,0.0,0.0,0.0,0.0,0.0,0.0,0.0,1.4864,1.6809,1.8185,1.8643,1.9124,1.9731,2.0526,1.8258,1.6959,0.0,0.0,0.0,0.0,0.0,0.0,0.0,0.0,0.0,0.0,0.0,0.0,0.0,0.0,0.0,0.0,0.0,0.0,0.0,0.0,0.0,0.0,0.0,0.0,0.0,0.0,0.0,0.0,0.0,0.0,0.0,0.0,0.0,0.0,0.0,0.0,0.0,0.0,0.0,0.0,0.0,0.0,0.0,0.0,0.0,0.0,0.0,0.0,0.0,0.0,0.0,0.0,0.0,0.0,0.0,0.0,0.0,0.0,0.0,0.0,0.0,0.0,0.0,0.0,0.0,0.0,0.0,0.0,0.0,0.0,0.0,0.0,0.0,0.0,0.0,0.0,0.0,0.0,0.0,0.0,0.0,0.0,0.0,0.0,0.0,0.0,0.0,0.0,0.0,0.0,0.0,0.0,0.0,0.0,0.0,0.0,0.0,0.0,0.0,0.0,0.0,0.0,0.0,1.5174,1.6933,1.8185,1.8643,1.8818,1.9264,2.016,1.8791,1.7601,1.6994,0.0,0.0,0.0,0.0,0.0,0.0,0.0,0.0,0.0,0.0,0.0,0.0,0.0,0.0,0.0,0.0,0.0,0.0,0.0,0.0,0.0,0.0,0.0,0.0,0.0,0.0,0.0,0.0,0.0,0.0,0.0,0.0,0.0,0.0,0.0,0.0,0.0,0.0,0.0,0.0,0.0,0.0,0.0,0.0,0.0,0.0,0.0,0.0,0.0,0.0,0.0,0.0,0.0,0.0,0.0,0.0,0.0,0.0,0.0,0.0,0.0,0.0,0.0,0.0,0.0,0.0,0.0,0.0,0.0,0.0,0.0,0.0,0.0,0.0,0.0,0.0,0.0,0.0,0.0,0.0,0.0,0.0,0.0,0.0,0.0,0.0,0.0,0.0,0.0,0.0,0.0,0.0,0.0,0.0,0.0,0.0,0.0,0.0,0.0,0.0,0.0,0.0,1.5511,1.7179,1.8349,1.8846,1.8777,1.9091,2.0031,1.8762,1.7599,1.6854,0.0,0.0,0.0,0.0,0.0,0.0,0.0,0.0,0.0,0.0,0.0,0.0,0.0,0.0,0.0,0.0,0.0,0.0,0.0,0.0,0.0,0.0,0.0,0.0,0.0,0.0,0.0,0.0,0.0,0.0,0.0,0.0,0.0,0.0,0.0,0.0,0.0,0.0,0.0,0.0,0.0,0.0,0.0,0.0,0.0,0.0,0.0,0.0,0.0,0.0,0.0,0.0,0.0,0.0,0.0,0.0,0.0,0.0,0.0,0.0,0.0,0.0,0.0,0.0,0.0,0.0,0.0,0.0,0.0,0.0,0.0,0.0,0.0,0.0,0.0,0.0,0.0,0.0,0.0,0.0,0.0,0.0,0.0,0.0,0.0,0.0,0.0,0.0,0.0,0.0,0.0,0.0,0.0,0.0,0.0,0.0,0.0,0.0,0.0,0.0,0.0,0.0,1.5781,1.7458,1.862,1.9114,1.8913,1.9104,1.9998,1.8425,1.7186,1.6824,0.0,0.0,0.0,0.0,0.0,0.0,0.0,0.0,0.0,0.0,0.0,0.0,0.0,0.0,0.0,0.0,0.0,0.0,0.0,0.0,0.0,0.0,0.0,0.0,0.0,0.0,0.0,0.0,0.0,0.0,0.0,0.0,0.0,0.0,0.0,0.0,0.0,0.0,0.0,0.0,0.0,0.0,0.0,0.0,0.0,0.0,0.0,0.0,0.0,0.0,0.0,0.0,0.0,0.0,0.0,0.0,0.0,0.0,0.0,0.0,0.8162,0.79,0.0,0.0,0.0,0.0,0.0,0.0,0.0,0.0,0.0,0.0,0.0,0.0,0.0,0.0,0.0,0.0,0.0,0.0,0.0,0.0,0.0,0.0,0.0,0.0,0.0,0.0,0.0,0.0,0.0,0.0,0.0,0.0,0.0,0.0,0.0,0.0,0.0,0.0,0.0,0.0,1.5732,1.7618,1.8849,1.8956,1.9028,1.9327,1.989,1.867,1.7559,1.6846,1.5274,0.0,0.0,0.0,0.0,0.0,0.0,0.0,0.0,0.0,0.0,0.0,0.0,0.0,0.0,0.0,0.0,0.0,0.0,0.0,0.0,0.0,0.0,0.0,0.0,0.0,0.0,0.0,0.0,0.0,0.0,0.0,0.0,0.0,0.0,0.0,0.0,0.0,0.0,0.0,0.0,0.0,0.0,0.0,0.0,0.0,0.0,0.0,0.0,0.0,0.0,0.0,0.0,0.0,0.0,0.0,0.0,0.0,0.0,0.0,0.9513,0.8894,0.0,0.0,0.0,0.0,0.0,0.0,0.0,0.0,0.0,0.0,0.0,0.0,0.0,0.0,0.0,0.0,0.0,0.0,0.0,0.0,0.0,0.0,0.0,0.0,0.0,0.0,0.0,0.0,0.0,0.0,0.0,0.0,0.0,0.0,0.0,0.0,0.0,0.0,0.0,0.0,1.5963,1.7871,1.9081,1.9081,1.9084,1.9265,1.9868,1.8841,1.7962,1.7418,1.5788,0.0,0.0,0.0,0.0,0.0,0.0,0.0,0.0,0.0,0.0,0.0,0.0,0.0,0.0,0.0,0.0,0.0,0.0,0.0,0.0,0.0,0.0,0.0,0.0,0.0,0.0,0.0,0.0,0.0,0.0,0.0,0.0,0.0,0.0,0.0,0.0,0.0,0.0,0.0,0.0,0.0,0.0,0.0,0.0,0.0,0.0,0.0,0.0,0.0,0.0,0.0,0.0,0.0,1.1346,1.1684,1.2266,1.197,1.2001,1.2213,1.1089,1.0317,0.9824,0.9665,0.0,0.0,0.0,0.0,0.0,0.0,0.0,0.0,0.0,0.0,0.0,0.0,0.0,0.0,0.0,0.0,0.0,0.0,0.0,0.0,0.0,0.0,1.4,1.4549,1.5378,1.5535,1.3753,0.0,0.0,0.0,0.0,0.0,0.0,0.0,0.0,0.0,0.0,0.0,1.6322,1.8135,1.9285,1.9285,1.9092,1.918,1.9662,1.8964,1.8274,1.7835,1.6319,1.4808,0.0,0.0,0.0,0.0,0.0,0.0,0.0,0.0,0.0,0.0,0.0,0.0,0.0,0.0,0.0,0.0,0.0,0.0,0.0,0.0,0.0,0.0,0.0,0.0,0.0,0.0,0.0,0.0,0.0,0.0,0.0,0.0,0.6179,0.6512,0.0,0.0,0.0,0.0,0.0,0.0,0.0,0.0,0.0,0.0,0.0,0.0,0.0,1.0748,1.1524,1.1977,1.2398,1.2728,1.3015,1.3226,1.3307,1.327,1.327,1.33,1.313,0.0,1.1215,1.1206,0.0,0.0,0.0,0.0,0.0,0.0,0.0,0.0,0.0,0.0,0.0,0.0,0.0,0.0,0.0,0.0,0.0,0.0,0.0,0.0,0.0,0.0,1.5405,1.6062,1.5749,1.5253,1.4911,1.4744,1.4246,1.2812,1.2599,1.2367,0.0,0.0,0.0,0.0,0.0,0.0,1.68,1.8195,1.9142,1.9142,1.9189,1.9153,1.8891,1.8829,1.8295,1.7045,1.6819,1.6127,1.472,1.3881,0.0,0.0,0.0,0.0,0.0,0.0,0.0,0.0,0.0,0.0,0.0,0.0,0.0,0.0,0.0,0.0,0.0,0.0,0.0,0.0,0.0,0.0,0.0,0.0,0.0,0.0,0.0,0.0,0.0,0.6236,0.6843,0.7269,0.7205,0.6931,0.0,0.0,0.0,0.0,0.0,0.0,0.0,0.0,0.0,1.0498,1.1337,1.1923,1.2176,1.2799,1.3186,1.3323,1.3842,1.404,1.404,1.404,1.404,1.404,1.404,1.3616,1.2892,1.2587,1.2073,1.1488,0.0,0.0,0.0,0.0,1.1653,1.1598,1.2243,1.2243,1.1841,1.1337,0.0,0.0,0.0,0.0,0.0,0.0,0.0,1.3718,1.4462,1.5036,1.5549,1.5953,1.6067,1.5926,1.5287,1.5721,1.5654,1.3733,1.4189,1.4363,1.2762,1.3226,0.0,0.0,0.0,1.6655,1.7316,1.862,1.9492,1.9492,1.956,1.9346,1.8732,1.8965,1.868,1.7658,1.7162,1.6625,1.5994,1.4696,1.3553,0.0,0.0,0.0,0.0,0.0,0.0,0.0,0.0,0.0,0.0,0.0,0.0,0.0,0.0,0.0,0.0,0.0,0.0,0.0,0.0,0.0,0.0,0.0,0.0,0.0,0.0,0.0,0.0,0.6746,0.7326,0.7973,0.8034,0.7702,0.0,0.0,0.0,0.0,0.0,0.0,0.9498,1.0316,1.0889,1.1211,1.2283,1.2825,1.2811,1.3445,1.3821,1.3906,1.4432,1.471,1.4798,1.4838,1.4915,1.4995,1.4995,1.4856,1.4562,1.3734,1.3095,1.2617,1.271,1.2593,1.2468,1.2999,1.3021,1.2916,1.3706,1.378,1.34,1.2948,1.2727,1.249,1.1597,0.0,0.0,0.0,0.0,1.4222,1.484,1.5223,1.5548,1.5893,1.6372,1.6514,1.5637,1.6395,1.6651,1.4696,1.5482,1.5851,1.4052,1.4653,0.0,1.4464,1.6066,1.7564,1.8143,1.923,1.9969,1.9969,1.9865,1.9497,1.8678,1.9013,1.8857,1.7962,1.7389,1.7029,1.6942,1.5481,1.4398,1.3749,0.0,0.0,0.0,0.0,0.0,0.0,0.0,0.0,0.0,0.0,0.0,0.0,0.0,0.0,0.0,0.0,0.0,0.0,0.0,0.0,0.0,0.0,0.0,0.0,0.0,0.0,0.0,0.0,0.0,0.8633,0.8631,0.0,0.0,0.0,0.0,0.8538,0.9192,0.9839,1.0408,1.1253,1.2166,1.3137,1.3216,1.3554,1.4188,1.4223,1.4384,1.4671,1.4986,1.5312,1.5548,1.5798,1.6059,1.6316,1.6316,1.6309,1.6176,1.4614,1.3733,1.3455,1.3462,1.3447,1.3433,1.3614,1.365,1.3679,1.3912,1.378,1.3598,1.419,1.4167,1.3869,1.3696,1.3665,0.0,0.0,1.4538,1.48,1.5856,1.5919,1.5839,1.6508,1.6683,1.6587,1.623,1.6764,1.6924,1.5757,1.6035,1.6206,1.5344,0.0,1.6439,1.6443,1.7528,1.8673,1.9575,2.0089,2.0354,2.0354,2.0017,1.9419,1.8486,1.8839,1.8528,1.716,1.7551,1.7652,1.7292,1.6475,1.5573,1.4644,1.3759,0.0,0.0,0.0,0.0,0.0,0.0,0.0,0.0,0.0,0.0,0.0,0.0,0.0,0.0,0.0,0.0,0.0,0.0,0.0,0.0,0.0,0.0,0.0,0.0,0.0,0.0,0.0,0.0,0.893,0.8558,0.0,0.8584,0.8562,0.8723,0.9203,0.9128,0.9495,1.0435,1.0718,1.1226,1.2039,1.2738,1.3434,1.4171,1.4289,1.4414,1.4524,1.4761,1.4951,1.5036,1.5106,1.5347,1.5625,1.5806,1.5973,1.6095,1.5464,1.516,1.505,1.505,1.4926,1.4765,1.501,1.5131,1.5161,1.5442,1.5475,1.5349,1.5292,1.4945,1.4585,1.4509,1.4691,1.4965,1.538,1.5793,1.6218,1.6813,1.6994,1.713,1.7342,1.7239,1.7048,1.6921,1.6911,1.6782,1.6408,1.6891,1.6956,1.5584,1.649,1.7128,1.6265,1.7248,1.8399,1.928,1.9816,2.028,2.0793,2.0721,2.0141,1.8953,1.9285,1.893,1.7544,1.7387,1.7262,1.7106,1.6381,1.5674,1.5037,1.4493,1.3063,0.0,0.0,0.0,0.0,0.0,0.0,0.0,0.0,0.0,0.0,0.0,0.0,0.0,0.0,0.0,0.0,0.0,0.0,0.0,0.0,0.0,0.0,0.0,0.0,0.0,0.831,0.8762,0.9079,0.887,0.8687,0.8637,0.8568,0.8773,0.9282,0.9164,0.9389,1.0208,1.0787,1.1211,1.138,1.2378,1.2991,1.3137,1.3597,1.3844,1.3844,1.4374,1.4683,1.4768,1.4872,1.5118,1.5494,1.5676,1.5878,1.6139,1.6111,1.6067,1.6045,1.5833,1.5644,1.5621,1.5833,1.5979,1.6096,1.6345,1.6411,1.6345,1.6056,1.571,1.5427,1.5475,1.5699,1.5959,1.627,1.6618,1.6969,1.7201,1.7473,1.7692,1.7692,1.7561,1.7488,1.7488,1.7254,1.7048,1.6937,1.7229,1.7102,1.5893,1.6813,1.7527,1.6963,1.7843,1.8938,1.9937,2.0364,2.0742,2.1267,2.1207,2.0617,1.944,1.9471,1.9013,1.7781,1.7265,1.7017,1.7017,1.6241,1.5614,1.5149,1.445,1.3364,1.1864,0.0,0.0,0.0,0.0,0.0,0.0,0.0,0.0,0.0,0.0,0.0,0.0,0.0,0.0,0.0,0.0,0.0,0.0,0.0,0.0,0.0,0.0,0.0,0.8831,0.8429,0.8427,0.9101,0.9563,0.9456,0.8453,0.8605,0.8797,0.8841,0.933,0.9681,0.9723,1.1538,1.2186,1.1289,1.2155,1.2203,1.1386,1.2252,1.2729,1.279,1.397,1.468,1.4948,1.5192,1.5559,1.6026,1.6026,1.6159,1.6426,1.6404,1.6396,1.6382,1.5701,1.5608,1.5928,1.5928,1.6118,1.6426,1.6426,1.6433,1.6441,1.6441,1.6441,1.6441,1.6669,1.6713,1.6757,1.6941,1.7037,1.7037,1.7037,1.7205,1.7417,1.7417,1.762,1.7787,1.7787,1.7779,1.7676,1.7358,1.6967,1.661,1.6285,1.6791,1.7605,1.859,1.9326,0.0,2.1555,2.1721,2.1731,2.1807,2.1404,2.0772,1.9896,1.9409,1.8723,1.7761,1.7285,1.7027,1.7017,1.6187,1.5494,1.5028,1.3628,1.3016,1.3184,0.0,0.0,0.0,0.0,0.0,0.0,0.0,0.0,0.0,0.0,0.0,0.0,0.0,0.0,0.0,0.0,0.0,0.0,0.0,0.0,0.0,0.8422,0.8792,0.8913,0.926,0.9369,0.9103,0.8746,0.8698,0.9127,0.8743,0.8778,0.955,0.916,0.9178,0.9813,0.9788,0.9973,1.0509,1.0736,1.1522,1.2814,1.3088,1.3682,1.4669,1.4981,1.531,1.5557,1.5638,1.5893,1.6245,1.6442,1.6751,1.7152,1.6893,1.6885,1.6996,1.636,1.6162,1.6243,1.6243,1.6492,1.6763,1.6763,1.6872,1.7062,1.7062,1.7062,1.7062,1.7116,1.7162,1.7162,1.7208,1.7353,1.7498,1.7498,1.772,1.7903,1.7903,1.7802,1.7662,1.7662,1.7432,1.7188,1.7103,1.7003,1.6835,1.6609,1.6742,1.6944,1.7227,1.746,1.8165,1.9767,1.9972,2.045,2.1683,2.1694,2.1238,2.0317,2.012,1.9352,1.7802,1.7585,1.7358,1.7027,1.6498,1.5998,1.5504,1.4128,1.3269,0.0,0.0,0.0,0.0,0.0,0.0,0.0,0.0,0.0,0.0,0.0,0.0,0.0,0.0,0.0,0.0,0.0,0.0,0.0,0.0,0.0,0.0,0.8948,0.8974,0.9185,0.9507,0.9616,0.9242,0.8958,0.8874,0.912,0.8708,0.8663,0.9292,0.8867,0.8857,0.9411,0.9327,0.9419,0.9744,1.0186,1.1063,1.2439,1.2869,1.3754,1.501,1.5391,1.5665,1.5784,1.5784,1.5973,1.6285,1.6436,1.6725,1.7051,1.6838,1.6871,1.708,0.0,0.0,0.0,0.0,1.6887,1.7055,1.7055,1.7172,1.7279,1.7279,1.7279,1.7279,1.7279,1.7279,1.7279,1.7279,1.7426,1.7527,1.7527,1.7714,1.7947,1.7947,1.7888,1.7789,1.7789,1.7644,1.7416,1.7279,1.7248,0.0,1.6889,1.6797,1.6856,1.7082,1.7212,1.7723,1.9107,1.9295,1.9659,2.0653,2.1049,2.0969,2.0252,2.0145,0.0,0.0,0.0,1.7327,1.6479,1.6415,0.0,0.0,0.0,0.0,0.0,1.4997,0.0,0.0,1.3634,1.3725,0.0,0.0,0.0,0.0,0.0,0.0,0.0,0.0,0.0,0.0,0.0,0.0,0.0,0.0,0.0,0.0,0.9725,0.9344,0.9522,0.9419,0.9331,0.94,0.9622,0.9428,0.8656,0.8612,0.862,0.8641,0.8641,0.8678,0.8869,0.9645,0.0,0.0,0.0,1.1039,1.1542,1.2512,1.3505,1.4612,1.554,1.5896,1.5833,1.5929,1.6128,1.6375,1.6375,1.6471,1.6669,1.6627,1.6783,1.6961,1.6599,1.6624,1.6881,1.7121,1.7198,1.7274,1.7274,0.0,0.0,1.7279,1.7279,1.7279,1.7279,1.7279,1.7279,1.7279,1.7279,1.7279,1.7279,1.7481,1.7628,1.7628,1.7854,1.7986,1.7986,1.7986,1.7902,1.7599,1.7591,1.7439,1.7069,1.6944,1.7064,1.7491,1.775,1.8129,1.8988,1.9058,1.9097,1.9216,1.9904,0.0,1.9753,1.9689,1.9459,1.8962,1.8163,1.713,1.5898,1.6187,1.6216,1.5773,1.6143,1.6726,1.7544,1.7544,1.7222,1.6537,1.54,1.5331,0.0,0.0,0.0,0.0,0.0,0.0,0.0,0.0,0.0,0.0,0.0,0.0,0.0,0.0,0.0,0.8887,0.8995,0.9268,0.968,0.9165,0.8775,0.8769,0.8807,0.8784,0.8608,0.8612,0.8625,0.8763,0.8771,0.8913,0.9282,0.944,1.0023,1.1064,1.1309,1.2403,1.4398,1.4601,1.4883,1.5234,1.6374,0.0,1.5925,1.6821,1.7293,1.7351,1.7351,1.7455,1.7705,1.7408,1.7462,1.7645,1.7028,1.6683,1.6514,1.6528,1.6763,1.6991,1.6991,1.7113,1.7279,1.7279,1.7279,1.7279,1.7279,1.7279,0.0,1.7279,1.7279,1.7279,1.7279,1.7333,1.738,1.738,1.7426,1.7466,1.7466,1.7466,1.7451,1.7385,1.7377,1.7274,1.6957,1.6943,1.6916,1.6842,1.6872,1.709,1.7619,1.7698,1.7971,1.8643,1.9009,1.9061,1.8629,1.8768,1.8624,1.8071,1.7833,1.742,1.6779,1.6519,1.6361,1.6278,1.5998,1.6094,1.6643,1.6643,1.6933,1.742,1.6808,1.6472,0.0,0.0,0.0,0.0,0.0,0.0,0.0,0.0,0.0,0.0,0.0,1.0202,0.9837,0.0,1.0553,0.9879,0.9623,0.944,0.9305,0.8957,0.8694,0.8694,0.8621,0.8612,0.8612,0.8641,0.8767,0.8946,0.9039,0.9242,0.9649,0.9669,1.0291,1.1693,1.1859,1.2735,1.4505,1.4625,1.5007,1.5662,1.6246,1.6636,1.677,1.7312,1.7582,1.7582,1.7582,1.7687,1.7793,1.7748,1.7818,1.7953,1.7728,1.753,1.7333,1.7333,1.7333,1.7333,1.7333,1.7333,1.7279,1.7279,1.7279,1.7279,1.7279,1.7279,1.7279,1.7279,1.7279,1.7279,1.7279,1.7279,1.7279,1.7279,1.7279,1.7279,1.7279,1.7279,1.7279,1.7279,1.7279,1.7274,1.7121,1.7143,1.7056,1.6694,1.6612,1.6699,1.6925,1.6784,1.687,1.731,1.8189,1.8669,1.8481,1.8845,1.9059,1.8953,1.8424,1.7971,1.7709,1.7502,1.7274,1.7067,1.7046,1.7294,1.776,1.776,1.7843,1.8061,1.8061,1.7936,0.0,0.0,0.0,0.0,0.0,0.0,0.0,0.0,0.896,0.9546,1.0447,1.1143,1.1299,1.1226,1.1036,1.0602,1.0077,0.9491,0.889,0.8792,0.8783,0.8816,0.867,0.8624,0.8657,0.8771,0.8966,0.9185,0.936,0.9661,0.9973,0.9994,1.0634,1.1964,1.2139,1.2815,1.3921,1.4046,1.4567,1.5535,1.5808,1.6399,1.7259,1.7477,1.7582,1.7582,1.7582,1.7582,1.7635,1.7852,1.7977,1.8014,1.8226,1.8376,1.8424,1.835,1.8138,1.7911,1.7911,1.7735,1.7461,1.7443,1.7421,1.7359,1.7301,1.7279,1.7279,1.7279,1.7279,1.7279,1.7279,1.7279,1.7279,1.7279,1.7279,1.7279,1.7279,1.7279,1.7279,1.7279,1.7279,1.7279,1.7279,1.7279,1.7182,1.6781,1.6688,1.6637,1.6569,1.6266,1.6061,1.6061,1.7408,1.8399,1.8598,1.9158,1.9663,1.9972,1.9191,1.869,1.8671,1.859,1.835,1.7967,1.834,1.8735,1.9108,1.9108,1.8953,1.8683,1.9067,1.9191,0.8208,0.8337,0.8644,0.9198,0.8865,0.8693,0.0,0.0,0.896,0.9488,0.9911,0.9944,0.9282,0.9591,0.9666,0.8756,0.88,0.8886,0.8816,0.869,0.8653,0.8804,0.867,0.8625,0.8779,0.8958,0.9206,0.9543,0.973,0.9985,1.0355,1.0322,1.098,1.2288,1.237,1.2916,1.4046,1.4067,1.4186,1.4293,1.5375,1.5968,1.6127,1.7153,1.7582,1.7582,1.7582,1.7582,1.7582,1.7635,1.7779,1.8021,1.8021,1.8373,1.8801,1.8418,1.8277,1.8247,1.8247,1.8225,1.8145,1.7852,1.7765,1.7706,1.7374,1.7279,1.7279,1.7279,1.7279,1.7279,1.7279,1.7279,1.7279,1.7279,1.7279,1.7279,1.7279,1.7279,1.7279,1.7279,1.7279,1.7279,1.7279,1.7279,1.7208,1.6903,1.686,1.678,1.6441,1.6139,1.5905,1.5905,1.6664,1.7602,1.8616,1.9042,1.9374,1.9628,1.9487,1.9465,1.9647,1.9243,1.9005,1.8953,1.9005,1.9056,1.9108,1.9108,1.9285,1.9647,1.9699,1.9502,0.8587,0.881,0.904,0.0,0.8717,0.8864,0.9543,0.9463,0.9516,1.0448,1.1038,1.1243,1.0878,1.1199,1.103,0.0,0.9518,0.9444,0.8865,0.8852,0.8824,0.869,0.8698,0.8743,0.8812,0.908,0.9393,0.975,1.0042,1.0318,1.057,1.0586,1.1155,1.2358,1.2417,1.263,1.3112,1.3112,1.3437,1.4137,1.462,1.5589,1.6935,1.7364,1.7582,1.7582,1.7582,1.7582,1.7582,1.7582,1.7747,1.8016,1.8016,1.8391,1.8893,1.8723,1.86,1.8584,1.8584,1.846,1.8277,1.8145,1.7969,1.7786,1.7655,1.7432,1.7279,1.7279,1.7279,1.7279,1.7279,1.7279,1.7279,1.7279,1.7279,1.7279,1.7279,1.7279,1.7279,1.7279,1.7279,1.7279,1.7279,1.7279,1.7235,1.715,1.702,1.6851,1.6712,1.6419,1.6321,1.6633,1.7396,1.8205,1.8993,1.9293,1.9706,2.0312,1.9848,1.9796,2.0375,2.0029,1.9862,1.9862,1.9862,1.9862,1.9862,1.9862,1.9955,2.0151,2.042,2.0452,0.8782,0.0,0.0,0.8564,0.8618,0.8878,0.9153,0.9227,0.9517,1.0458,1.0991,1.1284,1.1284,1.1494,1.1268,0.9981,0.9813,0.9623,0.8853,0.8905,0.8909,0.8649,0.8718,0.882,0.882,0.919,0.9555,0.986,1.027,1.0562,1.0684,1.0692,1.1072,1.1932,1.1932,1.1932,1.1932,1.2254,1.295,1.4078,1.446,1.5642,1.7582,1.7582,1.7582,1.7582,1.7582,1.7582,1.7582,1.7582,1.7694,1.7911,1.7911,1.8227,1.8757,1.8757,1.8815,1.8921,1.8921,1.8767,1.8555,1.8467,1.8277,1.805,1.7867,1.7647,1.7443,1.7355,1.7279,1.7279,1.7279,1.7279,1.7279,1.7279,1.7279,1.7279,1.7279,1.7279,1.7279,1.7279,1.7279,1.7279,1.7279,1.7279,1.7279,1.7279,1.7128,1.7027,1.7027,1.6749,1.669,1.7143,1.777,1.8458,1.921,1.9411,1.9893,2.0829,2.0293,2.0221,2.0862,2.0769,2.0694,2.0694,2.0767,2.0803,2.0803,2.0803,2.0803,2.0777,2.1145,2.13,0.0,0.0,0.9052,0.9212,0.9011,0.8932,0.9382,0.8894,0.8402,0.8634,0.8679,0.8736,0.8736,0.898,0.9108,0.8718,0.891,0.9012,0.8665,0.8723,0.8763,0.8633,0.8718,0.882,0.882,0.9303,0.9693,0.9872,1.0383,1.0684,1.0692,1.0692,1.0692,1.0747,1.0747,1.0747,1.0747,1.1823,1.295,1.4137,1.5269,1.6452,1.7582,1.7582,1.7582,1.7582,1.7582,1.7582,1.7582,1.7582,1.7582,1.7635,1.7635,1.795,1.8422,1.8422,1.8788,1.9257,1.9257,1.9257,1.9199,1.8877,1.8767,1.8642,1.8006,1.7808,1.7735,1.7374,1.7279,1.7279,1.7279,1.7279,1.7279,1.7279,1.7279,1.7279,1.7279,1.7279,1.7279,1.7279,1.7279,1.7279,1.7279,1.7279,1.7279,1.7279,1.7271,1.7311,1.7311,1.7033,1.6989,1.7175,1.7223,1.7788,1.917,1.9301,1.9745,2.0829,2.0896,2.0964,2.1185,2.1357,2.1471,2.1471,2.1652,2.1766,2.1766,2.1766,2.1766,2.1766,2.1776,2.1787,0.8304,0.0,0.878,0.8518,0.845,0.8547,0.8845,0.8688,0.8665,0.9327,0.9407,0.9316,0.9316,0.9425,0.9257,0.8531,0.8682,0.8832,0.8645,0.9023,0.9161,0.8673,0.8971,0.9035,0.8686,0.9031,0.9445,0.9855,1.0168,1.0444,1.068,1.0692,1.0692,1.0692,1.0692,1.1067,1.1823,1.22,1.3383,1.5316,1.6452,1.7206,1.7582,1.7582,1.7582,1.7582,1.7582,1.7582,1.7582,1.7582,1.7582,1.7635,1.7799,1.8062,1.8422,1.8646,1.8959,1.9279,1.9279,1.9279,1.9257,1.9147,1.8964,1.8752,1.8525,1.8313,1.8072,1.7743,1.7655,1.7604,1.7337,1.7279,1.7279,1.7279,1.7279,1.7279,1.7279,1.7279,1.7279,1.7279,1.7279,1.7279,1.7279,1.7279,1.7279,1.7279,1.7279,1.7279,1.7279,1.723,1.7141,1.7011,1.7324,1.7855,1.8704,1.9088,1.9696,2.0654,2.0819,2.0945,2.0984,2.1205,2.132,2.132,2.1502,2.1617,2.1617,2.1731,2.1807,2.1807,2.1807,2.1807,0.8023,0.8076,0.8209,0.8027,0.8082,0.8245,0.854,0.8472,0.8533,0.9098,0.9098,0.9018,0.8946,0.8991,0.8861,0.8262,0.8495,0.8735,0.8755,0.9259,0.9458,0.8999,0.9347,0.9433,0.8986,0.9153,0.9425,0.9766,1.014,1.0448,1.068,1.0692,1.0692,1.0692,1.0692,1.1072,1.1769,1.2575,1.4191,1.6505,1.7259,1.7582,1.7582,1.7582,1.7582,1.7582,1.7582,1.7582,1.7582,1.7582,1.7582,1.7635,1.7799,1.801,1.8272,1.8496,1.881,1.9175,1.9279,1.9279,1.9279,1.9279,1.9133,1.8942,1.8825,1.8642,1.8408,1.8079,1.7904,1.7765,1.7505,1.7374,1.7279,1.7279,1.7279,1.7279,1.7279,1.7279,1.7279,1.7279,1.7279,1.7279,1.7279,1.7279,1.7279,1.7279,1.7279,1.7279,1.7279,1.7279,1.7208,1.6939,1.7198,1.7759,1.8625,1.8918,1.9552,2.0722,2.0781,2.078,2.078,2.0974,2.1089,2.1089,2.1282,2.1436,2.1502,2.1617,2.1731,2.1807,2.1807,2.1807,0.8072,0.7764,0.7427,0.7797,0.7914,0.8028,0.8464,0.8194,0.7889,0.7954,0.7858,0.7714,0.7526,0.0,0.7849,0.7963,0.8329,0.8755,0.9051,0.9421,0.9599,0.0,0.0,0.0,0.0,0.0,0.9657,0.9657,1.0282,1.0672,1.0692,1.0692,1.0692,1.0692,1.0747,1.0802,1.0852,1.3112,1.5423,1.7582,1.7582,1.7582,1.7582,1.7582,1.7582,1.7582,1.7582,1.7582,1.7582,1.7582,1.7582,1.7582,1.7635,1.7799,1.8016,1.8016,1.8391,1.8921,1.9227,1.9279,1.9279,1.9279,1.9279,1.922,1.8906,1.8811,1.8745,1.8423,1.8101,1.786,1.7845,1.7596,1.7355,1.7355,1.7293,1.7279,1.7279,1.7279,1.7279,1.7279,1.7279,1.7279,1.7279,1.7279,1.7279,1.7279,1.7279,1.7279,1.7279,1.7279,1.7216,1.6954,1.691,1.752,1.9007,1.876,1.9291,2.107,2.083,2.0625,2.0605,2.078,2.0867,2.0867,2.1099,2.1282,2.1474,2.1512,2.1617,2.1769,2.1807,2.1807,0.7649,0.7669,0.7784,0.7869,0.7914,0.791,0.8049,0.7923,0.7751,0.7821,0.7577,0.7305,0.7159,0.7494,0.0,0.7634,0.8373,0.0,0.9084,0.9632,0.0,0.9661,0.0,0.9969,0.9657,0.9868,1.0026,1.0026,1.0245,1.0465,1.0676,1.0692,1.0692,1.0692,1.15,1.2363,1.3221,1.5535,1.6988,1.7582,1.7582,1.7582,1.7582,1.7582,1.7582,1.7582,1.7582,1.7582,1.7582,1.7582,1.7582,1.7635,1.7799,1.7964,1.8069,1.8496,1.8764,1.8921,1.9227,1.9279,1.9279,1.9279,1.9279,1.9257,1.9177,1.9147,1.9081,1.876,1.8606,1.8482,1.824,1.7933,1.7691,1.7691,1.7461,1.7279,1.7279,1.7279,1.7279,1.7279,1.7279,1.7279,1.7279,1.7279,1.7279,1.7279,1.7279,1.7279,1.7279,1.7279,1.725,1.7216,1.6996,1.7619,1.9328,1.9153,1.9576,2.1089,2.1083,2.0918,2.0615,2.0644,2.0693,2.0693,2.0858,2.0984,2.1061,2.1359,2.154,2.1578,2.1731,2.1807,0.7523,0.7538,0.7588,0.768,0.7585,0.7516,0.7662,0.7454,0.7223,0.7203,0.6948,0.0,0.6551,0.6898,0.0,0.0,0.0,0.0,0.9263,0.9742,1.0054,0.0,1.027,0.0,1.0115,1.0278,1.0396,1.0396,1.0396,1.0481,1.068,1.0692,1.0692,1.0692,1.1341,1.2417,1.4078,1.5908,1.71,1.7582,1.7582,1.7582,1.7582,1.7582,1.7582,1.7582,1.7582,1.7582,1.7582,1.7582,1.7582,1.7635,1.7747,1.7799,1.7859,1.8338,1.86,1.8705,1.9018,1.9175,1.9279,1.9279,1.9279,1.9279,1.9279,1.9279,1.9242,1.9052,1.8899,1.8752,1.8562,1.8277,1.8028,1.8028,1.7779,1.7545,1.7545,1.7381,1.7279,1.7279,1.7279,1.7279,1.7279,1.7279,1.7279,1.7279,1.7279,1.7279,1.7279,1.7279,1.7279,1.7279,1.7172,1.7652,1.9126,1.9274,1.977,2.0778,2.1086,2.1083,2.0869,2.0859,2.0859,2.0859,2.0987,2.0977,2.0906,2.1205,2.1397,2.1512,2.1937,2.2108,0.7617,0.7407,0.7146,0.7439,0.7168,0.6947,0.7247,0.6893,0.6501,0.6389,0.0,0.609,0.5884,0.616,0.6561,0.7102,0.0,0.8398,0.9506,0.9791,1.0087,1.0627,1.0692,1.0692,1.0692,1.0692,1.0692,1.0692,1.0692,1.0692,1.0692,1.0852,1.1067,1.1391,1.1396,1.2417,1.4561,1.5589,1.6611,1.7582,1.7582,1.7582,1.7582,1.7582,1.7582,1.7582,1.7582,1.7582,1.7582,1.7582,1.7582,1.7582,1.7582,1.7582,1.7635,1.7957,1.822,1.8422,1.881,1.913,1.9279,1.9279,1.9279,1.9279,1.9279,1.9279,1.9279,1.9279,1.9074,1.8855,1.8855,1.8613,1.8364,1.8364,1.8086,1.7816,1.7816,1.756,1.7279,1.7279,1.7279,1.7279,1.7279,1.7279,1.7279,1.7279,1.7279,1.7279,1.7279,1.7279,1.7279,1.7279,1.7279,1.7692,1.8696,1.9232,1.9773,2.0434,2.0926,2.1215,2.1278,2.1278,2.1278,2.1278,2.1278,2.1222,2.1046,2.127,2.1454,2.1657,2.228,2.2594,0.7934,0.7578,0.717,0.7344,0.7078,0.6747,0.6877,0.6522,0.0,0.0,0.6086,0.5876,0.5693,0.6075,0.6561,0.7102,0.0,0.0,0.0,0.0,1.0087,0.0,1.0692,1.0692,1.0692,1.0692,1.0692,1.0692,1.0692,1.0692,1.0692,1.161,1.3009,1.4948,1.5001,1.5642,1.6988,1.7206,1.7417,1.7582,1.7582,1.7582,1.7582,1.7582,1.7582,1.7582,1.7582,1.7582,1.7582,1.7582,1.7582,1.7582,1.7582,1.7582,1.7635,1.816,1.837,1.8475,1.9011,1.9279,1.9279,1.9279,1.9279,1.9279,1.9279,1.9279,1.9279,1.9279,1.9235,1.9191,1.9191,1.895,1.8701,1.8701,1.8247,1.7816,1.7816,1.756,1.7279,1.7279,1.7279,1.7279,1.7279,1.7279,1.7279,1.7279,1.7279,1.7279,1.7279,1.7279,1.7279,1.7279,1.7279,1.7692,1.8696,1.887,1.9544,2.0896,2.1072,2.1311,2.1746,2.1777,2.1777,2.1777,2.1777,2.1779,2.1742,2.2099,2.2291,2.2332,2.2827,2.307,0.793,0.7556,0.7112,0.7234,0.6973,0.6661,0.6432,0.0,0.0,0.0,0.5607,0.5555,0.5466,0.0,0.0,0.0,0.0,0.0,0.0,0.0,0.0,0.0,0.0,1.0692,0.0,1.0692,1.0692,1.0692,1.0692,1.0962,1.1555,1.2684,1.3814,1.4942,1.5589,1.618,1.6717,1.7312,1.7582,1.7582,1.7582,1.7582,1.7582,1.7582,1.7582,1.7582,1.7582,1.7582,1.7582,1.7582,1.7582,1.7582,1.7582,1.7582,1.7635,1.8213,1.8422,1.8475,1.9116,1.9279,1.9279,1.9279,1.9279,1.9279,1.9279,1.9279,1.9279,1.9279,1.9279,1.9279,1.9279,1.9162,1.9038,1.9038,1.8547,1.8021,1.7852,1.756,1.7279,1.7279,1.7279,1.7279,1.7279,1.7279,1.7279,1.7279,1.7279,1.7279,1.7279,1.7279,1.7279,1.7279,1.7279,1.7512,1.7963,1.8519,1.9228,2.0246,2.0795,2.1413,2.2175,2.2207,2.2207,2.2207,2.2207,2.21,2.1885,2.2205,2.241,2.2523,2.3094,2.3412,0.7842,0.7476,0.7102,0.7136,0.6895,0.6504,0.6148,0.5866,0.0,0.0,0.5215,0.5297,0.5297,0.0,0.0,0.0,0.0,0.0,0.0,0.0,0.0,0.0,0.0,0.0,1.0692,1.0692,1.0802,1.1072,1.1555,1.2096,1.2738,1.3868,1.462,1.4835,1.5749,1.6234,1.6234,1.7147,1.7582,1.7582,1.7582,1.7582,1.7582,1.7582,1.7582,1.7582,1.7582,1.7582,1.7582,1.7582,1.7582,1.7582,1.7582,1.7582,1.7635,1.8213,1.8422,1.8475,1.9116,1.9279,1.9279,1.9279,1.9279,1.9279,1.9279,1.9279,1.9279,1.9279,1.9279,1.9279,1.9279,1.9279,1.9257,1.9184,1.8782,1.8299,1.7904,1.7611,1.7366,1.7293,1.7279,1.7279,1.7279,1.7279,1.7279,1.7279,1.7279,1.7279,1.7279,1.7279,1.7279,1.7279,1.7279,1.7279,1.7279,1.801,1.876,1.9376,2.0342,2.1323,2.2294,2.2518,2.2646,2.2646,2.2646,2.248,2.2158,2.2399,2.2597,2.2773,2.3418,2.3844,0.7717,0.7424,0.7129,0.7316,0.6863,0.6329,0.6201,0.0,0.0,0.5294,0.5297,0.5297,0.5297,0.5325,0.0,0.0,0.0,0.0,0.0,0.0,0.0,0.0,0.0,0.0,1.0692,1.0692,1.1122,1.2146,1.4245,1.5001,1.4024,1.5102,1.6234,1.7259,1.7364,1.7424,1.7424,1.7529,1.7582,1.7582,1.7582,1.7582,1.7582,1.7582,1.7582,1.7582,1.7582,1.7582,1.7582,1.7582,1.7582,1.7582,1.7582,1.7582,1.7635,1.8213,1.8422,1.8475,1.9116,1.9279,1.9279,1.9279,1.9279,1.9279,1.9279,1.9279,1.9279,1.9279,1.9279,1.9279,1.9279,1.9279,1.9199,1.8906,1.8789,1.8577,1.7947,1.7794,1.7684,1.7337,1.7279,1.7279,1.7279,1.7279,1.7279,1.7279,1.7279,1.7279,1.7279,1.7279,1.7279,1.7279,1.7279,1.7279,1.7279,1.7372,1.7863,1.8786,1.9782,2.0729,2.1728,2.2585,2.3033,2.3033,2.3033,2.3023,2.2984,2.3461,2.3677,2.3677,2.42,2.4435,0.7433,0.7295,0.7109,0.7217,0.6807,0.6362,0.6146,0.0,0.5453,0.5222,0.5242,0.5297,0.5297,0.5297,0.5462,0.0,0.6063,0.6513,0.7931,0.0,0.0,0.0,1.0217,0.0,0.0,1.0692,1.1177,1.2309,1.4567,1.5695,1.5209,1.6287,1.7153,1.7582,1.7582,1.7582,1.7582,1.7582,1.7582,1.7582,1.7582,1.7582,1.7582,1.7582,1.7582,1.7582,1.7582,1.7582,1.7582,1.7582,1.7582,1.7582,1.7582,1.7694,1.7905,1.8265,1.8534,1.8757,1.9175,1.9279,1.9279,1.9279,1.9279,1.9279,1.9279,1.9279,1.9279,1.9279,1.9279,1.9279,1.9279,1.9279,1.9294,1.9111,1.8935,1.8716,1.846,1.8094,1.7779,1.7647,1.7465,1.7279,1.7279,1.7172,1.7106,1.7304,1.7165,1.7113,1.7257,1.7279,1.7279,1.7279,1.7279,1.7279,1.7279,1.7279,1.7738,1.875,1.9695,2.0647,2.165,2.2599,2.3091,2.3091,2.3091,2.3091,2.3091,2.3266,2.3537,2.3797,2.397,2.4229,0.7087,0.7096,0.7034,0.7034,0.6742,0.6369,0.0,0.5759,0.5472,0.5226,0.5242,0.5352,0.554,0.5434,0.5465,0.0,0.5914,0.6241,0.7404,0.0,0.0,0.0,0.0,1.0515,1.0559,1.1276,1.2041,1.2847,1.5102,1.6399,1.6399,1.7153,1.7582,1.7582,1.7582,1.7582,1.7582,1.7582,1.7582,1.7582,1.7582,1.7582,1.7582,1.7582,1.7582,1.7582,1.7582,1.7582,1.7582,1.7582,1.7582,1.7582,1.7582,1.7747,1.8016,1.8325,1.8593,1.8921,1.9227,1.9279,1.9279,1.9279,1.9279,1.9279,1.9279,1.9279,1.9279,1.9279,1.9279,1.9279,1.9279,1.9279,1.9279,1.9279,1.9103,1.8906,1.8811,1.835,1.7933,1.7838,1.7552,1.7279,1.7279,1.7143,1.704,1.7172,1.7077,1.704,1.7172,1.7267,1.7279,1.7279,1.7279,1.7279,1.7279,1.7279,1.7606,1.8288,1.9513,2.0503,2.1239,2.2457,2.3091,2.3091,2.3091,2.3091,2.3091,2.3188,2.3406,2.3797,2.3884,2.4153,0.6705,0.6814,0.6886,0.6886,0.6593,0.626,0.0,0.5693,0.5374,0.5318,0.5297,0.5485,0.6073,0.57,0.5489,0.6109,0.6306,0.6538,0.6947,0.8676,0.0,0.0,0.0,1.0981,1.0304,1.2544,1.4078,1.4083,1.6287,1.7582,1.7582,1.7582,1.7582,1.7582,1.7582,1.7582,1.7582,1.7582,1.7582,1.7582,1.7582,1.7582,1.7582,1.7582,1.7582,1.7582,1.7582,1.7582,1.7582,1.7582,1.7582,1.7582,1.7582,1.7747,1.8016,1.8325,1.8593,1.8921,1.9227,1.9279,1.9279,1.9279,1.9279,1.9279,1.9279,1.9279,1.9279,1.9279,1.9279,1.9279,1.9279,1.9279,1.9279,1.9279,1.9324,1.9184,1.8855,1.8525,1.8203,1.7874,1.7552,1.7279,1.7279,1.7279,1.7216,1.6954,1.7121,1.7208,1.6947,1.7135,1.7279,1.7279,1.7279,1.7279,1.7279,1.7279,1.7279,1.7326,1.9147,2.0187,2.0232,2.205,2.3091,2.3091,2.3091,2.3091,2.3091,2.3373,2.358,2.3797,2.4067,2.4292,0.6186,0.6197,0.6249,0.6183,0.619,0.6127,0.5793,0.5778,0.5719,0.5373,0.5622,0.5968,0.6154,0.6046,0.6145,0.6843,0.675,0.0,0.0,0.0,0.0,0.9277,1.0921,1.194,1.1737,1.3891,1.5322,1.5322,1.6717,1.7582,1.7582,1.7582,1.7582,1.7582,1.7582,1.7582,1.7582,1.7582,1.7582,1.7582,1.7582,1.7582,1.7582,1.7582,1.7582,1.7582,1.7582,1.7582,1.7582,1.7582,1.7582,1.7582,1.7582,1.7898,1.8272,1.837,1.8743,1.9175,1.9272,1.9279,1.9279,1.9279,1.9279,1.9279,1.9279,1.9279,1.9279,1.9279,1.9279,1.9279,1.9279,1.9279,1.9279,1.9279,1.9279,1.925,1.9147,1.8869,1.854,1.8211,1.7882,1.7589,1.7315,1.715,1.7047,1.7165,1.7077,1.7047,1.7165,1.7267,1.7279,1.7279,1.7279,1.7279,1.7279,1.7279,1.7279,1.7279,1.9101,2.0187,2.0187,2.205,2.3091,2.3091,2.3091,2.3091,2.3091,2.3188,2.3406,2.3797,2.4067,2.4292,0.0,0.5783,0.5876,0.6022,0.6147,0.6119,0.588,0.5909,0.5873,0.5389,0.5782,0.6263,0.6507,0.6344,0.643,0.7176,0.6855,0.0,0.0,0.0,0.0,1.0637,0.0,1.2428,1.2934,1.4731,1.5914,1.5914,1.6935,1.7582,1.7582,1.7582,1.7582,1.7582,1.7582,1.7582,1.7582,1.7582,1.7582,1.7582,1.7582,1.7582,1.7582,1.7582,1.7582,1.7582,1.7582,1.7582,0.0,1.7582,1.7582,1.7582,1.7582,1.795,1.8422,1.8422,1.8795,1.9279,1.9279,1.9279,1.9279,1.9279,1.9279,1.9279,1.9279,1.9279,1.9279,1.9279,1.9279,1.9279,1.9279,1.9279,1.9279,1.9279,1.9279,1.9279,1.9279,1.9023,1.873,1.8525,1.8123,1.775,1.7498,1.7245,1.7062,1.7135,1.7084,1.7062,1.7135,1.7252,1.7279,1.7279,1.7279,1.7279,1.7279,1.7279,1.7279,1.7279,1.9101,2.0187,2.0187,2.205,2.3091,2.3091,2.3091,2.3091,2.3091,2.3188,2.345,2.3797,2.4067,2.4292,0.0,0.5614,0.5723,0.6274,0.6353,0.6245,0.619,0.6119,0.0,0.5467,0.5837,0.6463,0.7095,0.6705,0.6543,0.7401,0.6835,0.0,0.0,0.9632,0.0,0.0,1.2496,1.2645,1.3803,1.5188,1.6021,1.6021,1.6988,1.7582,1.7582,1.7582,1.7582,1.7582,1.7582,1.7582,1.7582,1.7582,1.7582,1.7582,1.7582,1.7582,1.7582,1.7582,1.7582,1.7582,1.7582,1.7582,1.7582,1.7582,1.7582,1.7582,1.7635,1.795,1.8422,1.8422,1.8795,1.9279,1.9279,1.9279,1.9279,1.9279,1.9279,1.9279,1.9279,1.9279,1.9279,1.9279,1.9279,1.9279,1.9279,1.9279,1.9279,1.9279,1.9279,1.9279,1.9279,1.9038,1.8818,1.8789,1.8299,1.7874,1.7852,1.7582,1.726,1.7013,1.7157,1.7223,1.6969,1.715,1.7279,1.7279,1.7279,1.7279,1.7279,1.7279,1.7279,1.7279,1.9055,2.0141,2.0187,2.2006,2.3047,2.3091,2.3091,2.3091,2.3091,2.3363,2.358,2.3797,2.4067,2.4292,0.6034,0.0,0.5588,0.5598,0.633,0.6841,0.0,0.6313,0.6566,0.0,0.0,0.7187,0.82,0.7655,0.7621,0.9461,0.0,0.8036,1.0435,0.0,0.0,1.2529,1.3996,1.4741,1.4104,1.5978,1.7206,1.7206,1.747,1.7582,1.7582,1.7582,1.7582,1.7582,1.7582,1.7582,1.7582,1.7582,1.7582,1.7582,1.7582,1.7582,1.7582,1.7582,1.7582,1.7582,1.7582,1.7582,1.7582,1.7582,1.7582,1.7635,1.7852,1.8115,1.8422,1.8698,1.9018,1.9279,1.9279,1.9279,1.9279,1.9279,1.9279,1.9279,1.9279,1.9279,1.9279,1.9279,1.9279,1.9279,1.9279,1.9279,1.9279,1.9279,1.9279,1.9279,1.9279,1.9213,1.9089,1.884,1.8664,1.8482,1.8233,1.7918,1.7677,1.7596,1.7435,1.7304,1.7223,1.7282,1.7279,1.7279,1.7279,1.7279,1.7279,1.7279,1.7279,1.7279,1.8473,1.9467,2.0187,2.1373,2.2378,2.3101,2.3091,2.3091,2.3091,2.3144,2.3406,2.3797,2.3841,2.411,0.5964,0.589,0.6094,0.6262,0.6899,0.7345,0.6877,0.0,0.0,0.0,0.0,0.7372,0.8221,0.8176,0.0,0.0,0.8975,0.0,0.0,0.0,1.3244,1.3949,1.462,1.5263,1.5636,1.6823,1.7582,1.7582,1.7582,1.7582,1.7582,1.7582,1.7582,1.7582,1.7582,1.7582,1.7582,1.7582,1.7582,1.7582,1.7582,1.7582,1.7582,1.7582,1.7582,1.7582,1.7582,1.7582,1.7582,1.7582,1.7582,1.7635,1.7747,1.7957,1.822,1.8443,1.8757,1.9123,1.9123,1.9175,1.9279,1.9279,1.9279,1.9279,1.9279,1.9279,1.9279,1.9279,1.9279,1.9279,1.9279,1.9279,1.9279,1.9279,1.9279,1.9279,1.9279,1.9279,1.9272,1.9045,1.8891,1.873,1.8555,1.8255,1.7991,1.7838,1.7662,1.7454,1.7301,1.7279,1.7279,1.7279,1.7279,1.7279,1.7279,1.7279,1.7279,1.7279,1.8241,1.9018,1.9559,2.0917,2.2148,2.3091,2.3091,2.3091,2.3091,2.3091,2.3353,2.3797,2.3797,2.4057,0.6055,0.6356,0.6916,0.7363,0.7621,0.7807,0.7926,0.0,0.0,0.0,0.0,0.0,0.0,0.857,0.0,0.0,0.0,0.0,1.2662,1.3214,1.4089,1.5724,1.5156,1.537,1.7153,1.7477,1.7582,1.7582,1.7582,1.7582,1.7582,1.7582,1.7582,1.7582,1.7582,1.7582,1.7582,1.7582,1.7582,1.7582,1.7582,1.7582,1.7582,1.7582,1.7582,1.7582,1.7582,1.7582,1.7582,1.7582,1.7582,1.7582,1.7635,1.7799,1.8016,1.8128,1.8443,1.8928,1.8921,1.913,1.9279,1.9279,1.9279,1.9279,1.9279,1.9279,1.9279,1.9279,1.9279,1.9279,1.9279,1.9279,1.9279,1.9279,1.9279,1.9279,1.9279,1.9279,1.9279,1.9279,1.9052,1.8862,1.8862,1.8591,1.8284,1.8006,1.7918,1.7786,1.7508,1.7432,1.741,1.7359,1.7399,1.7384,1.7286,1.7279,1.7279,1.7279,1.811,1.8696,1.9018,2.0737,2.2148,2.3091,2.3091,2.3091,2.3091,2.3091,2.3319,2.3754,2.3797,2.4024,0.7334,0.7587,0.7721,0.7395,0.774,0.8137,0.8158,0.0,0.0,0.0,0.0,0.0,0.0,0.9332,0.9029,0.0,0.0,1.3338,1.4111,1.5525,1.6368,1.5925,1.6611,1.6823,1.624,1.7041,1.7582,1.7582,1.7582,1.7582,1.7582,1.7582,1.7582,1.7582,1.7582,1.7582,1.7582,1.7582,1.7582,1.7582,1.7582,1.7582,1.7582,1.7582,1.7582,1.7582,1.7582,1.7582,1.7582,1.7582,1.7582,1.7635,1.7859,1.7964,1.8069,1.8555,1.8817,1.8921,1.9175,1.9279,1.9279,1.9279,1.9279,1.9279,1.9279,1.9279,1.9279,1.9279,1.9279,1.9279,1.9279,1.9279,1.9279,1.9279,1.9279,1.9279,1.9279,1.9279,1.9279,1.9279,1.9235,1.9199,1.9199,1.8935,1.8694,1.865,1.8401,1.8211,1.816,1.8152,1.805,1.7772,1.7743,1.7625,1.7308,1.7279,1.7279,1.7279,1.7419,1.8288,1.9914,2.1105,2.2148,2.3091,2.3091,2.3091,2.3091,2.3091,2.3232,2.3547,2.3711,2.398,0.7211,0.7849,0.837,0.8153,0.8451,0.888,0.9253,0.0,0.0,0.0,0.0,0.0,0.0,0.0,1.1193,1.3007,0.0,1.4158,1.574,1.5985,1.6189,1.6725,1.6717,1.6723,1.6829,1.7312,1.7582,1.7582,1.7582,1.7582,1.7582,1.7582,1.7582,1.7582,1.7582,1.7582,1.7582,1.7582,1.7582,1.7582,1.7582,1.7582,1.7582,1.7582,1.7582,1.7582,1.7582,1.7582,1.7582,1.7582,1.7582,1.7635,1.7747,1.7799,1.7852,1.8436,1.8646,1.8698,1.9116,1.9279,1.9279,1.9279,1.9279,1.9279,1.9279,1.9279,1.9279,1.9279,1.9279,1.9279,1.9279,1.9279,1.9279,1.9279,1.9279,1.9279,1.9279,1.9279,1.9279,1.9279,1.9279,1.9279,1.9279,1.9147,1.8994,1.8818,1.8664,1.8503,1.8328,1.8299,1.8247,1.8094,1.7918,1.7757,1.7604,1.7381,1.7279,1.7279,1.7279,1.8195,2.0096,2.0638,2.1596,2.3047,2.3091,2.3091,2.3091,2.3091,2.3232,2.3503,2.3711,2.3937,0.7186,0.7898,0.8592,0.8956,0.9058,0.9328,1.0257,1.011,0.0,0.0,0.0,0.0,0.0,1.1686,0.0,1.4682,1.4385,1.4675,1.6773,1.6241,1.6086,1.7417,1.6829,1.6664,1.7529,1.7582,1.7582,1.7582,1.7582,1.7582,1.7582,1.7582,1.7582,1.7582,1.7582,1.7582,1.7582,1.7582,1.7582,1.7582,1.7582,1.7582,1.7582,1.7582,1.7582,1.7582,1.7582,1.7582,1.7582,1.7582,1.7582,1.7582,1.7582,1.7687,1.7845,1.8265,1.8475,1.8691,1.9116,1.9279,1.9279,1.9279,1.9279,1.9279,1.9279,1.9279,1.9279,1.9279,1.9279,1.9279,1.9279,1.9279,1.9279,1.9279,1.9279,1.9279,1.9279,1.9279,1.9279,1.9279,1.9279,1.9279,1.9279,1.9279,1.9191,1.8942,1.8906,1.8811,1.8562,1.8525,1.8503,1.8423,1.8196,1.7984,1.783,1.7468,1.7279,1.7279,1.7512,1.8419,2.0141,2.0413,2.1364,2.3057,2.3091,2.3091,2.3091,2.3091,2.3188,2.3406,2.3667,2.3927,0.8217,0.8096,0.8026,0.9396,0.9088,0.0,1.0581,1.0461,0.0,1.0755,0.0,0.0,0.0,1.1679,1.2596,1.3566,1.436,1.5257,1.653,1.7136,1.7483,1.7575,1.7529,1.7529,1.7582,1.7582,1.7582,1.7582,1.7582,1.7582,1.7582,1.7582,1.7582,1.7582,1.7582,1.7582,1.7582,1.7582,1.7582,1.7582,1.7582,1.7582,1.7582,1.7582,1.7582,1.7582,1.7582,1.7582,1.7582,1.7582,1.7582,1.7582,1.7582,1.7898,1.837,1.837,1.8743,1.922,1.9279,1.9279,1.9279,1.9279,1.9279,1.9279,1.9279,1.9279,1.9279,1.9279,1.9279,1.9279,1.9279,1.9279,1.9279,1.9279,1.9279,1.9279,1.9279,1.9279,1.9279,1.9279,1.9279,1.9279,1.9279,1.9279,1.9264,1.9294,1.9242,1.9287,1.9206,1.9206,1.9089,1.8789,1.873,1.8474,1.7867,1.7468,1.7279,1.7279,1.8195,1.9147,2.0141,2.1105,2.205,2.3091,2.3091,2.3091,2.3091,2.3091,2.3101,2.3144,2.358,2.3797,0.7907,0.8496,0.9061,0.9687,0.9936,0.0,0.0,1.1624,1.1904,1.1706,1.2588,0.0,0.0,0.0,1.4256,1.5155,1.5564,1.6097,1.7103,1.7442,1.7582,1.7582,1.7582,1.7582,1.7582,1.7582,1.7582,1.7582,1.7582,1.7582,1.7582,1.7582,1.7582,1.7582,1.7582,1.7582,1.7582,1.7582,1.7582,1.7582,1.7582,1.7582,1.7582,1.7582,1.7582,1.7582,1.7582,1.7582,1.7582,1.7582,1.7582,1.7582,1.7582,1.774,1.7898,1.8115,1.8377,1.8743,1.8966,1.9175,1.9279,1.9279,1.9279,1.9279,1.9279,1.9279,1.9279,1.9279,1.9279,1.9279,1.9279,1.9279,1.9279,1.9279,1.9279,1.9279,1.9279,1.9279,1.9279,1.9279,1.9279,1.9279,1.9279,1.9279,1.9279,1.9279,1.9279,1.9279,1.9279,1.9279,1.9228,1.9103,1.8913,1.8606,1.8152,1.7816,1.7863,1.8518,1.8683,1.9239,2.0141,2.115,2.2148,2.3091,2.3091,2.3091,2.3091,2.3091,2.3091,2.3091,2.357,2.3797,0.7779,0.8611,0.9497,0.988,0.0,0.0,1.1822,1.2552,1.2949,1.2529,1.313,1.3965,1.4566,0.0,1.5296,1.6181,1.6346,1.668,1.7475,1.7582,1.7582,1.7582,1.7582,1.7582,1.7582,1.7582,1.7582,1.7582,1.7582,1.7582,1.7582,1.7582,1.7582,1.7582,1.7582,1.7582,1.7582,1.7582,1.7582,1.7582,1.7582,1.7582,1.7582,1.7582,1.7582,1.7582,1.7582,1.7582,1.7582,1.7582,1.7582,1.7582,1.7582,1.7635,1.7747,1.7911,1.8227,1.8593,1.8817,1.9078,1.9279,1.9279,1.9279,1.9279,1.9279,1.9279,1.9279,1.9279,1.9279,1.9279,1.9279,1.9279,1.9279,1.9279,1.9279,1.9279,1.9279,1.9279,1.9279,1.9279,1.9279,1.9279,1.9279,1.9279,1.9279,1.9279,1.9279,1.9279,1.9279,1.9279,1.9279,1.9279,1.8986,1.8701,1.8474,1.8439,1.8674,1.9281,1.9687,2.0132,2.0647,2.1596,2.2457,2.3101,2.3091,2.3091,2.3091,2.3091,2.3091,2.3091,2.357,2.3797,0.8037,0.841,0.9031,0.0,0.0,0.0,1.2946,1.2999,1.2883,1.3065,1.3103,1.3497,1.4776,1.5015,1.5303,1.6181,1.652,1.6907,1.7502,1.7582,1.7582,1.7582,1.7582,1.7582,1.7582,1.7582,1.7582,1.7582,1.7582,1.7582,1.7582,1.7582,1.7582,1.7582,1.7582,1.7582,1.7582,1.7582,1.7582,1.7582,1.7582,1.7582,1.7582,1.7582,1.7582,1.7582,1.7582,1.7582,1.7582,1.7582,1.7582,1.7582,1.7582,1.7747,1.8016,1.8016,1.8391,1.8869,1.8869,1.9071,1.9279,1.9279,1.9279,1.9279,1.9279,1.9279,1.9279,1.9279,1.9279,1.9279,1.9279,1.9279,1.9279,1.9279,1.9279,1.9279,1.9279,1.9279,1.9279,1.9279,1.9279,1.9279,1.9279,1.9279,1.9279,1.9279,1.9279,1.9279,1.9279,1.9279,1.9279,1.9279,1.8986,1.8796,1.884,1.9509,1.9734,1.9344,2.1232,2.2107,2.1713,2.2599,2.3091,2.3091,2.3091,2.3091,2.3091,2.3091,2.3091,2.3091,2.357,2.3797,0.8657,0.9357,0.0,1.0868,0.0,0.0,0.0,1.3921,0.0,0.0,1.4456,1.4238,1.5101,1.5438,1.5725,1.6199,1.652,1.6907,1.7502,1.7582,1.7582,1.7582,1.7582,1.7582,1.7582,1.7582,1.7582,1.7582,1.7582,1.7582,1.7582,1.7582,1.7582,1.7582,1.7582,1.7582,1.7582,1.7582,1.7582,1.7582,1.7582,1.7582,1.7582,1.7582,1.7582,1.7582,1.7582,1.7582,1.7582,1.7582,1.7582,1.7582,1.7582,1.7635,1.7747,1.7747,1.7957,1.8286,1.8482,1.875,1.9026,1.9227,1.9279,1.9279,1.9279,1.9279,1.9279,1.9279,1.9279,1.9279,1.9279,1.9279,1.9279,1.9279,1.9279,1.9279,1.9279,1.9279,1.9279,1.9279,1.9279,1.9279,1.9279,1.9279,1.9279,1.9279,1.9279,1.9279,1.9279,1.9279,1.9279,1.9279,1.9191,1.9486,2.0233,2.0258,2.0835,2.2188,2.2586,2.2456,2.1722,2.2599,2.3091,2.3091,2.3091,2.3091,2.3091,2.3091,2.3091,2.3091,2.357,2.3797,0.9103,0.997,0.0,1.1597,1.2681,1.3773,1.4462,0.0,0.0,0.0,1.5212,1.4927,1.5438,1.5618,1.5792,1.6206,1.642,1.674,1.738,1.746,1.7507,1.7569,1.7582,1.7582,1.7582,1.7582,1.7582,1.7582,1.7582,1.7582,1.7582,1.7582,1.7582,1.7582,1.7582,1.7582,1.7582,1.7582,1.7582,1.7582,1.7582,1.7582,1.7582,1.7582,1.7582,1.7582,1.7582,1.7582,1.7582,1.7582,1.7582,1.7582,1.7582,1.7582,1.7582,1.7582,1.7747,1.8016,1.8325,1.8593,1.8921,1.9227,1.9279,1.9279,1.9279,1.9279,1.9279,1.9279,1.9279,1.9279,1.9279,1.9279,1.9279,1.9279,1.9279,1.9279,1.9279,1.9279,1.9279,1.9279,1.9279,1.9279,1.9279,1.9279,1.9279,1.9279,1.9279,1.9279,1.9279,1.9279,1.9279,1.9279,1.9279,1.9732,2.0783,2.1083,2.1883,2.3414,2.37,2.3438,2.2563,2.3079,2.3276,2.3101,2.3091,2.3091,2.3091,2.3091,2.3091,2.3091,2.357,2.3797,0.9396,0.0,0.0,1.2124,1.306,0.0,1.5184,1.5438,1.5511,1.5724,0.0,1.5518,1.5785,1.5611,1.5618,1.6228,1.6321,1.6522,1.7079,1.7159,1.7259,1.7468,1.7502,1.7502,1.7502,1.7528,1.7542,1.7542,1.7569,1.7582,1.7582,1.7582,1.7582,1.7582,1.7582,1.7582,1.7582,1.7582,1.7582,1.7582,1.7582,1.7582,1.7582,1.7582,1.7582,1.7582,1.7582,1.7582,1.7582,1.7582,1.7582,1.7582,1.7582,1.7582,1.7582,1.7582,1.7747,1.8016,1.8325,1.8593,1.8921,1.9175,1.9279,1.9279,1.9279,1.9279,1.9279,1.9279,1.9279,1.9279,1.9279,1.9279,1.9279,1.9279,1.9279,1.9279,1.9279,1.9279,1.9279,1.9279,1.9279,1.9279,1.9279,1.9279,1.9279,1.9279,1.9279,1.9279,1.9279,1.9279,1.9279,1.9279,1.9376,1.9879,2.0936,2.2038,2.2944,2.368,2.4641,2.4766,2.3935,2.3828,2.3584,2.3101,2.3091,2.3091,2.3091,2.3091,2.3091,2.3091,2.357,2.3797,0.0,1.0629,0.0,0.0,1.3715,1.4863,1.5578,1.5684,1.5752,1.5764,1.5731,1.5752,1.5771,1.5731,1.5852,1.6261,1.6321,1.64,1.6754,1.68,1.682,1.6887,1.6894,1.6894,1.6894,1.7108,1.7293,1.7293,1.7507,1.7582,1.7582,1.7582,1.7582,1.7582,1.7582,1.7582,1.7582,1.7582,1.7582,1.7582,1.7582,1.7582,1.7582,1.7582,1.7582,1.7582,1.7582,1.7582,1.7582,1.7582,1.7582,1.7582,1.7582,1.7582,1.7582,1.7582,1.7635,1.774,1.8213,1.8422,1.8586,1.9116,1.9279,1.9279,1.9279,1.9279,1.9279,1.9279,1.9279,1.9279,1.9279,1.9279,1.9279,1.9279,1.9279,1.9279,1.9279,1.9279,1.9279,1.9279,1.9279,1.9279,1.9279,1.9279,1.9279,1.9279,1.9279,1.9279,1.9279,1.9279,1.9279,1.9279,2.0027,2.0979,2.2038,2.3135,2.4168,2.515,2.5441,2.5352,2.4814,2.415,2.3584,2.3101,2.3091,2.3091,2.3091,2.3091,2.3091,2.3091,2.357,2.3797,0.0,0.0,0.0,0.0,0.0,1.5162,1.5698,1.5784,1.5784,1.5784,1.5784,1.5784,1.5784,1.5784,1.5879,1.6039,1.6059,1.6166,1.646,1.65,1.6553,1.6687,1.6707,1.6707,1.6707,1.6847,1.6941,1.6941,1.7074,1.7161,1.7161,1.7161,1.7161,1.7161,1.7161,1.7235,1.7427,1.7427,1.7442,1.7582,1.7582,1.7582,1.7582,1.7582,1.7582,1.7582,1.7582,1.7582,1.7582,1.7582,1.7582,1.7582,1.7582,1.7582,1.7582,1.7582,1.7582,1.7687,1.8213,1.8422,1.8475,1.9116,1.9279,1.9279,1.9279,1.9279,1.9279,1.9279,1.9279,1.9279,1.9279,1.9279,1.9279,1.9279,1.9279,1.9279,1.9279,1.9279,1.9279,1.9279,1.9279,1.9279,1.9279,1.9279,1.9279,1.9279,1.9279,1.9279,1.9279,1.9732,1.9879,1.9324,2.0731,2.1887,2.2433,2.3493,2.455,2.5635,2.5693,2.5537,2.5135,2.4639,2.4102,2.3467,2.3457,2.3305,2.3091,2.3091,2.3091,2.3091,2.357,2.3797,0.0,0.0,0.0,0.0,0.0,0.0,1.5631,1.5792,1.5784,1.5784,1.5784,1.5784,1.5784,1.5784,1.5784,1.5784,1.5784,1.5912,1.6159,1.6192,1.6286,1.6526,1.6553,1.6553,1.6553,1.66,1.6627,1.6627,1.6673,1.6707,1.6707,1.6707,1.6707,1.6707,1.6707,1.682,1.7125,1.7125,1.7246,1.7428,1.7428,1.7455,1.7508,1.7508,1.7535,1.7582,1.7582,1.7582,1.7582,1.7582,1.7582,1.7582,1.7582,1.7582,1.7582,1.7582,1.7582,1.7687,1.8213,1.8422,1.8475,1.9116,1.9279,1.9279,1.9279,1.9279,1.9279,1.9279,1.9279,1.9279,1.9279,1.9279,1.9279,1.9279,1.9279,1.9279,1.9279,1.9279,1.9279,1.9279,1.9279,1.9279,1.9279,1.9279,1.9279,1.9279,1.9279,1.9383,1.9524,2.0328,2.0629,1.9931,2.1591,2.2785,2.2785,2.3741,2.4756,2.5635,2.5693,2.5566,2.5195,2.5185,2.4775,2.3916,2.3828,2.3574,2.3091,2.3091,2.3091,2.3091,2.357,2.3797,0.0,0.0,0.0,0.0,0.0,1.5095,0.0,0.0,1.5784,1.5784,1.5784,1.5784,1.5784,1.5784,1.5784,1.5784,1.5784,1.5798,1.5838,1.5885,1.5905,1.5945,1.5898,1.5898,1.5898,1.6179,1.6333,1.6333,1.6567,1.6707,1.6707,1.6707,1.6707,1.6707,1.6707,1.6727,1.6767,1.6767,1.678,1.682,1.682,1.6961,1.7259,1.7259,1.7393,1.7582,1.7582,1.7582,1.7582,1.7582,1.7582,1.7582,1.7582,1.7582,1.7582,1.7582,1.7582,1.7687,1.8213,1.8422,1.8475,1.9116,1.9279,1.9279,1.9279,1.9279,1.9279,1.9279,1.9279,1.9279,1.9279,1.9279,1.9279,1.9279,1.9279,1.9279,1.9279,1.9279,1.9279,1.9279,1.9279,1.9279,1.9279,1.9279,1.9279,1.9279,1.9279,1.9628,2.0585,2.0834,2.1183,2.1988,2.3135,2.389,2.389,2.4864,2.5538,2.5684,2.5693,2.5664,2.5596,2.5596,2.5234,2.4346,2.3975,2.3574,2.3091,2.3091,2.3091,2.3091,2.357,2.3797,0.9467,0.0,0.0,0.0,0.0,1.4633,1.505,0.0,1.5585,1.5585,1.5718,1.5784,1.5784,1.5784,1.5784,1.5784,1.5784,1.5784,1.5784,1.5784,1.5784,1.5784,1.5784,1.5784,1.5784,1.5945,1.6025,1.6025,1.6146,1.6219,1.6219,1.6219,1.6219,1.6219,1.6219,1.6293,1.646,1.6466,1.6547,1.6707,1.6707,1.6774,1.6907,1.7125,1.736,1.7582,1.7582,1.7582,1.7582,1.7582,1.7582,1.7582,1.7582,1.7582,1.7582,1.7582,1.7582,1.7687,1.8213,1.8422,1.8475,1.9116,1.9279,1.9279,1.9279,1.9279,1.9279,1.9279,1.9279,1.9279,1.9279,1.9279,1.9279,1.9279,1.9279,1.9279,1.9279,1.9279,1.9279,1.9279,1.9279,1.9279,1.9279,1.9279,1.9279,1.9279,1.9828,2.0388,2.0834,2.1937,2.2634,2.2484,2.3998,2.4756,2.4137,2.5069,2.5693,2.5693,2.5693,2.5693,2.5693,2.5693,2.5274,2.4434,2.4238,2.3809,2.3091,2.3091,2.3091,2.3101,2.345,2.3667,0.0,0.0,0.0,0.0,0.0,0.0,0.0,0.0,1.5197,1.5271,1.5518,1.5718,1.5718,1.5731,1.5784,1.5784,1.5784,1.5784,1.5784,1.5784,1.5784,1.5784,1.5784,1.5784,1.5784,1.5784,1.5784,1.5784,1.5784,1.5784,1.5784,1.5784,1.5784,1.5784,1.5784,1.5939,1.6159,1.6159,1.6273,1.648,1.648,1.6526,1.6607,1.6878,1.7139,1.7368,1.7515,1.7582,1.7582,1.7582,1.7582,1.7582,1.7582,1.7582,1.7582,1.7582,1.7582,1.7687,1.8213,1.8422,1.8475,1.9116,1.9279,1.9279,1.9279,1.9279,1.9279,1.9279,1.9279,1.9279,1.9279,1.9279,1.9279,1.9279,1.9279,1.9279,1.9279,1.9279,1.9279,1.9279,1.9279,1.9279,1.9279,1.9279,1.9279,1.9279,2.0233,2.0987,2.1285,2.2935,2.389,2.3352,2.4775,2.5382,2.455,2.5226,2.5693,2.5693,2.5693,2.5693,2.5693,2.5693,2.5371,2.46,2.4473,2.3949,2.3091,2.3091,2.3091,2.3101,2.3363,2.3634,0.0,0.0,0.0,0.0,0.0,0.0,0.0,0.0,1.4643,1.4975,1.5217,1.5418,1.5418,1.5645,1.5784,1.5784,1.5784,1.5784,1.5784,1.5784,1.5784,1.5784,1.5784,1.5784,1.5784,1.5784,1.5784,1.5784,1.5784,1.5784,1.5784,1.5784,1.5784,1.5784,1.5784,1.5791,1.5852,1.5852,1.5811,1.5872,1.5872,1.6019,1.6342,1.6362,1.6473,1.678,1.7341,1.7582,1.7582,1.7582,1.7582,1.7582,1.7582,1.7582,1.7582,1.7582,1.7582,1.7687,1.8213,1.8422,1.8475,1.9116,1.9279,1.9279,1.9279,1.9279,1.9279,1.9279,1.9279,1.9279,1.9279,1.9279,1.9279,1.9279,1.9279,1.9279,1.9279,1.9279,1.9279,1.9279,1.9279,1.9279,1.9279,1.9279,1.9279,1.9279,2.0233,2.1285,2.2291,2.3384,2.4452,2.543,2.5635,2.5684,2.5635,2.5684,2.5693,2.5693,2.5693,2.5693,2.5693,2.5693,2.5518,2.5086,2.4629,2.3949,2.3091,2.3091,2.3091,2.3101,2.3363,2.3634,0.0,0.0,0.0,0.0,1.1504,1.2031,1.2583,1.3333,1.3946,1.4095,1.4649,1.5117,1.5117,1.5504,1.5784,1.5784,1.5784,1.5784,1.5784,1.5784,1.5784,1.5784,1.5784,1.5784,1.5784,1.5784,1.5784,1.5784,1.5784,1.5784,1.5784,1.5784,1.5784,1.5784,1.5784,1.5784,1.5784,1.5784,1.5784,1.5784,1.5784,1.5838,1.5999,1.6186,1.6333,1.6446,1.6847,1.7128,1.7353,1.7353,1.7467,1.7582,1.7582,1.7582,1.7582,1.7582,1.7582,1.7687,1.8213,1.8422,1.8475,1.9116,1.9279,1.9279,1.9279,1.9279,1.9279,1.9279,1.9279,1.9279,1.9279,1.9279,1.9279,1.9279,1.9279,1.9279,1.9279,1.9279,1.9279,1.9279,1.9279,1.9279,1.9279,1.9279,1.9279,1.9279,2.0783,2.2089,2.2433,2.4057,2.5274,2.5635,2.5693,2.5693,2.5693,2.5693,2.5693,2.5693,2.5693,2.5693,2.5693,2.5693,2.5527,2.5125,2.4639,2.4131,2.3555,2.3227,2.3091,2.3101,2.3363,2.3634,0.7992,0.0,0.0,0.0,0.0,1.0916,1.1973,1.2625,1.312,1.352,1.4188,1.4747,1.4796,1.5211,1.5571,1.5665,1.5718,1.5784,1.5784,1.5784,1.5784,1.5784,1.5784,1.5784,1.5784,1.5784,1.5784,1.5784,1.5784,1.5784,1.5784,1.5784,1.5784,1.5784,1.5784,1.5784,1.5784,1.5784,1.5784,1.5784,1.5784,1.5784,1.5791,1.6032,1.6126,1.6132,1.6326,1.6633,1.7058,1.7159,1.7313,1.7442,1.7542,1.7582,1.7582,1.7582,1.7641,1.7799,1.8167,1.8377,1.8639,1.9018,1.9227,1.9279,1.9279,1.9279,1.9279,1.9279,1.9279,1.9279,1.9279,1.9279,1.9279,1.9279,1.9279,1.9279,1.9279,1.9279,1.9279,1.9279,1.9279,1.9279,1.9279,1.9576,1.9828,1.9828,2.1633,2.3035,2.3035,2.4618,2.5693,2.5693,2.5693,2.5693,2.5693,2.5693,2.5693,2.5693,2.5693,2.5693,2.5693,2.5693,2.5547,2.5293,2.4863,2.4424,2.4004,2.3374,2.3091,2.3101,2.3363,2.3757,0.0,0.0,0.0,0.0,0.0,0.0,1.2161,1.2254,1.2164,1.3287,1.3814,1.4128,1.4429,1.473,1.5075,1.5324,1.5618,1.5764,1.5764,1.5778,1.5784,1.5784,1.5784,1.5784,1.5784,1.5784,1.5784,1.5784,1.5784,1.5784,1.5784,1.5784,1.5784,1.5784,1.5784,1.5784,1.5784,1.5784,1.5784,1.5784,1.5784,1.5784,1.5784,1.5784,1.5784,1.5784,1.5784,1.6152,1.67,1.7052,1.7186,1.7233,1.7514,1.7575,1.7582,1.7582,1.7747,1.8016,1.8016,1.8391,1.8921,1.8921,1.9078,1.9279,1.9279,1.9279,1.9279,1.9279,1.9279,1.9279,1.9279,1.9279,1.9279,1.9279,1.9279,1.9279,1.9279,1.9279,1.9279,1.9279,1.9279,1.9324,1.9324,2.0233,2.0936,2.0936,2.2743,2.4088,2.4088,2.502,2.5693,2.5693,2.5693,2.5693,2.5693,2.5693,2.5693,2.5693,2.5693,2.5693,2.5693,2.5693,2.5693,2.5693,2.5293,2.4863,2.4434,2.353,2.311,2.3101,2.3382,2.4035,0.7815,0.0,0.0,0.0,0.0,0.0,1.003,1.0581,1.1109,1.1617,1.2298,1.2953,1.3474,1.3988,1.4429,1.4716,1.519,1.5518,1.5518,1.5698,1.5784,1.5784,1.5784,1.5784,1.5784,1.5784,1.5784,1.5784,1.5784,1.5784,1.5784,1.5784,1.5784,1.5784,1.5784,1.5784,1.5784,1.5784,1.5784,1.5784,1.5784,1.5784,1.5784,1.5784,1.5784,1.5784,1.5784,1.5871,1.6044,1.6393,1.6817,1.7206,1.7293,1.7454,1.7582,1.7582,1.7747,1.8016,1.8016,1.8391,1.8921,1.8921,1.9078,1.9279,1.9279,1.9279,1.9279,1.9279,1.9279,1.9279,1.9279,1.9279,1.9279,1.9279,1.9279,1.9279,1.9279,1.9279,1.9279,1.9279,1.9279,1.9532,2.0336,2.068,2.1132,2.1937,2.3235,2.4088,2.4088,2.502,2.5693,2.5693,2.5693,2.5693,2.5693,2.5693,2.5693,2.5693,2.5693,2.5693,2.5693,2.5693,2.5693,2.5693,2.5293,2.5057,2.4883,2.4023,2.3447,2.3101,2.3865,2.4915,0.0,0.0,0.0,0.0,0.0,0.0,0.9653,1.0,1.0412,1.1042,1.1583,1.2158,1.2886,1.3333,1.3667,1.4046,1.4549,1.4937,1.5177,1.5357,1.5511,1.5631,1.5651,1.5698,1.5771,1.5784,1.5784,1.5784,1.5784,1.5784,1.5784,1.5784,1.5784,1.5784,1.5784,1.5784,1.5784,1.5784,1.5784,1.5784,1.5784,1.5784,1.5784,1.5784,1.5784,1.5784,1.5784,1.5784,1.5798,1.6019,1.6359,1.6844,1.6971,1.7192,1.7454,1.7454,1.7691,1.8016,1.8016,1.8391,1.8921,1.8921,1.9078,1.9279,1.9279,1.9279,1.9279,1.9279,1.9279,1.9279,1.9279,1.9279,1.9279,1.9279,1.9279,1.9279,1.9279,1.9279,1.9279,1.9279,1.968,2.0181,2.0783,2.1633,2.2442,2.3085,2.4097,2.4756,2.4756,2.5323,2.5693,2.5693,2.5693,2.5693,2.5693,2.5693,2.5693,2.5693,2.5693,2.5693,2.5693,2.5693,2.5693,2.5693,2.5478,2.5254,2.5116,2.4385,2.4016,2.4004,2.4531,2.5432,0.8423,0.8479,0.0,0.0,0.9057,0.0,1.0131,1.0043,0.9973,1.0942,1.1176,1.1496,1.2382,1.2596,1.2811,1.3267,1.3734,1.4208,1.4874,1.4988,1.5109,1.5317,1.5351,1.5451,1.5705,1.5732,1.5732,1.5732,1.5732,1.5698,1.5731,1.5785,1.5751,1.5784,1.5784,1.5784,1.5784,1.5784,1.5784,1.5784,1.5784,1.5784,1.5784,1.5784,1.5784,1.5784,1.5784,1.5784,1.5784,1.5784,1.6005,1.6299,1.656,1.684,1.7152,1.7152,1.7475,1.7921,1.7955,1.8321,1.8828,1.89,1.9049,1.9228,1.9264,1.9279,1.9279,1.9279,1.9279,1.9279,1.9279,1.9279,1.9279,1.9279,1.9279,1.9279,1.9279,1.9376,1.948,1.948,2.0233,2.0987,2.1234,2.2835,2.4137,2.4245,2.5069,2.5693,2.5693,2.5693,2.5693,2.5693,2.5693,2.5693,2.5693,2.5693,2.5693,2.5693,2.5693,2.5693,2.5693,2.5693,2.5693,2.5693,2.5693,2.5537,2.5184,2.4648,2.4684,2.5249,2.5249,2.5757,0.9477,0.9599,0.9677,0.9342,0.9733,0.0,0.9299,0.9426,0.9679,0.9637,0.986,1.0251,1.0901,1.1369,1.1724,1.1802,1.2712,1.3667,1.4489,1.481,1.5028,1.5089,1.5095,1.5115,1.5169,1.5182,1.5182,1.5182,1.5182,1.5237,1.5471,1.5478,1.5585,1.5771,1.5784,1.5784,1.5784,1.5784,1.5784,1.5784,1.5784,1.5784,1.5784,1.5784,1.5784,1.5784,1.5784,1.5784,1.5784,1.5784,1.6005,1.6328,1.6382,1.654,1.6794,1.6794,1.7129,1.7622,1.7674,1.8006,1.8484,1.8808,1.8897,1.8935,1.9199,1.9279,1.9279,1.9279,1.9279,1.9279,1.9279,1.9279,1.9279,1.9279,1.9279,1.9279,1.9279,1.9983,2.0585,2.0585,2.0783,2.1438,2.3185,2.384,2.4393,2.5274,2.5586,2.5693,2.5693,2.5693,2.5693,2.5693,2.5693,2.5693,2.5693,2.5693,2.5693,2.5693,2.5693,2.5693,2.5693,2.5693,2.5693,2.5693,2.5693,2.5645,2.5605,2.4805,2.4832,2.5702,2.5702,2.6215,0.999,0.99,0.99,0.99,1.0043,0.0,0.0,0.9459,0.9546,0.984,0.9666,0.9733,1.0646,1.0895,1.1089,1.1342,1.2178,1.2859,1.316,1.3714,1.4195,1.4539,1.4396,1.4422,1.471,1.4921,1.5008,1.5008,1.5008,1.5075,1.517,1.5317,1.5464,1.5611,1.5752,1.5784,1.5784,1.5784,1.5784,1.5784,1.5784,1.5784,1.5784,1.5784,1.5784,1.5784,1.5784,1.5784,1.5784,1.5784,1.5919,1.6052,1.6052,1.6233,1.6486,1.6486,1.6835,1.7334,1.7486,1.7796,1.8166,1.8492,1.8578,1.8577,1.8738,1.8906,1.9067,1.9228,1.9279,1.9279,1.9279,1.9279,1.9279,1.9279,1.9732,2.0078,2.0078,2.0936,2.1836,2.2383,2.2484,2.2835,2.389,2.455,2.5069,2.5635,2.5693,2.5693,2.5693,2.5693,2.5693,2.5693,2.5693,2.5693,2.5693,2.5693,2.5693,2.5693,2.5693,2.5693,2.5693,2.5693,2.5693,2.5693,2.5693,2.5693,2.5693,2.5379,2.5555,2.6164,2.6307,2.6713,1.0433,1.0281,1.0265,1.0459,1.0358,1.0147,0.0,0.0,0.0,1.0298,0.9826,0.959,1.0568,1.0579,1.0559,1.0902,1.159,1.1931,1.1618,1.2258,1.2999,1.3587,1.3547,1.3661,1.4135,1.4342,1.4593,1.4821,1.468,1.468,1.4914,1.5097,1.5257,1.5311,1.5591,1.5698,1.5698,1.5751,1.5784,1.5784,1.5784,1.5784,1.5784,1.5784,1.5784,1.5784,1.5784,1.5784,1.5784,1.5784,1.5784,1.5784,1.5784,1.5979,1.6186,1.6186,1.6535,1.7055,1.7351,1.7584,1.7851,1.8213,1.8299,1.8299,1.8299,1.8525,1.8847,1.9111,1.9228,1.9279,1.9279,1.9428,1.9628,1.9628,2.0431,2.1183,2.1183,2.2038,2.3035,2.3939,2.4245,2.4402,2.4402,2.5118,2.5693,2.5693,2.5693,2.5693,2.5693,2.5693,2.5693,2.5693,2.5693,2.5693,2.5693,2.5693,2.5693,2.5693,2.5693,2.5693,2.5693,2.5693,2.5693,2.5693,2.5693,2.5693,2.5693,2.6014,2.6304,2.6496,2.6805,2.7034,1.1189,1.1637,1.171,1.0474,1.1096,1.1536,0.9717,0.0,1.0318,0.9903,0.0,0.9673,0.9806,0.0,0.0,0.9491,1.0421,1.0949,1.0394,1.0855,1.1463,1.2087,1.2589,1.2911,1.2978,1.2777,1.3046,1.4108,1.3487,1.3494,1.4516,1.4603,1.4743,1.5048,1.5297,1.5444,1.5444,1.5698,1.5784,1.5784,1.5784,1.5784,1.5784,1.5784,1.5784,1.5784,1.5784,1.5784,1.5784,1.5784,1.5784,1.5784,1.5784,1.5804,1.5879,1.5879,1.6184,1.6681,1.7057,1.7253,1.749,1.8116,1.8299,1.8299,1.8299,1.8525,1.8796,1.8833,1.9052,1.9279,1.9279,2.0034,2.0731,2.0731,2.154,2.2341,2.2341,2.3135,2.3939,2.4088,2.4864,2.5528,2.5528,2.5635,2.5693,2.5693,2.5693,2.5693,2.5693,2.5693,2.5693,2.5693,2.5693,2.5693,2.5693,2.5693,2.5693,2.5693,2.5693,2.5693,2.5693,2.5693,2.5693,2.5693,2.5693,2.5693,2.5693,2.6217,2.6448,2.6496,2.6805,2.7034,1.1444,1.1618,1.1633,1.0829,1.0989,1.1134,1.021,1.0057,1.0157,1.0388,0.0,0.0,0.0,0.0,0.0,0.0,1.0053,1.0281,0.9657,1.0114,1.0701,1.1323,1.1464,1.1779,1.2462,1.2378,1.2659,1.3514,1.2899,1.2933,1.3919,1.4175,1.4402,1.4696,1.5157,1.5398,1.5398,1.5685,1.5784,1.5784,1.5784,1.5784,1.5784,1.5784,1.5784,1.5784,1.5784,1.5784,1.5784,1.5784,1.5784,1.5832,1.5981,1.5933,1.5832,1.5981,1.6258,1.665,1.6933,1.7174,1.7377,1.7647,1.7735,1.7772,1.7962,1.8247,1.8547,1.8738,1.9023,1.9428,2.0086,2.0585,2.1038,2.1684,2.2643,2.3443,2.3443,2.4254,2.502,2.502,2.5372,2.5693,2.5693,2.5693,2.5693,2.5693,2.5693,2.5693,2.5693,2.5693,2.5693,2.5693,2.5693,2.5693,2.5693,2.5693,2.5693,2.5693,2.5693,2.5693,2.5693,2.5693,2.5693,2.5693,2.5693,2.5693,2.5693,2.6255,2.6496,2.6496,2.6928,2.7167,1.1693,1.1788,1.1722,1.1069,1.0896,1.0804,1.0441,1.0204,1.02,1.0794,1.0494,0.0,0.0,0.0,0.9903,0.9735,0.0,0.985,0.9191,0.9531,1.0003,1.0461,1.0468,1.0835,1.1844,1.1724,1.1971,1.2893,1.2325,1.2438,1.354,1.3848,1.4102,1.4396,1.497,1.5277,1.5277,1.5645,1.5784,1.5784,1.5784,1.5784,1.5784,1.5784,1.5784,1.5784,1.5784,1.5784,1.5784,1.5784,1.5784,1.5832,1.6028,1.6028,1.5927,1.6218,1.6501,1.6737,1.6932,1.7106,1.7279,1.7279,1.7279,1.7377,1.7611,1.7969,1.835,1.8591,1.9205,1.9931,2.068,2.1336,2.1988,2.2735,2.375,2.455,2.455,2.5167,2.5693,2.5693,2.5693,2.5693,2.5693,2.5693,2.5693,2.5693,2.5693,2.5693,2.5693,2.5693,2.5693,2.5693,2.5693,2.5693,2.5693,2.5693,2.5693,2.5693,2.5693,2.5693,2.5693,2.5693,2.5693,2.5693,2.5693,2.5693,2.5693,2.6255,2.6496,2.6496,2.7071,2.7309,1.1975,1.2629,1.2478,1.0976,1.0995,1.1082,0.9973,1.0385,1.0882,1.066,1.1002,1.1202,1.0693,1.0579,0.0,0.0,0.0,0.0,0.0,0.9051,0.9251,0.9264,0.9764,1.0367,1.0975,1.0267,1.0481,1.2198,1.153,1.1797,1.3507,1.3613,1.3753,1.4088,1.4713,1.5022,1.5022,1.5545,1.5784,1.5784,1.5784,1.5784,1.5784,1.5784,1.5784,1.5784,1.5784,1.5784,1.5784,1.5784,1.5784,1.5784,1.5832,1.5981,1.6224,1.6494,1.6784,1.6979,1.6979,1.7106,1.7279,1.7279,1.7279,1.7279,1.7293,1.7794,1.8306,1.8313,1.9567,2.0885,2.0885,2.2433,2.3989,2.4038,2.4864,2.5635,2.5635,2.5684,2.5693,2.5693,2.5693,2.5693,2.5693,2.5693,2.5693,2.5693,2.5693,2.5693,2.5693,2.5693,2.5693,2.5693,2.5693,2.5693,2.5693,2.5693,2.5693,2.5693,2.5693,2.5693,2.5693,2.5693,2.5693,2.5693,2.5693,2.5693,2.5693,2.6255,2.6496,2.6496,2.7071,2.7309,1.2311,1.2582,1.2441,1.1446,1.1086,1.0865,1.041,1.0526,1.0713,1.0613,1.1022,1.1249,1.07,1.0593,0.0,0.0,0.0,0.0,0.0,0.8891,0.8931,0.8931,0.9472,0.9907,1.0107,0.986,1.0254,1.1582,1.1089,1.1424,1.3005,1.3247,1.3487,1.374,1.4362,1.4763,1.5008,1.5351,1.5638,1.5784,1.5784,1.5784,1.5784,1.5784,1.5784,1.5784,1.5784,1.5784,1.5784,1.5784,1.5784,1.5832,1.6204,1.64,1.6494,1.6588,1.6784,1.7026,1.7153,1.7239,1.7279,1.7279,1.7279,1.7279,1.7279,1.7786,1.8447,1.9161,2.0095,2.1234,2.2643,2.3543,2.4295,2.4962,2.543,2.5693,2.5693,2.5693,2.5693,2.5693,2.5693,2.5693,2.5693,2.5693,2.5693,2.5693,2.5693,2.5693,2.5693,2.5693,2.5693,2.5693,2.5693,2.5693,2.5693,2.5693,2.5693,2.5693,2.5693,2.5693,2.5693,2.5693,2.5693,2.5693,2.5693,2.5693,2.5693,2.6255,2.6496,2.6496,2.7071,2.7309,1.2448,1.2635,1.2569,1.1848,1.1498,1.1222,1.0843,1.0908,1.1028,1.0921,1.1169,1.1376,1.1243,1.0874,1.0466,0.0,0.0,0.0,0.0,0.8804,0.8804,0.8804,0.9145,0.0,0.0,0.9306,0.9699,1.0843,1.0615,1.1075,1.2549,1.2986,1.3307,1.3593,1.4173,1.4609,1.4803,1.5204,1.5491,1.5678,1.5731,1.5784,1.5784,1.5784,1.5784,1.5784,1.5784,1.5784,1.5784,1.5784,1.5784,1.5825,1.6305,1.6541,1.6629,1.677,1.6965,1.7113,1.7239,1.7279,1.7372,1.7738,1.7831,1.7831,1.7831,1.8298,1.8973,1.9683,2.0677,2.1887,2.3642,2.4402,2.4854,2.5538,2.5693,2.5693,2.5693,2.5693,2.5693,2.5693,2.5693,2.5693,2.5693,2.5693,2.5693,2.5693,2.5693,2.5693,2.5693,2.5693,2.5693,2.5693,2.5693,2.5693,2.5693,2.5693,2.5693,2.5693,2.5693,2.5693,2.5693,2.5693,2.5693,2.5693,2.5693,2.5732,2.582,2.6255,2.6554,2.6651,2.7071,2.7309]}]]